[[{"header":{"parameterUnit":"m.s-1","parameterCategory":1,"la1":31.0,"la2":29.5877,"lo1":-88.7671,"lo2":-86.6584,"dy":0.0162,"dx":0.0185,"nx":115,"ny":88,"refTime":"2026-03-31T12:00:00:Z","depth":0,"parameterNumber":2,"parameterNumberName":"U-component_of_WINDS"},"data":[0.0,0.0,0.0,0.0,0.0,0.0,0.0,0.0,0.0,0.0,0.0,0.0,0.0,0.0,0.0,0.0,0.0,0.0,0.0,0.0,0.0,0.0,0.0,0.0,0.0,0.0,0.0,0.0,0.0,0.0,0.0,0.0,0.0,0.0,0.0,0.0,0.0,0.0,0.0,0.0,0.0,0.0,0.0,0.0,0.0,0.0,0.0,0.0,0.0,0.0,0.0,0.0,0.0,0.0,0.0,0.0,0.0,0.0,0.0,0.0,0.0,0.0,0.0,0.0,0.0,0.0,0.0,0.0,0.0,0.0,0.0,0.0,0.0,0.0,0.0,0.0,0.0,0.0,0.0,0.0,0.0,0.0,0.0,0.0,0.0,0.0,0.0,0.0,0.0,0.0,0.0,0.0,0.0,0.0,0.0,0.0,0.0,0.0,0.0,0.0,0.0,0.0,0.0,0.0,0.0,0.0,0.0,0.0,0.0,0.0,0.0,0.0,0.0,0.0,0.0,0.0,0.0,0.0,0.0,0.0,0.0,0.0,0.0,0.0,0.0,0.0,0.0,0.0,0.0,0.0,0.0,0.0,0.0,0.0,0.0,0.0,0.0,0.0,0.0,0.0,0.0,0.0,0.0,0.0,0.0,0.0,0.0,0.0,0.0,0.0,0.0,0.0,0.0,0.0,0.0,0.0,0.0,0.0,0.0,0.0,0.0,0.0,0.0,0.0,0.0,0.0,0.0,0.0,0.0,0.0,0.0,0.0,0.0,0.0,0.0,0.0,0.0,0.0,0.0,0.0,0.0,0.0,0.0,0.0,0.0,0.0,0.0,0.0,0.0,0.0,0.0,0.0,0.0,0.0,0.0,0.0,0.0,0.0,0.0,0.0,0.0,0.0,0.0,0.0,0.0,0.0,0.0,0.0,0.0,0.0,0.0,0.0,0.0,0.0,0.0,0.0,0.0,0.0,0.0,0.0,0.0,0.0,0.0,0.0,0.0,0.0,0.0,0.0,0.0,0.0,0.0,0.0,0.0,0.0,0.0,0.0,0.0,0.0,0.0,0.0,0.0,0.0,0.0,0.0,0.0,0.0,0.0,0.0,0.0,0.0,0.0,0.0,0.0,0.0,0.0,0.0,0.0,0.0,0.0,0.0,0.0,0.0,0.0,0.0,0.0,0.0,0.0,0.0,0.0,0.0,0.0,0.0,0.0,0.0,0.0,0.0,0.0,0.0,0.0,0.0,0.0,0.0,0.0,0.0,0.0,0.0,0.0,0.0,0.0,0.0,0.0,0.0,0.0,0.0,0.0,0.0,0.0,0.0,0.0,0.0,0.0,0.0,0.0,0.0,0.0,0.0,0.0,0.0,0.0,0.0,0.0,0.0,0.0,0.0,0.0,0.0,0.0,0.0,0.0,0.0,0.0,0.0,0.0,0.0,0.0,0.0,0.0,0.0,0.0,0.0,0.0,0.0,0.0,0.0,0.0,0.0,0.0,0.0,0.0,0.0,0.0,0.0,0.0,0.0,0.0,0.0,0.0,0.0,0.0,0.0,0.0,0.0,0.0,0.0,0.0,0.0,0.0,0.0,0.0,0.0,0.0,0.0,0.0,0.0,0.0,0.0,0.0,0.0,0.0,0.0,0.0,0.0,0.0,0.0,0.0,0.0,0.0,0.0,0.0,0.0,0.0,0.0,0.0,0.0,0.0,0.0,0.0,0.0,0.0,0.0,0.0,0.0,0.0,0.0,0.0,0.0,0.0,0.0,0.0,0.0,0.0,0.0,0.0,0.0,0.0,0.0,0.0,0.0,0.0,0.0,0.0,0.0,0.0,0.0,0.0,0.0,0.0,0.0,0.0,0.0,0.0,0.0,0.0,0.0,0.0,0.0,0.0,0.0,0.0,0.0,0.0,0.0,0.0,0.0,0.0,0.0,0.0,0.0,0.0,0.0,0.0,0.0,0.0,0.0,0.0,0.0,0.0,0.0,0.0,0.0,0.0,0.0,0.0,0.0,0.0,0.0,0.0,0.0,0.0,0.0,0.0,0.0,0.0,0.0,0.0,0.0,0.0,0.0,0.0,0.0,0.0,0.0,0.0,0.0,0.0,0.0,0.0,0.0,0.0,0.0,0.0,0.0,0.0,0.0,0.0,0.0,0.0,0.0,0.0,0.0,0.0,0.0,0.0,0.0,0.0,0.0,0.0,0.0,0.0,0.0,0.0,0.0,0.0,0.0,0.0,0.0,0.0,0.0,0.0,0.0,0.0,0.0,0.0,0.0,0.0,0.0,0.0,0.0,0.0,0.0,0.0,0.0,0.0,0.0,0.0,0.0,0.0,0.0,0.0,0.0,0.0,0.0,0.0,0.0,0.0,0.0,0.0,0.0,0.0,0.0,0.0,0.0,0.0,0.0,0.0,0.0,0.0,0.0,0.0,0.0,0.0,0.0,0.0,0.0,0.0,0.0,0.0,0.0,0.0,0.0,0.0,0.0,0.0,0.0,0.0,0.0,0.0,0.0,0.0,0.0,0.0,0.0,0.0,0.0,0.0,0.0,0.0,0.0,0.0,0.0,0.0,0.0,0.0,0.0,0.0,0.0,0.0,0.0,0.0,0.0,0.0,0.0,0.0,0.0,0.0,0.0,0.0,0.0,0.0,0.0,0.0,0.0,0.0,0.0,0.0,0.0,0.0,0.0,0.0,0.0,0.0,0.0,0.0,0.0,0.0,0.0,0.0,0.0,0.0,0.0,0.0,0.0,0.0,0.0,0.0,0.0,0.0,0.0,0.0,0.0,0.0,0.0,0.0,0.0,0.0,0.0,0.0,0.0,0.0,0.0,0.0,0.0,0.0,0.0,0.0,0.0,0.0,0.0,0.0,0.0,0.0,0.0,0.0,0.0,0.0,0.0,0.0,0.0,0.0,0.0,0.0,0.0,0.0,0.0,0.0,0.0,0.0,0.0,0.0,0.0,0.0,0.0,0.0,0.0,0.0,0.0,0.0,0.0,0.0,0.0,0.0,0.0,0.0,0.0,0.0,0.0,0.0,0.0,0.0,0.0,0.0,0.0,0.0,0.0,0.0,0.0,0.0,0.0,0.0,0.0,0.0,0.0,0.0,0.0,0.0,0.0,0.0,0.0,0.0,0.0,0.0,0.0,0.0,0.0,0.0,0.0,0.0,0.0,0.0,0.0,0.0,0.0,0.0,0.0,0.0,0.0,0.0,0.0,0.0,0.0,0.0,0.0,0.0,0.0,0.0,0.0,0.0,0.0,0.0,0.0,0.0,0.0,0.0,0.0,0.0,0.0,0.0,0.0,0.0,0.0,0.0,0.0,0.0,0.0,0.0,0.0,0.0,0.0,0.0,0.0,0.0,0.0,0.0,0.0,0.0,0.0,0.0,0.0,0.0,0.0,0.0,0.0,0.0,0.0,0.0,0.0,0.0,0.0,0.0,0.0,0.0,0.0,0.0,0.0,0.0,0.0,0.0,0.0,0.0,0.0,0.0,0.0,0.0,0.0,0.0,0.0,0.0,0.0,0.0,0.0,0.0,0.0,0.0,0.0,0.0,0.0,0.0,0.0,0.0,0.0,0.0,0.0,0.0,0.0,0.0,0.0,0.0,0.0,0.0,0.0,0.0,0.0,0.0,0.0,0.0,0.0,0.0,0.0,0.0,0.0,0.0,0.0,0.0,0.0,0.0,0.0,0.0,0.0,0.0,0.0,0.0,0.0,0.0,0.0,0.0,0.0,0.0,0.0,0.0,0.0,0.0,0.0,0.0,0.0,0.0,0.0,0.0,0.0,0.0,0.0,0.0,0.0,0.0,0.0,0.0,0.0,0.0,0.0,0.0,0.0,0.0,0.0,0.0,0.0,0.0,0.0,0.0,0.0,0.0,0.0,0.0,0.0,0.0,0.0,0.0,0.0,0.0,0.0,0.0,0.0,0.0,0.0,0.0,0.0,0.0,0.0,0.0,0.0,0.0,0.0,0.0,0.0,0.0,0.0,0.0,0.0,0.0,0.0,0.0,0.0,0.0,0.0,0.0,0.0,0.0,0.0,0.0,0.0,0.0,0.0,0.0,0.0,0.0,0.0,0.0,0.0,0.0,0.0,0.0,0.0,0.0,0.0,0.0,0.0,0.0,0.0,0.0,0.0,0.0,0.0,0.0,0.0,0.0,0.0,0.0,0.0,0.0,0.0,0.0,0.0,0.0,0.0,0.0,0.0,0.0,0.0,0.0,0.0,0.0,0.0,0.0,0.0,0.0,0.0,0.0,0.0,-2.2128,0.0,0.0,0.0,0.0,0.0,0.0,0.0,0.0,0.0,0.0,0.0,0.0,0.0,0.0,0.0,0.0,0.0,0.0,0.0,0.0,0.0,0.0,0.0,0.0,0.0,0.0,0.0,0.0,0.0,0.0,0.0,0.0,0.0,0.0,0.0,0.0,0.0,0.0,0.0,0.0,0.0,0.0,0.0,0.0,0.0,0.0,0.0,0.0,0.0,0.0,0.0,0.0,0.0,0.0,0.0,0.0,0.0,0.0,0.0,0.0,0.0,0.0,0.0,0.0,0.0,0.0,0.0,0.0,0.0,0.0,0.0,0.0,0.0,0.0,0.0,0.0,0.0,0.0,0.0,0.0,0.0,0.0,0.0,0.0,0.0,0.0,0.0,0.0,0.0,0.0,0.0,0.0,0.0,0.0,0.0,0.0,0.0,0.0,0.0,0.0,0.0,0.0,0.0,0.0,0.0,0.0,0.0,0.0,0.0,0.0,-2.4646,-2.4614,-2.3279,-2.2547,-2.2498,0.0,0.0,0.0,0.0,0.0,0.0,0.0,0.0,0.0,0.0,0.0,0.0,0.0,0.0,0.0,0.0,0.0,0.0,0.0,0.0,0.0,0.0,0.0,0.0,0.0,0.0,0.0,0.0,0.0,0.0,0.0,0.0,0.0,0.0,0.0,0.0,0.0,0.0,0.0,0.0,0.0,0.0,0.0,0.0,0.0,0.0,0.0,0.0,0.0,0.0,0.0,0.0,0.0,0.0,0.0,0.0,0.0,0.0,0.0,0.0,0.0,0.0,0.0,0.0,0.0,0.0,0.0,0.0,0.0,0.0,0.0,0.0,0.0,0.0,0.0,0.0,0.0,0.0,0.0,0.0,0.0,0.0,0.0,0.0,0.0,0.0,0.0,0.0,0.0,0.0,0.0,0.0,0.0,0.0,0.0,0.0,0.0,0.0,0.0,0.0,0.0,0.0,0.0,0.0,0.0,0.0,0.0,0.0,0.0,0.0,0.0,0.0,-2.3708,-2.2904,-2.2589,0.0,0.0,0.0,0.0,0.0,0.0,0.0,0.0,0.0,0.0,0.0,0.0,0.0,0.0,0.0,0.0,0.0,0.0,0.0,0.0,0.0,0.0,0.0,0.0,0.0,0.0,0.0,0.0,0.0,0.0,0.0,0.0,0.0,0.0,0.0,0.0,0.0,0.0,0.0,0.0,0.0,0.0,0.0,0.0,0.0,0.0,0.0,0.0,0.0,0.0,0.0,0.0,0.0,0.0,0.0,0.0,0.0,0.0,0.0,0.0,0.0,0.0,0.0,0.0,0.0,0.0,0.0,0.0,0.0,0.0,0.0,0.0,0.0,0.0,0.0,0.0,0.0,0.0,0.0,0.0,0.0,0.0,0.0,0.0,0.0,0.0,0.0,0.0,0.0,0.0,0.0,0.0,0.0,0.0,0.0,0.0,0.0,0.0,0.0,0.0,0.0,0.0,0.0,0.0,0.0,0.0,0.0,0.0,0.0,0.0,-2.463,-2.4614,-2.3916,0.0,-2.1778,0.0,0.0,0.0,0.0,0.0,0.0,0.0,0.0,0.0,0.0,0.0,0.0,0.0,0.0,0.0,0.0,0.0,0.0,0.0,0.0,0.0,0.0,0.0,0.0,0.0,0.0,0.0,0.0,0.0,0.0,0.0,0.0,0.0,0.0,0.0,0.0,0.0,0.0,0.0,0.0,0.0,0.0,0.0,0.0,0.0,0.0,0.0,0.0,0.0,0.0,0.0,0.0,0.0,0.0,0.0,0.0,0.0,0.0,0.0,0.0,0.0,0.0,0.0,0.0,0.0,0.0,0.0,0.0,0.0,0.0,0.0,0.0,0.0,0.0,0.0,0.0,0.0,0.0,0.0,0.0,0.0,0.0,0.0,0.0,0.0,0.0,0.0,0.0,0.0,0.0,0.0,0.0,0.0,0.0,0.0,0.0,0.0,0.0,0.0,0.0,0.0,0.0,0.0,0.0,0.0,0.0,0.0,0.0,0.0,0.0,-2.5008,-2.5008,-2.3977,-2.2805,0.0,0.0,0.0,0.0,0.0,0.0,0.0,0.0,0.0,0.0,0.0,0.0,0.0,0.0,0.0,0.0,0.0,0.0,0.0,0.0,0.0,0.0,0.0,0.0,0.0,0.0,0.0,0.0,0.0,0.0,0.0,0.0,0.0,0.0,0.0,0.0,0.0,0.0,0.0,0.0,0.0,0.0,0.0,0.0,0.0,0.0,0.0,0.0,0.0,0.0,0.0,0.0,0.0,0.0,0.0,0.0,0.0,0.0,0.0,0.0,0.0,0.0,0.0,0.0,0.0,0.0,0.0,0.0,0.0,0.0,0.0,0.0,0.0,0.0,0.0,0.0,0.0,0.0,0.0,0.0,0.0,0.0,0.0,0.0,0.0,0.0,0.0,0.0,0.0,0.0,0.0,0.0,0.0,0.0,0.0,0.0,0.0,0.0,0.0,0.0,0.0,0.0,0.0,0.0,0.0,0.0,0.0,0.0,0.0,0.0,-2.441,0.0,-2.4937,-2.3651,-2.2486,-2.1538,0.0,0.0,0.0,0.0,0.0,0.0,0.0,0.0,0.0,0.0,0.0,0.0,0.0,0.0,0.0,0.0,0.0,0.0,0.0,0.0,0.0,0.0,0.0,0.0,0.0,0.0,0.0,0.0,0.0,0.0,0.0,0.0,0.0,0.0,0.0,0.0,0.0,0.0,0.0,0.0,0.0,0.0,0.0,0.0,0.0,0.0,0.0,0.0,0.0,0.0,0.0,0.0,0.0,0.0,0.0,0.0,0.0,0.0,0.0,0.0,0.0,0.0,0.0,0.0,0.0,0.0,0.0,0.0,0.0,0.0,0.0,0.0,0.0,0.0,0.0,0.0,0.0,0.0,0.0,0.0,0.0,0.0,0.0,0.0,0.0,0.0,0.0,0.0,0.0,0.0,0.0,0.0,0.0,0.0,0.0,0.0,0.0,0.0,0.0,0.0,0.0,0.0,0.0,0.0,0.0,0.0,0.0,0.0,0.0,-2.3071,-2.3677,-2.4187,-2.2818,-2.2013,0.0,0.0,0.0,0.0,0.0,0.0,0.0,0.0,0.0,0.0,0.0,0.0,0.0,0.0,0.0,0.0,0.0,0.0,0.0,0.0,0.0,0.0,0.0,0.0,0.0,0.0,0.0,0.0,0.0,0.0,0.0,0.0,0.0,0.0,0.0,0.0,0.0,0.0,0.0,0.0,0.0,0.0,0.0,0.0,0.0,0.0,0.0,0.0,0.0,0.0,0.0,0.0,0.0,0.0,0.0,0.0,0.0,0.0,0.0,0.0,0.0,0.0,0.0,0.0,0.0,0.0,0.0,0.0,0.0,0.0,0.0,0.0,0.0,0.0,0.0,0.0,0.0,0.0,0.0,0.0,0.0,0.0,0.0,0.0,0.0,0.0,0.0,0.0,0.0,0.0,0.0,0.0,0.0,0.0,0.0,0.0,0.0,0.0,0.0,0.0,0.0,0.0,0.0,0.0,0.0,0.0,0.0,0.0,0.0,-2.2317,-2.279,-2.3107,-2.3181,-2.1809,-2.0846,0.0,0.0,0.0,0.0,0.0,0.0,0.0,0.0,0.0,0.0,0.0,0.0,0.0,0.0,0.0,0.0,0.0,0.0,0.0,0.0,0.0,0.0,0.0,0.0,0.0,0.0,0.0,0.0,0.0,0.0,0.0,0.0,0.0,0.0,0.0,0.0,0.0,0.0,0.0,0.0,0.0,0.0,0.0,0.0,0.0,0.0,0.0,0.0,0.0,0.0,0.0,0.0,0.0,0.0,0.0,0.0,0.0,0.0,0.0,0.0,0.0,0.0,0.0,0.0,0.0,0.0,0.0,0.0,0.0,0.0,0.0,0.0,0.0,0.0,0.0,0.0,0.0,0.0,0.0,0.0,0.0,0.0,0.0,0.0,0.0,0.0,0.0,0.0,0.0,0.0,0.0,0.0,0.0,0.0,0.0,0.0,0.0,0.0,0.0,0.0,0.0,0.0,0.0,0.0,0.0,0.0,0.0,0.0,0.0,-2.206,0.0,-2.2679,0.0,-2.1321,-2.0337,0.0,0.0,0.0,0.0,0.0,0.0,0.0,0.0,0.0,0.0,0.0,0.0,0.0,0.0,0.0,0.0,0.0,0.0,0.0,0.0,0.0,0.0,0.0,0.0,0.0,0.0,0.0,0.0,0.0,0.0,0.0,0.0,0.0,0.0,0.0,0.0,0.0,0.0,0.0,0.0,0.0,0.0,0.0,0.0,0.0,0.0,0.0,0.0,0.0,0.0,0.0,0.0,0.0,0.0,0.0,0.0,0.0,0.0,0.0,0.0,0.0,0.0,0.0,0.0,0.0,0.0,0.0,0.0,0.0,0.0,0.0,0.0,0.0,0.0,0.0,0.0,0.0,0.0,0.0,0.0,0.0,0.0,0.0,0.0,0.0,0.0,0.0,0.0,0.0,0.0,0.0,0.0,0.0,0.0,0.0,0.0,0.0,0.0,0.0,0.0,0.0,0.0,0.0,0.0,0.0,0.0,0.0,0.0,-2.0637,-2.158,-2.2144,-2.2344,-2.2181,-2.1376,-2.0674,0.0,0.0,0.0,0.0,0.0,0.0,0.0,0.0,0.0,0.0,0.0,0.0,0.0,0.0,0.0,0.0,0.0,0.0,0.0,0.0,0.0,0.0,0.0,0.0,0.0,0.0,0.0,0.0,0.0,0.0,0.0,0.0,0.0,0.0,0.0,0.0,0.0,0.0,0.0,0.0,0.0,0.0,0.0,0.0,0.0,0.0,0.0,0.0,0.0,0.0,0.0,0.0,0.0,0.0,0.0,0.0,0.0,0.0,0.0,0.0,0.0,0.0,0.0,0.0,0.0,0.0,0.0,0.0,0.0,0.0,0.0,0.0,0.0,0.0,0.0,0.0,0.0,0.0,0.0,0.0,0.0,0.0,0.0,0.0,0.0,0.0,0.0,0.0,0.0,0.0,0.0,0.0,0.0,0.0,0.0,0.0,0.0,0.0,0.0,0.0,0.0,0.0,0.0,0.0,0.0,0.0,0.0,0.0,0.0,-2.1873,-2.2294,-2.2293,-2.1765,-2.0542,-1.96,0.0,0.0,0.0,0.0,0.0,0.0,0.0,0.0,0.0,0.0,0.0,0.0,0.0,0.0,0.0,0.0,0.0,0.0,0.0,0.0,0.0,0.0,0.0,0.0,0.0,0.0,0.0,0.0,0.0,0.0,0.0,0.0,0.0,0.0,0.0,0.0,0.0,0.0,0.0,0.0,0.0,0.0,0.0,0.0,0.0,0.0,0.0,0.0,0.0,0.0,0.0,0.0,0.0,0.0,0.0,0.0,0.0,0.0,0.0,0.0,0.0,0.0,0.0,0.0,0.0,0.0,0.0,0.0,0.0,0.0,0.0,0.0,0.0,0.0,0.0,0.0,0.0,0.0,0.0,0.0,0.0,0.0,0.0,0.0,0.0,0.0,0.0,0.0,0.0,0.0,0.0,0.0,0.0,0.0,0.0,0.0,0.0,0.0,0.0,0.0,0.0,0.0,0.0,0.0,0.0,0.0,0.0,0.0,0.0,-2.3755,-2.4132,-2.3745,-2.2573,-2.1634,-2.0519,-1.9159,0.0,0.0,0.0,0.0,0.0,0.0,0.0,0.0,0.0,0.0,0.0,0.0,0.0,0.0,0.0,0.0,0.0,0.0,0.0,0.0,0.0,0.0,0.0,0.0,0.0,0.0,0.0,0.0,0.0,0.0,0.0,0.0,0.0,0.0,0.0,0.0,0.0,0.0,0.0,0.0,0.0,0.0,0.0,0.0,0.0,0.0,0.0,0.0,0.0,0.0,0.0,0.0,0.0,0.0,0.0,0.0,0.0,0.0,0.0,0.0,0.0,0.0,0.0,0.0,0.0,0.0,0.0,0.0,0.0,0.0,0.0,0.0,0.0,0.0,0.0,0.0,0.0,0.0,0.0,0.0,0.0,0.0,0.0,0.0,0.0,0.0,0.0,0.0,0.0,0.0,0.0,0.0,0.0,0.0,0.0,0.0,0.0,0.0,0.0,0.0,0.0,0.0,0.0,0.0,0.0,0.0,0.0,0.0,-2.6961,-2.7357,-2.6507,-2.4399,-2.4219,-2.2989,0.0,0.0,0.0,0.0,0.0,0.0,0.0,0.0,0.0,0.0,0.0,0.0,0.0,0.0,0.0,0.0,0.0,0.0,0.0,0.0,0.0,0.0,0.0,0.0,0.0,0.0,0.0,0.0,0.0,0.0,0.0,0.0,0.0,0.0,0.0,0.0,0.0,0.0,0.0,0.0,0.0,0.0,0.0,0.0,0.0,0.0,0.0,0.0,0.0,0.0,0.0,0.0,0.0,0.0,0.0,0.0,0.0,0.0,0.0,0.0,0.0,0.0,0.0,0.0,0.0,0.0,0.0,0.0,0.0,0.0,0.0,0.0,0.0,0.0,0.0,0.0,0.0,0.0,0.0,0.0,0.0,0.0,0.0,0.0,0.0,0.0,0.0,0.0,0.0,0.0,0.0,0.0,0.0,0.0,0.0,0.0,0.0,0.0,0.0,0.0,0.0,0.0,0.0,0.0,0.0,0.0,0.0,0.0,0.0,-2.9097,-3.0946,-3.0318,-2.6961,-2.5907,-2.4409,0.0,0.0,0.0,0.0,0.0,0.0,0.0,0.0,0.0,0.0,0.0,0.0,0.0,0.0,0.0,0.0,0.0,0.0,0.0,0.0,0.0,0.0,0.0,0.0,0.0,0.0,0.0,0.0,0.0,0.0,0.0,0.0,0.0,0.0,0.0,0.0,0.0,0.0,0.0,0.0,0.0,0.0,0.0,0.0,0.0,0.0,0.0,0.0,0.0,0.0,0.0,0.0,0.0,0.0,0.0,0.0,0.0,0.0,0.0,0.0,0.0,0.0,0.0,0.0,0.0,0.0,0.0,0.0,0.0,0.0,0.0,0.0,0.0,0.0,0.0,0.0,0.0,0.0,0.0,0.0,0.0,0.0,0.0,0.0,0.0,0.0,0.0,0.0,0.0,0.0,0.0,0.0,0.0,0.0,0.0,0.0,0.0,0.0,0.0,0.0,0.0,0.0,0.0,0.0,0.0,0.0,0.0,0.0,-2.7308,-3.009,-3.2746,-3.2676,-2.9684,-2.8079,-2.5953,0.0,0.0,0.0,0.0,0.0,0.0,0.0,0.0,0.0,0.0,0.0,0.0,0.0,0.0,0.0,0.0,0.0,0.0,0.0,0.0,0.0,0.0,0.0,0.0,0.0,0.0,0.0,0.0,0.0,0.0,0.0,0.0,0.0,0.0,0.0,0.0,0.0,0.0,0.0,0.0,0.0,0.0,0.0,0.0,0.0,0.0,0.0,0.0,0.0,0.0,0.0,0.0,0.0,0.0,0.0,0.0,0.0,0.0,0.0,0.0,0.0,0.0,0.0,0.0,0.0,0.0,0.0,0.0,0.0,0.0,0.0,0.0,0.0,0.0,0.0,0.0,0.0,0.0,0.0,0.0,0.0,0.0,0.0,0.0,0.0,0.0,0.0,0.0,0.0,0.0,0.0,0.0,0.0,0.0,0.0,0.0,0.0,0.0,0.0,0.0,0.0,0.0,0.0,0.0,0.0,0.0,0.0,0.0,-2.8025,-3.0329,-3.3209,-3.3896,-3.2096,-3.0213,-2.7487,0.0,0.0,0.0,0.0,0.0,0.0,0.0,0.0,0.0,0.0,0.0,0.0,0.0,0.0,0.0,0.0,0.0,0.0,0.0,0.0,0.0,0.0,0.0,0.0,0.0,0.0,0.0,0.0,0.0,0.0,0.0,0.0,0.0,0.0,0.0,0.0,0.0,0.0,0.0,0.0,0.0,0.0,0.0,0.0,0.0,0.0,0.0,0.0,0.0,0.0,0.0,0.0,0.0,0.0,0.0,0.0,0.0,0.0,0.0,0.0,0.0,0.0,0.0,0.0,0.0,0.0,0.0,0.0,0.0,0.0,0.0,0.0,0.0,0.0,0.0,0.0,0.0,0.0,0.0,0.0,0.0,0.0,0.0,0.0,0.0,0.0,0.0,0.0,0.0,0.0,0.0,0.0,0.0,0.0,0.0,0.0,0.0,0.0,0.0,0.0,0.0,0.0,0.0,0.0,0.0,0.0,0.0,0.0,-2.914,-3.0597,-3.3043,-3.3484,-3.1746,-3.0618,-2.8551,0.0,0.0,0.0,0.0,0.0,0.0,0.0,0.0,0.0,0.0,0.0,0.0,0.0,0.0,0.0,0.0,0.0,0.0,0.0,0.0,0.0,0.0,0.0,0.0,0.0,0.0,0.0,0.0,0.0,0.0,0.0,0.0,0.0,0.0,0.0,0.0,0.0,0.0,0.0,0.0,0.0,0.0,0.0,0.0,0.0,0.0,0.0,0.0,-1.6055,0.0,0.0,0.0,0.0,0.0,0.0,0.0,0.0,0.0,0.0,0.0,0.0,0.0,0.0,0.0,0.0,0.0,0.0,0.0,0.0,0.0,0.0,0.0,0.0,0.0,0.0,0.0,0.0,0.0,0.0,0.0,0.0,0.0,0.0,0.0,0.0,0.0,0.0,0.0,0.0,0.0,0.0,0.0,0.0,0.0,0.0,0.0,0.0,0.0,0.0,0.0,0.0,0.0,0.0,0.0,0.0,0.0,0.0,0.0,-2.9394,-3.0847,-3.308,-3.3582,-3.2156,-3.1418,-2.9445,0.0,0.0,0.0,0.0,0.0,0.0,0.0,0.0,0.0,0.0,0.0,0.0,0.0,0.0,0.0,0.0,0.0,0.0,0.0,0.0,0.0,0.0,0.0,0.0,0.0,0.0,0.0,0.0,0.0,0.0,0.0,0.0,0.0,0.0,0.0,0.0,0.0,0.0,0.0,0.0,0.0,0.0,0.0,0.0,0.0,0.0,0.0,0.0,0.0,0.0,0.0,0.0,0.0,0.0,0.0,0.0,0.0,0.0,0.0,0.0,0.0,0.0,0.0,0.0,0.0,0.0,0.0,0.0,0.0,0.0,0.0,0.0,0.0,0.0,0.0,0.0,0.0,0.0,0.0,0.0,0.0,0.0,0.0,0.0,0.0,0.0,0.0,0.0,0.0,0.0,0.0,0.0,0.0,0.0,0.0,0.0,0.0,0.0,0.0,0.0,0.0,0.0,0.0,0.0,0.0,0.0,0.0,-2.6608,-2.9366,-3.0856,-3.3012,-3.3626,-3.2581,-3.1706,-2.9722,-2.648,0.0,0.0,0.0,0.0,0.0,0.0,0.0,0.0,0.0,0.0,0.0,0.0,0.0,0.0,0.0,0.0,0.0,0.0,0.0,0.0,0.0,0.0,0.0,0.0,0.0,0.0,0.0,0.0,0.0,0.0,0.0,0.0,0.0,0.0,0.0,0.0,0.0,0.0,-1.3582,-1.5265,0.0,0.0,0.0,0.0,0.0,0.0,0.0,0.0,-1.5617,0.0,0.0,0.0,0.0,0.0,0.0,0.0,0.0,0.0,0.0,0.0,0.0,0.0,0.0,0.0,0.0,0.0,0.0,0.0,0.0,0.0,0.0,0.0,0.0,0.0,0.0,0.0,0.0,0.0,0.0,0.0,0.0,0.0,0.0,0.0,0.0,0.0,0.0,0.0,0.0,0.0,0.0,0.0,0.0,0.0,0.0,0.0,0.0,0.0,0.0,0.0,0.0,0.0,0.0,0.0,0.0,-2.3825,-2.7764,-2.9957,-3.0257,-3.2032,-3.2659,-3.1928,-3.0006,-2.8224,-2.6626,0.0,0.0,0.0,0.0,0.0,0.0,0.0,0.0,0.0,0.0,0.0,0.0,0.0,0.0,0.0,0.0,0.0,0.0,0.0,0.0,0.0,0.0,0.0,0.0,0.0,0.0,0.0,0.0,0.0,0.0,0.0,0.0,0.0,0.0,0.0,0.0,0.0,0.0,0.0,-1.6833,-1.7251,0.0,0.0,0.0,0.0,0.0,0.0,0.0,0.0,-1.5341,0.0,0.0,0.0,0.0,0.0,0.0,0.0,0.0,0.0,0.0,0.0,0.0,0.0,0.0,0.0,0.0,0.0,0.0,0.0,0.0,0.0,0.0,0.0,0.0,0.0,0.0,0.0,0.0,0.0,0.0,0.0,0.0,0.0,0.0,0.0,0.0,0.0,0.0,0.0,0.0,0.0,0.0,0.0,0.0,0.0,0.0,0.0,0.0,0.0,0.0,0.0,0.0,0.0,0.0,0.0,-2.4151,-2.8051,-3.0388,-3.0988,-3.2424,-3.2738,-3.1797,-2.9588,-2.7432,0.0,0.0,0.0,0.0,0.0,0.0,0.0,0.0,0.0,0.0,0.0,0.0,0.0,0.0,0.0,0.0,0.0,0.0,0.0,0.0,0.0,0.0,0.0,0.0,0.0,0.0,0.0,0.0,0.0,0.0,0.0,0.0,0.0,0.0,0.0,0.0,0.0,0.0,0.0,0.0,-1.7539,-1.8087,-1.81,0.0,0.0,0.0,0.0,0.0,0.0,-1.5853,-1.5291,0.0,0.0,0.0,0.0,0.0,0.0,0.0,0.0,0.0,0.0,0.0,0.0,0.0,0.0,0.0,0.0,0.0,0.0,0.0,0.0,0.0,0.0,0.0,0.0,0.0,0.0,0.0,0.0,0.0,0.0,0.0,0.0,0.0,0.0,0.0,0.0,0.0,0.0,0.0,0.0,0.0,0.0,0.0,0.0,0.0,0.0,0.0,0.0,0.0,0.0,0.0,0.0,0.0,0.0,0.0,-2.4308,-2.8255,-3.0766,-3.1797,-3.2868,-3.2908,-3.1797,-2.9366,-2.6804,0.0,0.0,0.0,0.0,0.0,0.0,0.0,0.0,0.0,0.0,0.0,0.0,0.0,0.0,0.0,0.0,0.0,0.0,0.0,0.0,0.0,0.0,0.0,0.0,0.0,0.0,0.0,0.0,0.0,0.0,0.0,0.0,0.0,0.0,0.0,0.0,0.0,0.0,0.0,0.0,0.0,-1.9094,-1.8675,-1.8989,0.0,0.0,0.0,0.0,-1.6245,-1.6003,0.0,0.0,0.0,0.0,0.0,0.0,0.0,0.0,0.0,0.0,0.0,0.0,0.0,0.0,0.0,0.0,0.0,0.0,0.0,0.0,0.0,0.0,0.0,0.0,0.0,0.0,0.0,0.0,0.0,0.0,0.0,0.0,0.0,0.0,0.0,0.0,0.0,0.0,0.0,0.0,0.0,0.0,0.0,0.0,0.0,0.0,0.0,0.0,0.0,0.0,0.0,0.0,0.0,0.0,0.0,0.0,-2.4926,-2.883,-3.1196,-3.1797,-3.2463,-3.2489,-3.1784,-2.8621,-2.6007,0.0,0.0,0.0,0.0,0.0,0.0,0.0,0.0,0.0,0.0,0.0,0.0,0.0,0.0,0.0,0.0,0.0,0.0,0.0,0.0,0.0,0.0,0.0,0.0,0.0,0.0,0.0,0.0,0.0,0.0,0.0,0.0,0.0,0.0,0.0,0.0,0.0,0.0,0.0,0.0,0.0,-2.0489,-2.0424,-2.0438,-2.0242,0.0,0.0,-1.8584,-1.8519,-1.7669,0.0,0.0,0.0,0.0,0.0,0.0,0.0,0.0,0.0,0.0,0.0,0.0,0.0,0.0,0.0,0.0,0.0,0.0,0.0,0.0,0.0,0.0,0.0,0.0,0.0,0.0,0.0,0.0,0.0,0.0,0.0,0.0,0.0,0.0,0.0,0.0,0.0,0.0,0.0,0.0,0.0,0.0,0.0,0.0,0.0,0.0,0.0,0.0,0.0,0.0,0.0,0.0,0.0,0.0,0.0,-2.2162,-2.5445,-2.8986,-3.1328,-3.2293,-3.2462,-3.2111,-3.12,-2.7742,-2.4792,0.0,0.0,0.0,0.0,0.0,0.0,0.0,0.0,0.0,0.0,0.0,0.0,0.0,0.0,0.0,0.0,0.0,0.0,0.0,0.0,0.0,0.0,0.0,0.0,0.0,0.0,0.0,0.0,0.0,0.0,0.0,0.0,0.0,0.0,0.0,0.0,0.0,0.0,0.0,0.0,0.0,0.0,-2.0875,-2.1198,0.0,0.0,0.0,-1.9533,-1.9236,0.0,0.0,0.0,0.0,0.0,0.0,0.0,0.0,0.0,0.0,0.0,0.0,0.0,0.0,0.0,0.0,0.0,0.0,0.0,0.0,0.0,0.0,0.0,0.0,0.0,0.0,0.0,0.0,0.0,0.0,0.0,0.0,0.0,0.0,0.0,0.0,0.0,0.0,0.0,0.0,0.0,0.0,0.0,0.0,0.0,0.0,0.0,0.0,0.0,0.0,0.0,0.0,0.0,0.0,0.0,0.0,0.0,-2.5641,-2.8983,-3.1215,-3.228,-3.2395,-3.1772,-3.0414,-2.7194,0.0,0.0,0.0,0.0,0.0,0.0,0.0,0.0,0.0,0.0,0.0,0.0,0.0,0.0,0.0,0.0,0.0,0.0,0.0,0.0,0.0,0.0,0.0,0.0,0.0,0.0,0.0,-0.8192,0.0,0.0,0.0,0.0,0.0,0.0,0.0,0.0,0.0,0.0,0.0,0.0,0.0,0.0,-2.054,-2.151,-2.2048,-2.2048,0.0,0.0,-2.0706,-2.0284,-1.9887,-1.9081,0.0,0.0,0.0,0.0,0.0,0.0,0.0,0.0,0.0,0.0,0.0,0.0,0.0,0.0,0.0,0.0,0.0,0.0,0.0,0.0,0.0,0.0,0.0,0.0,0.0,0.0,0.0,0.0,0.0,0.0,0.0,0.0,0.0,0.0,0.0,0.0,0.0,0.0,0.0,0.0,0.0,0.0,0.0,0.0,0.0,0.0,0.0,0.0,0.0,0.0,0.0,0.0,0.0,0.0,0.0,-2.5332,-2.8889,-3.0919,-3.1292,-3.2029,-3.1513,-2.9612,-2.7284,-2.4981,0.0,0.0,0.0,0.0,0.0,0.0,0.0,0.0,0.0,0.0,0.0,0.0,0.0,0.0,0.0,0.0,0.0,0.0,0.0,0.0,0.0,0.0,0.0,0.0,0.0,0.0,0.0,0.0,0.0,0.0,0.0,0.0,0.0,0.0,0.0,0.0,0.0,0.0,0.0,0.0,0.0,-2.0843,-2.2879,-2.3327,-2.3637,0.0,0.0,-2.2603,-2.2498,-2.1128,-1.9772,-1.8657,0.0,0.0,0.0,0.0,0.0,0.0,0.0,0.0,0.0,0.0,0.0,0.0,0.0,0.0,0.0,0.0,0.0,0.0,0.0,0.0,0.0,0.0,0.0,0.0,0.0,0.0,0.0,0.0,0.0,0.0,0.0,0.0,0.0,0.0,0.0,0.0,0.0,0.0,0.0,0.0,0.0,0.0,0.0,0.0,0.0,0.0,0.0,0.0,0.0,0.0,0.0,0.0,0.0,-2.2173,-2.5281,-2.8948,-3.0944,-3.1214,-3.1725,-3.1187,-2.9425,-2.7741,-2.5481,0.0,0.0,0.0,0.0,0.0,0.0,0.0,0.0,0.0,0.0,0.0,0.0,0.0,0.0,0.0,0.0,0.0,0.0,0.0,0.0,0.0,0.0,0.0,0.0,0.0,0.0,0.0,0.0,-0.8994,-0.9315,-1.0165,0.0,0.0,0.0,0.0,0.0,0.0,0.0,0.0,0.0,0.0,-2.1017,-2.2685,-2.3452,0.0,0.0,-2.2959,-2.2495,-2.2454,-2.1369,-2.0041,-1.8586,-1.6553,0.0,0.0,0.0,0.0,0.0,0.0,0.0,0.0,0.0,0.0,0.0,0.0,0.0,0.0,0.0,0.0,0.0,0.0,0.0,0.0,0.0,0.0,0.0,0.0,0.0,0.0,0.0,0.0,0.0,0.0,0.0,0.0,0.0,0.0,0.0,0.0,0.0,0.0,0.0,0.0,0.0,0.0,0.0,0.0,0.0,0.0,0.0,0.0,0.0,0.0,0.0,0.0,-2.2325,-2.5351,-2.8869,-3.0658,-3.0672,-3.1139,-3.0642,-2.9051,-2.7949,-2.5943,0.0,0.0,0.0,0.0,0.0,0.0,0.0,0.0,0.0,0.0,0.0,0.0,0.0,0.0,0.0,0.0,0.0,0.0,0.0,0.0,0.0,0.0,0.0,0.0,0.0,0.0,0.0,0.0,-0.9994,-1.0215,-1.0962,0.0,0.0,0.0,0.0,0.0,0.0,0.0,0.0,0.0,0.0,-2.1043,-2.2719,-2.3467,-2.386,-2.3916,-2.3255,-2.2722,-2.2722,-2.1716,-2.0327,-1.8493,0.0,0.0,0.0,0.0,0.0,0.0,0.0,0.0,0.0,0.0,0.0,0.0,0.0,0.0,0.0,0.0,0.0,0.0,0.0,0.0,0.0,0.0,0.0,0.0,0.0,0.0,0.0,0.0,0.0,0.0,-1.6563,0.0,0.0,0.0,0.0,0.0,0.0,0.0,0.0,0.0,0.0,0.0,0.0,0.0,0.0,0.0,0.0,0.0,0.0,0.0,0.0,0.0,0.0,-2.2383,-2.5548,-2.8594,-2.992,-2.9507,-3.0215,-2.9872,-2.8356,-2.7753,-2.6415,-2.4124,0.0,0.0,0.0,0.0,0.0,0.0,0.0,0.0,0.0,0.0,0.0,0.0,0.0,0.0,0.0,0.0,0.0,0.0,0.0,0.0,0.0,0.0,0.0,0.0,0.0,0.0,-1.1477,-1.1126,-1.0859,0.0,0.0,0.0,0.0,0.0,0.0,0.0,0.0,0.0,0.0,-1.913,-2.0942,-2.3123,-2.3494,-2.4042,-2.5541,-2.4567,-2.3648,-2.3598,-2.2405,-2.0727,0.0,0.0,0.0,0.0,0.0,0.0,0.0,0.0,0.0,0.0,0.0,0.0,0.0,0.0,0.0,0.0,0.0,0.0,0.0,0.0,0.0,0.0,0.0,0.0,0.0,0.0,0.0,-2.0095,-1.94,0.0,0.0,0.0,0.0,0.0,0.0,0.0,0.0,0.0,0.0,0.0,-2.2107,-2.3328,0.0,0.0,0.0,0.0,0.0,0.0,0.0,0.0,0.0,0.0,0.0,0.0,-2.3055,-2.5611,-2.8799,-3.0104,-2.9443,-2.9622,-2.9071,-2.7678,-2.7037,-2.5208,-2.2034,0.0,0.0,0.0,0.0,0.0,0.0,0.0,0.0,0.0,0.0,0.0,0.0,0.0,0.0,0.0,0.0,0.0,0.0,0.0,0.0,0.0,0.0,0.0,0.0,0.0,-1.1137,0.0,0.0,0.0,0.0,0.0,0.0,0.0,0.0,0.0,0.0,0.0,-1.4885,-1.6933,-1.8922,-2.0751,-2.2376,-2.2736,-2.3293,0.0,0.0,0.0,0.0,0.0,0.0,0.0,0.0,0.0,0.0,0.0,0.0,0.0,0.0,-1.9497,-1.7444,-1.6765,-1.6322,-1.5705,0.0,0.0,0.0,0.0,0.0,0.0,0.0,0.0,0.0,0.0,0.0,0.0,0.0,0.0,-2.1219,0.0,-2.0474,0.0,0.0,0.0,0.0,0.0,0.0,0.0,0.0,-2.4538,-2.5158,-2.4637,-2.5321,-2.5494,0.0,-2.6309,-2.519,0.0,0.0,0.0,0.0,0.0,0.0,0.0,0.0,-2.3778,-2.6189,-2.9114,-3.0173,-2.9324,-2.9234,-2.8605,-2.7392,-2.6363,-2.4423,-2.1576,-1.9557,-1.7522,0.0,0.0,0.0,0.0,0.0,0.0,0.0,0.0,0.0,0.0,0.0,0.0,0.0,0.0,0.0,0.0,0.0,0.0,0.0,0.0,0.0,0.0,0.0,-1.1429,0.0,0.0,0.0,0.0,0.0,0.0,0.0,0.0,0.0,-1.2917,-1.4035,-1.5404,-1.7048,-1.9046,-2.0665,-2.1564,0.0,0.0,0.0,0.0,0.0,0.0,0.0,-2.1069,-2.0476,-1.9974,-1.9773,-2.015,-2.1144,-2.1672,-2.1066,0.0,0.0,-2.0484,-1.9648,-1.9164,-1.8699,-1.758,-1.6741,-1.6824,-1.6406,-1.6257,0.0,0.0,0.0,0.0,0.0,0.0,0.0,0.0,-2.1894,-2.1829,0.0,-2.1416,0.0,0.0,0.0,0.0,0.0,-2.2648,0.0,0.0,-2.67,-2.7311,-2.7524,-2.7018,-2.7034,-2.7586,-2.839,-2.8502,-2.7716,-2.481,0.0,0.0,0.0,0.0,0.0,0.0,-2.4512,-2.7256,-2.949,-3.0107,-2.9202,-2.9039,-2.8457,-2.7389,-2.5763,-2.4176,-2.2742,-2.0938,-1.882,-1.6385,-1.513,0.0,0.0,0.0,0.0,0.0,0.0,0.0,0.0,0.0,0.0,0.0,0.0,0.0,0.0,0.0,0.0,0.0,0.0,0.0,0.0,-1.2716,0.0,0.0,0.0,0.0,0.0,0.0,0.0,0.0,0.0,0.0,-1.428,-1.5147,-1.6285,-1.7788,0.0,0.0,0.0,0.0,-2.2431,-2.3384,-2.3465,-2.3385,-2.3172,-2.2738,-2.2221,-2.1669,0.0,0.0,-2.3866,-2.4054,-2.3835,-2.3283,-2.3653,-2.3841,-2.3208,-2.261,-2.2128,-2.1557,-2.0296,-1.9454,-1.9327,-1.8909,-1.899,-2.7355,0.0,0.0,0.0,0.0,-2.4395,-2.4435,-2.4746,-2.4545,-2.4376,-2.4208,-2.3881,0.0,0.0,0.0,0.0,0.0,0.0,-2.5526,-2.6499,-2.7841,-2.8193,-2.7757,-2.7914,-2.8164,-2.852,-2.946,-2.9734,-2.9311,-2.8731,-2.6631,-2.3145,0.0,0.0,0.0,0.0,-2.5498,-2.7821,-2.9679,-3.0533,-3.0311,-2.8988,-2.7356,-2.5422,-2.4626,-2.3687,-2.2579,-2.1087,-1.9337,-1.7372,-1.5721,0.0,0.0,0.0,0.0,0.0,0.0,0.0,0.0,0.0,0.0,0.0,0.0,0.0,0.0,0.0,0.0,0.0,0.0,0.0,-1.3403,-1.333,-1.3107,0.0,0.0,0.0,0.0,0.0,0.0,0.0,0.0,0.0,-1.5719,-1.6217,-1.6794,0.0,0.0,-1.976,-2.0446,-2.1012,-2.1957,-2.3475,0.0,0.0,0.0,-2.4062,-2.3916,-2.3364,-2.4054,-2.4895,-2.5669,-2.5783,-2.5607,-2.4983,-2.472,-2.4499,-2.4286,-2.3243,-2.227,-2.1724,-2.0966,-2.0487,-2.0553,-2.0463,-2.0579,-2.99,-2.7708,-2.6894,-2.6717,-2.6928,-2.6687,-2.677,-2.6998,-2.6733,-2.6611,-2.6578,-2.5916,-2.508,-2.4163,-2.4081,0.0,0.0,0.0,-2.6812,-2.7403,-2.853,-2.8796,-2.8317,-2.8212,-2.8515,-2.9107,-3.0019,-3.0433,-3.0466,-3.099,-2.9866,-2.712,0.0,0.0,-2.4456,-2.5347,-2.6779,-2.875,-3.0407,-3.1107,-3.0765,-2.8785,-2.6771,-2.4863,-2.4374,-2.3712,-2.2801,-2.1611,-2.0013,-1.8071,-1.6543,-1.501,0.0,0.0,0.0,0.0,0.0,0.0,0.0,0.0,0.0,0.0,0.0,-0.8957,-0.9283,0.0,0.0,0.0,-1.172,-1.2899,-1.3766,-1.3942,0.0,0.0,0.0,0.0,0.0,0.0,0.0,-1.5282,-1.5395,-1.589,-1.7264,-1.754,-1.7762,-1.8098,-1.8866,-1.9637,-2.0327,0.0,-2.157,-2.2906,-2.3761,-2.4347,-2.4519,-2.4886,-2.5137,-2.5034,-2.5686,-2.6352,-2.6738,-2.6826,-2.6625,-2.6025,-2.5322,-2.4725,-2.4512,-2.3434,-2.2636,-2.2589,-2.1958,-2.1516,-2.1817,-2.1759,-2.1841,-3.1654,-3.0414,-2.9287,-2.8625,-2.8401,-2.8449,-2.8505,-2.8549,-2.854,-2.8559,-2.8504,-2.7671,-2.6887,-2.618,-2.5164,0.0,-2.6301,-2.7325,-2.8079,-2.8515,-2.8958,-2.9125,-2.9049,-2.8154,-2.8259,-2.927,-3.0067,-3.0709,-3.1217,-3.1833,-3.1638,-3.0604,-2.7482,-2.6186,-2.6694,-2.7231,-2.8285,-2.9866,-3.1383,-3.1726,-3.0685,-2.8553,-2.6703,-2.5223,-2.4735,-2.4073,-2.3164,-2.2214,-2.0695,-1.8525,-1.7359,-1.58,-1.3738,0.0,0.0,0.0,0.0,0.0,0.0,0.0,0.0,0.0,0.0,0.0,0.0,0.0,0.0,0.0,-1.3462,0.0,-1.4039,-1.4683,0.0,0.0,0.0,-1.3776,-1.4607,-1.4589,-1.513,-1.676,0.0,0.0,-1.8686,0.0,-1.8929,-1.891,-1.9435,-1.9941,-2.0339,-2.0772,-2.1282,-2.2039,-2.2889,-2.3815,-2.4605,-2.5289,-2.5945,-2.6436,-2.6979,-2.7256,-2.7417,-2.7281,-2.7115,-2.6751,-2.5661,-2.4732,-2.4167,-2.3627,-2.3321,-2.374,-2.305,-2.2498,-2.2799,-2.2728,-2.2718,-3.2488,-3.2204,-3.2043,-3.1208,-3.0033,-3.0115,-3.0317,-3.0673,-3.0693,-3.0683,-3.0632,-3.0083,-2.926,-2.8216,-2.741,-2.7533,-2.8402,-2.9222,-2.9602,-2.9695,-2.9755,-2.9556,-2.9079,-2.8449,-2.8433,-2.9014,-2.9522,-3.0027,-3.0461,-3.0968,-3.0882,-3.0217,-2.8994,-2.8454,-2.8508,-2.8772,-2.9532,-3.0779,-3.1718,-3.1399,-2.9863,-2.8917,-2.7337,-2.5033,-2.4508,-2.3757,-2.2666,-2.1511,-2.0143,-1.8549,-1.7243,-1.6136,-1.5199,-1.3875,0.0,0.0,0.0,0.0,0.0,0.0,0.0,0.0,0.0,-1.0955,-1.1835,0.0,-1.2666,0.0,-1.4512,-1.5486,-1.5978,-1.66,0.0,0.0,-1.6098,-1.5868,-1.6297,-1.6296,-1.6531,-1.7194,-1.7783,-1.8291,-1.8639,-1.9114,-1.9555,-1.9806,-1.9801,-1.9975,-2.042,-2.0609,-2.1131,-2.2175,-2.3161,-2.4061,-2.4837,-2.5491,-2.6311,-2.7345,-2.7267,-2.7401,-2.8349,-2.7821,-2.7404,-2.7544,-2.644,-2.5335,-2.4662,-2.4148,-2.3678,-2.3384,-2.3083,-2.2807,-2.2556,-2.2736,-2.3077,-3.328,-3.3329,-3.3801,-3.362,-3.2995,-3.2773,-3.2966,-3.3447,-3.32,-3.3104,-3.3006,-3.179,-3.0815,-3.0026,-2.9637,-2.9857,-3.0528,-3.1244,-3.1403,-3.1051,-3.0768,-3.0204,-2.9444,-2.8844,-2.8615,-2.8726,-2.9034,-2.9299,-2.9566,-3.0039,-3.0023,-2.9465,-2.9353,-2.9297,-2.9305,-2.9617,-3.0302,-3.1264,-3.1948,-3.1539,-3.0012,-2.9194,-2.7709,-2.5444,-2.46,-2.3571,-2.2271,-2.1193,-1.9938,-1.8576,-1.7516,-1.6586,-1.5712,-1.4696,-1.3828,0.0,0.0,0.0,0.0,0.0,0.0,0.0,0.0,0.0,0.0,0.0,-1.4258,-1.5041,-1.591,-1.6823,-1.7773,-1.8164,-1.8449,-1.8591,-1.8113,-1.7797,-1.7957,-1.7943,-1.8041,-1.8237,-1.8643,-1.8968,-1.9189,-1.9507,-1.9885,-2.0327,-2.0264,-2.0327,-2.0677,-2.0692,-2.0954,-2.1912,-2.2767,-2.3863,-2.5324,-2.596,-2.6466,-2.7212,-2.7218,-2.7267,-2.8035,-2.7708,-2.7318,-2.7316,-2.6214,-2.5084,-2.4512,-2.3973,-2.3471,-2.3221,-2.3095,-2.2982,-2.2719,-2.2882,-2.3138,-3.3953,-3.4105,-3.506,-3.5848,-3.6388,-3.5873,-3.5834,-3.6077,-3.5547,-3.526,-3.5072,-3.312,-3.203,-3.1686,-3.154,-3.1856,-3.2427,-3.297,-3.2895,-3.2276,-3.1781,-3.0988,-3.0005,-2.9441,-2.8959,-2.8684,-2.8653,-2.8733,-2.8775,-2.9254,-2.9263,-2.8822,-2.9157,-2.9415,-2.9599,-3.0075,-3.0779,-3.1608,-3.2099,-3.1793,-3.0576,-2.9488,-2.7974,-2.6,-2.481,-2.3459,-2.1879,-2.0936,-1.9805,-1.8528,-1.7886,-1.7068,-1.597,-1.5655,-1.5,0.0,-1.3789,0.0,0.0,0.0,0.0,0.0,0.0,0.0,0.0,-1.5273,-1.5771,-1.6931,-1.7451,-1.8203,-1.9424,-1.958,-1.9766,-2.0107,-1.9795,-1.9531,-1.9541,-1.9492,-1.9453,-1.9453,-1.9453,-1.959,-1.9922,-1.999,-2.0156,-2.0507,-2.0556,-2.0691,-2.0991,-2.0747,-2.0712,-2.1288,-2.2076,-2.3541,-2.5514,-2.624,-2.6459,-2.682,-2.6813,-2.6945,-2.7235,-2.712,-2.6894,-2.6502,-2.5624,-2.4695,-2.4104,-2.3584,-2.3221,-2.3133,-2.3095,-2.3095,-2.307,-2.307,-2.3095,-3.4612,-3.519,-3.6446,-3.7575,-3.8589,-3.8517,-3.783,-3.6697,-3.6228,-3.5635,-3.4957,-3.3955,-3.3442,-3.3268,-3.249,-3.2448,-3.3046,-3.3147,-3.2904,-3.2354,-3.2211,-3.1611,-3.0653,-3.0417,-3.0065,-2.9495,-2.9326,-2.9168,-2.9058,-2.9335,-2.9423,-2.9336,-2.9423,-2.9661,-3.0068,0.0,0.0,0.0,-3.212,-3.1649,-3.0845,-3.0033,-2.853,-2.628,-2.4952,0.0,-2.144,-2.0172,-1.9082,-1.8169,-1.7664,0.0,0.0,0.0,0.0,0.0,0.0,0.0,0.0,0.0,0.0,0.0,-1.8311,-1.8242,-1.749,-1.7672,-1.8164,-1.876,-1.9189,-1.9824,-2.0732,-2.1191,-2.1426,-2.1484,-2.1123,-2.083,-2.082,-2.0547,-2.0361,-2.0361,-2.0361,-2.038,-2.0439,-2.0478,-2.0507,-2.0586,-2.0615,-2.0605,-2.0731,-2.0358,-2.0259,-2.075,-2.2097,-2.3577,-2.5022,-2.5588,-2.603,-2.6323,-2.6114,-2.6194,-2.6785,-2.6283,-2.598,-2.6276,-2.5561,-2.4632,-2.4092,-2.3904,-2.3678,-2.3208,-2.312,-2.3095,-2.3095,-2.3108,-2.3095,-3.4787,0.0,-3.6635,-3.7774,0.0,-3.8633,-3.8067,-3.7141,-3.7311,-3.6997,-3.6331,-3.569,-3.5232,-3.4963,-3.3891,-3.3632,-3.3981,-3.3977,-3.386,-3.3575,-3.3468,-3.3049,-3.2328,-3.2244,-3.1699,-3.0718,-3.0396,-3.003,-2.9693,-2.9816,-2.9902,-2.9924,-3.0094,-3.0325,-3.0608,-3.0732,-3.1196,-3.2013,-3.1673,-3.1104,-3.0351,-2.9624,-2.8265,-2.6222,0.0,0.0,0.0,0.0,0.0,0.0,0.0,0.0,0.0,0.0,0.0,-1.7041,-1.6826,-1.6787,-1.7021,-1.7832,-1.8789,-1.9816,-2.0859,-2.0869,-1.9394,-1.9473,-1.9775,-2.0215,-2.0449,-2.0888,-2.1717,-2.207,-2.2285,-2.2471,-2.2272,-2.2058,-2.1824,-2.1475,-2.1133,-2.0908,-2.0732,-2.0615,-2.0615,-2.0615,-2.0615,-2.0615,-2.0615,-2.0615,-2.0576,-2.0185,-2.0203,-2.1134,-2.2734,-2.4104,-2.4807,-2.5424,-2.5786,-2.5937,-2.5859,-2.5875,-2.6094,-2.5784,-2.5461,-2.5322,-2.477,-2.4211,-2.371,-2.3791,-2.3904,-2.3647,-2.3747,-2.3923,-2.391,-2.3509,-2.3208,-3.4787,-3.5469,-3.6452,-3.7303,-3.8096,-3.7736,-3.7462,-3.7172,0.0,0.0,0.0,-3.7284,-3.689,-3.6371,-3.5281,-3.4859,-3.5011,-3.4854,-3.4769,-3.4749,-3.4762,-3.4502,-3.4009,-3.4046,-3.3378,-3.2115,-3.1678,-3.1191,-3.0688,-3.0677,-3.0677,-3.0661,-3.0916,-3.1031,-3.0979,-3.0965,-3.1124,-3.1303,-3.0894,-3.0295,-2.9624,-2.8945,-2.7757,-2.6177,-2.5135,-2.3611,-2.1523,-2.0957,-2.0283,-1.9453,-1.9394,-1.9199,-1.8754,-1.8783,-1.8676,-1.8389,-1.8496,-1.873,-1.9046,-1.9639,-2.0488,-2.1668,-2.273,-2.2695,-2.1173,-2.1055,-2.1211,-2.1609,-2.168,-2.197,-2.2764,-2.2852,-2.2988,-2.3286,-2.3325,-2.3149,-2.2783,-2.2363,-2.1943,-2.1473,-2.1103,-2.085,-2.0879,-2.0879,-2.084,-2.083,-2.0781,-2.0674,-2.0586,-2.0477,-2.0837,-2.2149,-2.3634,-2.4786,-2.5188,-2.5725,-2.5986,-2.5852,-2.5918,-2.5812,-2.5441,-2.5369,-2.5006,-2.4293,-2.3941,-2.3672,-2.3384,-2.3672,-2.4017,-2.413,-2.4494,-2.4813,-2.4825,-2.4199,-2.3747,-3.4777,-3.5438,-3.6186,-3.6846,-3.7369,-3.6857,-3.6339,-3.6046,-3.7137,-3.7415,-3.7138,-3.76,-3.7504,-3.6923,-3.5905,-3.5608,-3.5773,-3.512,-3.4676,0.0,-3.5157,-3.5049,-3.4358,-3.4985,-3.4701,-3.3697,-3.3222,-3.2719,-3.2225,-3.2179,-3.2082,-3.1848,-3.1659,-3.137,-3.0961,-3.0908,-3.0771,-3.0405,-2.9929,-2.9417,-2.8866,-2.8351,-2.7592,-2.6536,-2.5278,-2.3901,-2.2373,-2.1572,-2.0693,-1.9883,-1.9824,-1.9639,-1.9238,-1.9551,-1.9707,-1.9697,-2.0361,-2.0771,-2.0849,-2.1902,-2.2955,-2.3857,-2.4141,-2.3818,-2.2838,-2.273,-2.2959,-2.3369,-2.3369,-2.3623,-2.4082,-2.4102,-2.4102,-2.4189,-2.4219,-2.4062,-2.3633,-2.3257,-2.2793,-2.2353,-2.1963,-2.168,-2.1621,-2.1681,-2.1662,-2.1621,-2.1328,-2.1025,-2.085,-2.1193,-2.2109,-2.3299,-2.4401,-2.5341,-2.5961,-2.6588,-2.6685,-2.6348,-2.631,-2.6135,-2.5478,-2.5058,-2.4646,-2.4086,-2.3684,-2.3509,-2.374,-2.3929,-2.4243,-2.4619,-2.487,-2.5051,-2.5473,-2.536,-2.5146,-3.4787,-3.5469,-3.6146,-3.6757,-3.7281,-3.6707,-3.6528,-3.6665,-3.7226,-3.7471,-3.7504,-3.8103,-3.8113,-3.753,-3.653,-3.595,-3.574,-3.5074,-3.4894,-3.5107,-3.5747,-3.5987,-3.5967,-3.6549,-3.6473,-3.5754,-3.5506,-3.4976,-3.4256,-3.4197,-3.381,-3.3111,-3.2445,-3.1823,-3.1291,-3.1048,-3.0805,-3.0551,-2.9997,-2.9393,-2.8781,-2.8269,-2.753,-2.6604,-2.5722,-2.4506,-2.2953,-2.248,-2.1885,-2.1016,-2.0986,-2.0898,-2.0713,-2.0879,-2.1084,-2.1318,-2.1658,-2.2129,-2.2598,-2.3594,-2.4355,-2.4736,-2.5,-2.498,-2.4534,-2.4056,-2.3926,-2.4111,-2.4131,-2.4209,-2.4394,-2.4424,-2.4424,-2.4424,-2.4424,-2.4336,-2.4141,-2.376,-2.333,-2.29,-2.249,-2.2148,-2.1914,-2.1936,-2.1936,-2.1906,-2.1689,-2.1484,-2.1359,-2.2028,-2.2757,-2.3463,-2.4632,-2.5698,-2.6337,-2.6862,-2.7088,-2.6857,-2.6772,-2.6485,-2.5893,-2.539,-2.4848,-2.4173,-2.3966,-2.3985,-2.4079,-2.4506,-2.4908,-2.5184,-2.5824,-2.6214,-2.649,-2.6728,-2.6553,-3.4787,-3.5479,-3.6095,-3.6767,-3.7292,-3.671,-3.6848,-3.7445,-3.7378,-3.7485,-3.7699,-3.8315,-3.8275,-3.7648,-3.6625,-3.5994,-3.564,-3.5189,-3.5214,-3.5721,-3.6288,-3.6807,-3.7216,-3.7733,-3.7709,-3.7148,-3.7048,-3.6434,-3.5525,-3.5418,-3.4895,-3.379,-3.2823,-3.2004,-3.1421,-3.1034,-3.0802,-3.053,-3.023,-2.9719,-2.9132,-2.8494,-2.7788,-2.6946,-2.6194,-2.5119,-2.3742,-2.3443,-2.2949,-2.2236,-2.2168,-2.2129,-2.2041,-2.2217,-2.2461,-2.2764,-2.2891,-2.3271,-2.4023,-2.4734,-2.5155,-2.5225,-2.5537,-2.5684,-2.5635,-2.5079,-2.4717,-2.4717,-2.469,-2.4727,-2.4709,-2.4746,-2.4717,-2.4717,-2.4707,-2.4697,-2.4551,-2.4268,-2.3906,-2.3432,-2.3057,-2.2676,-2.2393,-2.2227,-2.2158,-2.208,-2.2031,-2.2002,-2.2004,-2.2623,-2.3079,-2.3557,-2.472,-2.6019,-2.6537,-2.7179,-2.7514,-2.7504,-2.7434,-2.7122,-2.6619,-2.6108,-2.5398,-2.4544,-2.4487,-2.4537,-2.4356,-2.4908,-2.5573,-2.595,-2.6603,-2.7256,-2.7607,-2.8072,-2.7883,-3.4787,-3.5448,-3.6186,-3.6724,-3.7265,-3.6872,-3.7074,-3.754,-3.7224,-3.7071,-3.7328,-3.7766,-3.7559,-3.6785,-3.5948,-3.567,-3.5841,-3.5657,-3.5703,-3.6042,-3.6776,-3.7156,-3.7264,-3.7733,-3.7616,-3.6882,-3.6549,-3.5937,-3.4996,-3.4902,-3.4357,-3.3304,-3.2432,-3.1669,-3.094,-3.0805,-3.0389,-2.9558,-3.0156,-3.0339,-3.0132,-2.9214,-2.846,-2.7876,-2.652,-2.5548,-2.4851,-2.415,-2.3516,-2.3042,-2.3037,-2.2871,-2.2588,-2.3184,-2.3623,-2.3682,-2.4023,-2.4463,-2.4893,-2.5067,-2.5254,-2.5577,-2.5645,-2.5684,-2.5684,-2.5606,-2.5557,-2.5518,-2.5538,-2.5499,-2.5567,-2.5518,-2.5469,-2.544,-2.5469,-2.5411,-2.5088,-2.498,-2.4785,-2.4346,-2.3877,-2.3643,-2.3457,-2.3154,-2.2779,-2.249,-2.2461,-2.2353,-2.2171,-2.2594,-2.3076,-2.3437,-2.4735,-2.613,-2.7047,-2.7792,-2.8059,-2.8319,-2.8437,-2.8039,-2.7387,-2.6769,-2.6072,-2.5209,-2.4946,-2.5008,-2.4908,-2.5259,-2.5988,-2.6738,-2.7205,-2.762,-2.8511,-2.9101,-2.8762,-3.5777,-3.6624,-3.7281,-3.7883,-3.8447,-3.8326,-3.8483,-3.8883,-3.8561,-3.8361,-3.8167,-3.7678,-3.6847,-3.5861,-3.5143,-3.5108,-3.5608,-3.5845,-3.6232,-3.6667,-3.7355,-3.7649,-3.7685,-3.7866,-3.7654,-3.7009,-3.6494,-3.5908,-3.526,-3.4952,-3.4583,-3.4045,-3.2911,-3.1711,-3.0769,-3.0192,-2.9721,-2.9365,-2.9721,-3.0158,-3.0515,-2.9682,-2.8792,-2.8032,-2.7089,-2.6096,-2.5202,-2.4763,-2.4346,-2.3935,-2.3896,-2.3828,-2.3652,-2.3975,-2.4277,-2.4578,-2.4961,-2.5273,-2.5449,-2.5459,-2.5537,-2.5674,-2.5684,-2.5684,-2.5684,-2.5684,-2.5684,-2.5684,-2.5684,-2.5684,-2.5684,-2.5684,-2.5684,-2.5684,-2.5684,-2.5606,-2.5498,-2.5459,-2.5293,-2.4853,-2.4424,-2.4062,-2.3789,-2.3364,-2.3042,-2.2857,-2.2838,-2.2764,-2.2709,-2.3085,-2.3299,-2.3345,-2.4354,-2.5594,-2.6667,-2.7418,-2.8036,-2.8617,-2.8733,-2.8388,-2.8287,-2.7808,-2.708,-2.5975,-2.605,-2.5887,-2.536,-2.605,-2.6804,-2.7356,-2.7984,-2.8511,-2.9289,-2.9352,-2.8812,-3.695,-3.7954,-3.8778,-3.9391,-3.9837,-3.9837,-3.9943,-4.0118,-3.9797,-3.9459,-3.8999,-3.7684,-3.6529,-3.558,-3.4758,-3.4758,-3.5334,-3.5763,-3.6243,-3.6754,-3.7281,-3.7495,-3.756,-3.7548,-3.7281,-3.6742,-3.6231,-3.5708,-3.5241,-3.4792,-3.4541,-3.4346,-3.3104,-3.1909,-3.0958,-3.0089,-2.9577,-2.9387,-2.9568,-2.9938,-3.0305,-2.9671,-2.8911,-2.8357,-2.7567,-2.6604,-2.5507,-2.5205,-2.498,-2.4748,-2.4775,-2.4834,-2.4951,-2.5059,-2.5273,-2.5576,-2.5898,-2.6035,-2.6035,-2.6035,-2.6044,-2.6044,-2.6044,-2.6035,-2.6044,-2.6084,-2.6035,-2.6064,-2.6044,-2.6005,-2.5693,-2.5684,-2.5684,-2.5684,-2.5684,-2.5684,-2.5674,-2.5684,-2.5596,-2.5273,-2.4863,-2.4375,-2.3867,-2.3383,-2.3081,-2.3071,-2.3081,-2.3101,-2.3174,-2.3359,-2.3447,-2.3203,-2.3903,-2.4767,-2.5806,-2.6778,-2.7654,-2.8388,-2.8577,-2.8859,-2.9,-2.8637,-2.8122,-2.7143,-2.7394,-2.7218,-2.649,-2.6917,-2.7494,-2.7657,-2.8172,-2.8825,-2.9013,-2.89,-2.8612,-3.8003,-3.9239,-4.0513,-4.0884,-4.1057,-4.1,-4.1057,-4.0918,-4.053,-3.9995,-3.9284,-3.7787,-3.6655,-3.6039,-3.5089,-3.4691,-3.5035,-3.5323,-3.5587,-3.5861,-3.62,-3.6375,-3.6386,-3.6375,-3.62,-3.5861,-3.5576,-3.5186,-3.4661,-3.4202,-3.3933,-3.3891,-3.3016,-3.2142,-3.154,-3.0977,-3.0298,-2.9647,-2.9796,-2.9838,-2.9437,-2.8977,-2.8823,-2.8879,-2.7822,-2.6804,-2.628,-2.5546,-2.5244,-2.5615,-2.5606,-2.584,-2.625,-2.6621,-2.6807,-2.6865,-2.6904,-2.6934,-2.6904,-2.6885,-2.6885,-2.6914,-2.6846,-2.6914,-2.6836,-2.6836,-2.6826,-2.6924,-2.6846,-2.6572,-2.5918,-2.5849,-2.5801,-2.5781,-2.5742,-2.5752,-2.5713,-2.5762,-2.5693,-2.5567,-2.5215,-2.4609,-2.3887,-2.3364,-2.314,-2.3101,-2.3101,-2.312,-2.3169,-2.3179,-2.3188,-2.3223,-2.3456,-2.3816,-2.4575,-2.5909,-2.7054,-2.7917,-2.8638,-2.9149,-2.9297,-2.9277,-2.8674,-2.8222,-2.8109,-2.7883,-2.7507,-2.757,-2.7984,-2.8197,-2.8273,-2.8637,-2.8825,-2.8373,-2.8084,-3.7834,-3.8967,-3.9697,-4.0013,-4.0001,-4.0013,-4.0118,-4.0281,-4.0278,-4.008,-3.9558,-3.8516,-3.7805,-3.7313,-3.6049,-3.5189,-3.4747,-3.4747,-3.4858,-3.4969,-3.5068,-3.508,-3.508,-3.508,-3.508,-3.498,-3.4847,-3.4648,-3.4494,-3.4307,-3.4241,-3.4164,-3.3616,-3.3149,-3.2824,-3.1882,-3.1026,-3.0348,-2.9702,-2.9017,-2.8519,-2.7937,-2.7743,-2.7772,-2.7262,-2.6636,-2.5977,-2.5654,-2.5703,-2.6133,-2.6152,-2.6348,-2.6748,-2.6934,-2.7012,-2.7012,-2.7012,-2.7012,-2.7012,-2.7012,-2.7012,-2.7012,-2.7012,-2.7041,-2.7012,-2.7012,-2.7012,-2.7021,-2.7021,-2.6826,-2.667,-2.6502,-2.6502,-2.6553,-2.6543,-2.6416,-2.6221,-2.6143,-2.6055,-2.5703,-2.5127,-2.4414,-2.3926,-2.3408,-2.311,-2.3101,-2.3101,-2.3208,-2.3477,-2.3555,-2.3506,-2.358,-2.3703,-2.3783,-2.3321,-2.509,-2.6562,-2.7669,-2.8512,-2.9108,-2.9422,-2.959,-2.9164,-2.8725,-2.8649,-2.8486,-2.8122,-2.8147,-2.8549,-2.8888,-2.8938,-2.8536,-2.8675,-2.821,-2.7871,-3.7522,-3.8302,-3.8551,-3.867,-3.8622,-3.867,-3.8919,-3.9333,-3.9744,-3.9814,-3.9498,-3.8873,-3.8423,-3.8043,-3.6918,-3.6005,-3.5268,-3.4935,-3.4636,-3.4491,-3.4246,-3.4123,-3.4011,-3.3899,-3.3966,-3.4099,-3.4256,-3.4302,-3.4413,-3.4368,-3.4267,-3.4101,-3.3746,-3.3496,-3.3312,-3.2313,-3.1556,-3.0989,-2.9964,-2.9108,-2.8585,-2.7824,-2.7361,-2.721,-2.6804,-2.6399,-2.5937,-2.5762,-2.6006,-2.6494,-2.6592,-2.6846,-2.7353,-2.7422,-2.7422,-2.7432,-2.7432,-2.7432,-2.7432,-2.7422,-2.7441,-2.7432,-2.7432,-2.7422,-2.7422,-2.7422,-2.7422,-2.7422,-2.7422,-2.7422,-2.7422,-2.7422,-2.7324,-2.71,-2.7012,-2.6914,-2.6621,-2.6465,-2.6182,-2.5742,-2.5127,-2.4512,-2.4043,-2.3623,-2.3296,-2.313,-2.3101,-2.3281,-2.3506,-2.3574,-2.3584,-2.3584,-2.3693,-2.3686,-2.376,-2.4978,-2.6019,-2.7031,-2.8231,-2.891,-2.9495,-2.9663,-2.9679,-2.9302,-2.9088,-2.8976,-2.89,-2.8875,-2.9101,-2.9465,-2.9013,-2.8436,-2.831,-2.8034,-2.767,-3.7309,-3.7369,-3.7298,-3.738,-3.738,-3.738,-3.7681,-3.8361,-3.8944,-3.9203,-3.911,-3.8571,-3.8306,-3.8217,-3.7235,-3.6858,-3.6645,-3.5859,-3.508,-3.4524,-3.3875,-3.3413,-3.314,-3.2856,-3.2913,-3.331,-3.384,-3.4244,-3.4468,-3.4188,-3.3907,-3.3529,-3.3189,-3.3008,-3.2934,-3.2287,-3.1808,-3.1443,-3.0748,-3.026,-2.9947,-2.8708,-2.7957,-2.7723,-2.6853,-2.633,-2.6367,-2.5996,-2.6162,-2.6865,-2.7012,-2.7422,-2.8057,-2.8184,-2.8242,-2.8193,-2.8242,-2.8252,-2.8232,-2.8193,-2.8154,-2.8154,-2.8223,-2.8154,-2.8125,-2.8154,-2.8164,-2.8144,-2.8164,-2.8213,-2.8184,-2.8174,-2.79,-2.7217,-2.7168,-2.7148,-2.6982,-2.665,-2.625,-2.582,-2.5391,-2.4959,-2.4473,-2.3994,-2.3584,-2.3198,-2.3101,-2.311,-2.3188,-2.3208,-2.314,-2.3184,-2.3525,-2.3717,-2.4282,-2.4935,-2.56,-2.6375,-2.7577,-2.8578,-2.9339,-2.9689,-2.974,-2.9502,-2.9528,-2.939,-2.9352,-2.9302,-2.9151,-2.9277,-2.8725,-2.8461,-2.8235,-2.7996,-2.7406,-3.7253,-3.7011,-3.6757,-3.6696,-3.6696,-3.6696,-3.706,-3.7725,-3.8324,-3.8444,-3.8253,-3.7858,-3.7732,-3.761,-3.7008,-3.6847,-3.6999,-3.6507,-3.5701,-3.4488,-3.348,-3.2763,-3.2258,-3.174,-3.196,-3.2799,-3.3491,-3.3976,-3.4256,-3.3942,-3.3512,-3.3052,-3.2834,-3.2761,-3.2699,-3.2302,-3.1998,-3.1941,-3.1189,-3.0556,-3.0121,-2.9338,-2.8781,-2.8335,-2.7622,-2.7132,-2.6797,-2.6416,-2.6465,-2.7012,-2.7305,-2.7767,-2.8174,-2.8301,-2.8301,-2.8301,-2.8301,-2.8301,-2.8301,-2.8301,-2.8301,-2.8301,-2.8301,-2.8301,-2.8301,-2.8301,-2.8301,-2.8301,-2.8301,-2.8301,-2.8301,-2.8301,-2.8144,-2.792,-2.7891,-2.7725,-2.7432,-2.707,-2.6807,-2.6572,-2.5977,-2.5381,-2.4863,-2.4316,-2.3701,-2.3257,-2.3149,-2.3149,-2.313,-2.3159,-2.3101,-2.3144,-2.3513,-2.4018,-2.4717,-2.5487,-2.6262,-2.6832,-2.7731,-2.8466,-2.9187,-2.9573,-2.9624,-2.9753,-2.9779,-2.9779,-2.9741,-2.9654,-2.9465,-2.9465,-2.934,-2.8976,-2.8524,-2.8021,-2.7519,-3.7121,-3.6656,-3.6218,-3.6034,-3.6034,-3.6034,-3.6401,-3.7071,-3.7665,-3.7736,-3.7325,-3.6878,-3.6696,-3.6539,-3.6082,-3.6129,-3.6491,-3.6432,-3.5881,-3.4923,-3.3834,-3.3001,-3.2347,-3.1578,-3.1556,-3.2352,-3.297,-3.3582,-3.4032,-3.3671,-3.3161,-3.2742,-3.2581,-3.2457,-3.2317,-3.1906,-3.1728,-3.1721,-3.1075,-3.0604,-3.0285,-2.9792,-2.9297,-2.8814,-2.8188,-2.7571,-2.7053,-2.6904,-2.6982,-2.7275,-2.7666,-2.8027,-2.8271,-2.8301,-2.8301,-2.8301,-2.8301,-2.8301,-2.8301,-2.8301,-2.8301,-2.8301,-2.8301,-2.8301,-2.8301,-2.8301,-2.8301,-2.8301,-2.8301,-2.8301,-2.8301,-2.8301,-2.8301,-2.8291,-2.8262,-2.8105,-2.7777,-2.7432,-2.7168,-2.6904,-2.6387,-2.584,-2.5293,-2.4756,-2.4102,-2.3676,-2.3569,-2.3569,-2.3539,-2.3496,-2.3418,-2.3399,-2.3583,-2.4283,-2.5143,-2.6023,-2.6961,-2.7549,-2.8133,-2.8614,-2.9177,-2.9293,-2.9378,-2.9663,-2.9779,-2.9779,-2.9754,-2.9767,-2.9666,-2.9779,-2.9767,-2.9352,-2.8825,-2.8323,-2.7808,-3.6957,-3.6369,-3.5756,-3.5582,-3.5603,-3.5705,-3.6074,-3.6524,-3.7089,-3.705,-3.6401,-3.5767,-3.5397,-3.5252,-3.4993,-3.5131,-3.5477,-3.5725,-3.5815,-3.5481,-3.4763,-3.3954,-3.3056,-3.2102,-3.174,-3.1845,-3.2352,-3.298,-3.3491,-3.3285,-3.3001,-3.2685,-3.242,-3.2086,-3.1684,-3.1116,-3.0915,-3.1024,-3.0589,-3.0369,-3.0575,-3.0104,-2.9659,-2.9352,-2.8554,-2.787,-2.7555,-2.7685,-2.7826,-2.7773,-2.8057,-2.8242,-2.8291,-2.8301,-2.8301,-2.8301,-2.8301,-2.8301,-2.8301,-2.8301,-2.8301,-2.8301,-2.8301,-2.8301,-2.8301,-2.8301,-2.8301,-2.8301,-2.8301,-2.8301,-2.8301,-2.8301,-2.8301,-2.8301,-2.8301,-2.8115,-2.7783,-2.7705,-2.7568,-2.7197,-2.6728,-2.626,-2.583,-2.5342,-2.4893,-2.4531,-2.4385,-2.4365,-2.4268,-2.4062,-2.3828,-2.3791,-2.3775,-2.4367,-2.5174,-2.6336,-2.7248,-2.8184,-2.863,-2.8923,-2.9237,-2.9312,-2.9485,-2.9747,-3.0005,-2.9942,-2.9892,-2.998,-2.9892,-2.9804,-2.9679,-2.9465,-2.9076,-2.8612,-2.8072,-3.7132,-3.6717,-3.6279,-3.6279,-3.6513,-3.6757,-3.695,-3.7143,-3.7303,-3.6878,-3.5972,-3.5046,-3.4652,-3.4652,-3.4551,-3.4676,-3.5026,-3.531,-3.5655,-3.5784,-3.555,-3.4349,-3.3037,-3.2147,-3.1576,-3.1286,-3.1797,-3.2352,-3.2867,-3.2867,-3.2753,-3.2675,-3.218,-3.1682,-3.11,-3.0416,-2.999,-2.9998,-2.9692,-2.9711,-3.0047,-3.0016,-3.0026,-3.0179,-2.9538,-2.9116,-2.8957,-2.9004,-2.8794,-2.8184,-2.8213,-2.8291,-2.835,-2.835,-2.8379,-2.8369,-2.834,-2.831,-2.832,-2.833,-2.832,-2.8301,-2.8389,-2.8301,-2.8301,-2.8301,-2.8301,-2.8301,-2.8301,-2.833,-2.832,-2.833,-2.833,-2.8301,-2.835,-2.8271,-2.8144,-2.8125,-2.8066,-2.79,-2.7285,-2.6728,-2.6269,-2.5869,-2.543,-2.5068,-2.4971,-2.4941,-2.4883,-2.4434,-2.4121,-2.3884,-2.3904,-2.4523,-2.53,-2.6443,-2.7546,-2.864,-2.9127,-2.9331,-2.9582,-2.9654,-2.9902,-3.0169,-3.0605,-3.067,-3.0495,-3.0432,-3.0206,-2.988,-2.9741,-2.9591,-2.9327,-2.8913,-2.8323,-3.7242,-3.7093,-3.6878,-3.705,-3.7544,-3.7954,-3.8025,-3.7736,-3.7473,-3.6746,-3.5592,-3.4485,-3.3985,-3.3985,-3.3985,-3.4047,-3.4288,-3.4485,-3.4777,-3.5201,-3.5215,-3.4369,-3.3165,-3.2418,-3.1708,-3.1005,-3.1334,-3.1845,-3.2238,-3.2295,-3.2295,-3.2238,-3.1835,-3.1334,-3.0908,-3.0234,-2.9834,-2.9809,-2.9461,-2.9467,-2.9809,-2.9688,-2.9852,-3.0115,-2.986,-2.9635,-2.9603,-2.956,-2.9316,-2.8935,-2.8838,-2.8828,-2.8828,-2.8828,-2.8828,-2.8838,-2.8828,-2.8848,-2.8828,-2.8828,-2.8828,-2.8838,-2.8828,-2.8838,-2.8857,-2.8828,-2.8828,-2.8857,-2.8828,-2.8828,-2.8828,-2.8828,-2.8828,-2.8848,-2.8672,-2.8496,-2.833,-2.8281,-2.8291,-2.8135,-2.7715,-2.7129,-2.6719,-2.6416,-2.6094,-2.581,-2.5869,-2.5791,-2.5644,-2.499,-2.4492,-2.4415,-2.4256,-2.4735,-2.5327,-2.6328,-2.7379,-2.8455,-2.9183,-2.9464,-2.9803,-2.9958,-3.0192,-3.0498,-3.1032,-3.1298,-3.1009,-3.0683,-3.0306,-3.0043,-2.9892,-2.9716,-2.9478,-2.9013,-2.8448,-3.7341,-3.7374,-3.7319,-3.7703,-3.8216,-3.8837,-3.8611,-3.8096,-3.7451,-3.6481,-3.5284,-3.3985,-3.3544,-3.3418,-3.3544,-3.3418,-3.3481,-3.3607,-3.3985,-3.4375,-3.4554,-3.4182,-3.3433,-3.2725,-3.1877,-3.1064,-3.116,-3.1392,-3.1672,-3.1682,-3.1672,-3.1614,-3.1392,-3.116,-3.0859,-3.041,-3.0225,-3.0076,-2.9626,-2.9446,-2.9523,-2.9337,-2.9367,-2.9583,-2.9729,-2.9691,-2.9819,-2.9785,-2.9736,-2.9707,-2.9685,-2.9492,-2.9512,-2.9597,-2.9521,-2.9482,-2.9489,-2.9518,-2.9587,-2.9443,-2.9558,-2.9463,-2.9482,-2.958,-2.9473,-2.9424,-2.9424,-2.9414,-2.956,-2.9463,-2.9453,-2.9567,-2.9518,-2.9355,-2.9121,-2.875,-2.8467,-2.832,-2.8301,-2.8271,-2.791,-2.75,-2.7236,-2.7051,-2.6934,-2.6611,-2.672,-2.6701,-2.6396,-2.5879,-2.5478,-2.5272,-2.5108,-2.4943,-2.5533,-2.6176,-2.715,-2.8162,-2.8854,-2.9349,-2.9855,-3.0104,-3.0439,-3.0829,-3.1572,-3.1659,-3.1223,-3.0859,-3.0532,-3.0156,-2.9993,-2.9867,-2.9679,-2.9026,-2.8436,-3.7374,-3.7374,-3.7374,-3.7616,-3.7987,-3.8335,-3.8145,-3.7555,-3.6857,-3.6002,-3.4911,-3.3859,-3.3418,-3.3418,-3.3418,-3.3418,-3.3418,-3.3418,-3.3733,-3.434,-3.4415,-3.4175,-3.3558,-3.2844,-3.1908,-3.1201,-3.0967,-3.1073,-3.1141,-3.1219,-3.1112,-3.1122,-3.1112,-3.0947,-3.0888,-3.0488,-3.0205,-3.0117,-2.9809,-2.9443,-2.9213,-2.9095,-2.9065,-2.9262,-2.9748,-3.0241,-3.0556,-3.0605,-3.0615,-3.0449,-3.0,-2.9687,-2.9678,-2.9648,-2.9668,-2.9678,-2.9639,-2.9675,-2.96,-2.9648,-2.959,-2.9668,-2.9744,-2.958,-2.958,-2.9685,-2.9665,-2.958,-2.958,-2.9668,-2.9678,-2.9609,-2.9658,-2.9609,-2.9258,-2.8926,-2.876,-2.8486,-2.832,-2.8213,-2.7949,-2.7627,-2.7529,-2.7571,-2.7503,-2.7444,-2.7464,-2.7513,-2.717,-2.667,-2.6289,-2.5918,-2.5604,-2.5372,-2.5508,-2.6087,-2.6976,-2.7915,-2.8589,-2.932,-2.9866,-3.0527,-3.0901,-3.1509,-3.2219,-3.2039,-3.1637,-3.1373,-3.1097,-3.0608,-3.0168,-3.0131,-2.9917,-2.9176,-2.8825,-3.7352,-3.7374,-3.7341,-3.7484,-3.7676,-3.7785,-3.7473,-3.6878,-3.6247,-3.5459,-3.46,-3.3733,-3.3418,-3.3418,-3.3418,-3.3418,-3.3418,-3.3418,-3.3544,-3.3859,-3.3902,-3.3684,-3.3379,-3.2841,-3.2195,-3.1543,-3.1563,-3.1406,-3.124,-3.1152,-3.1094,-3.0898,-3.0898,-3.0947,-3.0889,-3.0625,-3.0557,-3.0459,-3.0088,-2.9658,-2.9297,-2.9219,-2.9365,-2.958,-3.0156,-3.0664,-3.084,-3.0879,-3.0879,-3.0771,-3.0439,-3.0176,-3.0185,-3.0185,-3.0185,-3.0185,-3.0195,-3.0185,-3.0185,-3.0185,-3.0225,-3.0176,-3.0233,-3.0195,-3.0195,-3.0195,-3.0195,-3.0185,-3.0205,-3.0205,-3.0195,-3.0205,-3.0185,-3.0059,-2.959,-2.9248,-2.9131,-2.8691,-2.8301,-2.8262,-2.8115,-2.7871,-2.7783,-2.7904,-2.7806,-2.7679,-2.7842,-2.7881,-2.764,-2.72,-2.6758,-2.6387,-2.6006,-2.5771,-2.5641,-2.6069,-2.6837,-2.77,-2.8477,-2.9297,-2.9993,-3.0746,-3.1501,-3.2068,-3.253,-3.2519,-3.2139,-3.1901,-3.1587,-3.1148,-3.0796,-3.062,-3.0407,-3.0068,-2.988,-3.7341,-3.7325,-3.721,-3.716,-3.7121,-3.7028,-3.6664,-3.6125,-3.551,-3.4901,-3.4288,-3.367,-3.3418,-3.3418,-3.3418,-3.3418,-3.3418,-3.3418,-3.3481,-3.3481,-3.3481,-3.3368,-3.3093,-3.2894,-3.2737,-3.2373,-3.2129,-3.1894,-3.1572,-3.1484,-3.124,-3.0967,-3.0898,-3.0898,-3.0889,-3.0889,-3.084,-3.0762,-3.0478,-3.0088,-2.9736,-2.9668,-2.9834,-3.0098,-3.04,-3.0732,-3.085,-3.0898,-3.0898,-3.0898,-3.0898,-3.0898,-3.0898,-3.0898,-3.0889,-3.085,-3.0781,-3.0742,-3.0723,-3.0791,-3.081,-3.0898,-3.0859,-3.085,-3.083,-3.0781,-3.0762,-3.0791,-3.0771,-3.0771,-3.0879,-3.0771,-3.0801,-3.0693,-3.0107,-2.9707,-2.9509,-2.8951,-2.8633,-2.8408,-2.831,-2.8105,-2.8086,-2.8125,-2.7988,-2.791,-2.8135,-2.8213,-2.791,-2.7708,-2.7285,-2.6924,-2.6562,-2.5977,-2.579,-2.5533,-2.6391,-2.7071,-2.8,-2.8783,-2.9681,-3.0493,-3.1223,-3.2185,-3.2556,-3.2614,-3.2528,-3.2227,-3.1901,-3.1599,-3.1323,-3.1047,-3.0959,-3.0959,-3.0834,-3.7203,-3.6982,-3.6656,-3.6401,-3.6106,-3.5839,-3.5459,-3.5098,-3.4725,-3.435,-3.3985,-3.3607,-3.3418,-3.3418,-3.3418,-3.3418,-3.3418,-3.3418,-3.3418,-3.3418,-3.3418,-3.332,-3.3281,-3.3232,-3.3203,-3.3037,-3.2617,-3.2051,-3.1689,-3.1494,-3.1445,-3.1035,-3.0967,-3.0976,-3.0957,-3.0898,-3.0928,-3.0898,-3.0752,-3.0478,-3.0127,-3.0039,-3.0107,-3.0254,-3.042,-3.0596,-3.084,-3.0898,-3.0898,-3.0898,-3.0898,-3.0898,-3.0898,-3.0898,-3.0898,-3.0898,-3.0898,-3.0898,-3.0898,-3.0898,-3.0898,-3.0898,-3.0898,-3.0898,-3.0898,-3.0898,-3.0898,-3.0898,-3.0898,-3.0898,-3.0898,-3.0898,-3.0898,-3.0752,-3.042,-2.9941,-2.9648,-2.944,-2.915,-2.8945,-2.8652,-2.8379,-2.8398,-2.834,-2.8164,-2.8086,-2.8193,-2.8291,-2.8144,-2.8018,-2.7871,-2.751,-2.7148,-2.6475,-2.5859,-2.5526,-2.5642,-2.6151,-2.6946,-2.7723,-2.8667,-2.9825,-3.0763,-3.1787,-3.2593,-3.2925,-3.2742,-3.2503,-3.234,-3.2114,-3.1775,-3.1449,-3.1537,-3.1625,-3.1499,-3.705,-3.6585,-3.6085,-3.5603,-3.5108,-3.4548,-3.4288,-3.411,-3.3922,-3.3796,-3.3617,-3.3481,-3.3418,-3.3418,-3.3418,-3.3418,-3.3418,-3.3418,-3.3418,-3.3418,-3.3418,-3.3418,-3.3418,-3.3418,-3.3418,-3.331,-3.2978,-3.2568,-3.2217,-3.2207,-3.1904,-3.165,-3.1553,-3.1445,-3.126,-3.124,-3.1074,-3.0967,-3.0869,-3.0674,-3.0244,-3.0215,-3.0293,-3.0498,-3.0547,-3.0684,-3.081,-3.0898,-3.0898,-3.0898,-3.0898,-3.0898,-3.0898,-3.0898,-3.0898,-3.0898,-3.0898,-3.0898,-3.0898,-3.0898,-3.0898,-3.0898,-3.0898,-3.0898,-3.0898,-3.0898,-3.0898,-3.0898,-3.0898,-3.0898,-3.0898,-3.0898,-3.0898,-3.081,-3.0488,-3.0156,-2.9912,-2.9717,-2.959,-2.9453,-2.9062,-2.8809,-2.8711,-2.8594,-2.8359,-2.8301,-2.832,-2.832,-2.834,-2.8232,-2.8144,-2.7676,-2.7217,-2.6602,-2.6025,-2.5703,-2.5428,-2.5767,-2.6188,-2.6955,-2.8065,-2.9409,-3.0496,-3.1488,-3.2189,-3.2953,-3.3018,-3.2792,-3.2704,-3.2629,-3.2441,-3.2277,-3.229,-3.2307,-3.2168,-3.6603,-3.6074,-3.5448,-3.4839,-3.4235,-3.367,-3.3418,-3.3418,-3.3418,-3.3418,-3.3418,-3.3418,-3.3418,-3.3418,-3.3418,-3.3418,-3.3418,-3.3418,-3.3418,-3.3418,-3.3418,-3.3418,-3.3418,-3.3418,-3.3418,-3.3408,-3.3359,-3.3213,-3.2764,-3.2685,-3.2519,-3.2178,-3.2129,-3.1953,-3.1572,-3.1445,-3.125,-3.1025,-3.0879,-3.0664,-3.043,-3.0361,-3.0498,-3.085,-3.0898,-3.0879,-3.0889,-3.0898,-3.0898,-3.0898,-3.0898,-3.0898,-3.0898,-3.0898,-3.0898,-3.0898,-3.0898,-3.0898,-3.0898,-3.0898,-3.0898,-3.0898,-3.0898,-3.0898,-3.0898,-3.0898,-3.0898,-3.0898,-3.0898,-3.0898,-3.0898,-3.0898,-3.0898,-3.083,-3.0586,-3.0293,-3.0156,-3.0049,-3.0049,-2.9814,-2.9434,-2.9316,-2.9297,-2.9062,-2.8877,-2.874,-2.875,-2.8574,-2.8555,-2.833,-2.8125,-2.7646,-2.7139,-2.6572,-2.6172,-2.6045,-2.5781,-2.5788,-2.6132,-2.6615,-2.7885,-2.9279,-3.0217,-3.1103,-3.2097,-3.2755,-3.2902,-3.2909,-3.2587,-3.2494,-3.2846,-3.2895,-3.2627,-3.2687,-3.2734,-3.5407,-3.5046,-3.4673,-3.4298,-3.3922,-3.3544,-3.3418,-3.3418,-3.3418,-3.3418,-3.3418,-3.3418,-3.3418,-3.3418,-3.3418,-3.3418,-3.3418,-3.3418,-3.3418,-3.3418,-3.3418,-3.3418,-3.3418,-3.3418,-3.3418,-3.3418,-3.3418,-3.3174,-3.2949,-3.2861,-3.2637,-3.2334,-3.2285,-3.2002,-3.1738,-3.1719,-3.1299,-3.0996,-3.0928,-3.0869,-3.0791,-3.0771,-3.082,-3.0869,-3.0928,-3.0918,-3.0928,-3.0928,-3.0947,-3.0898,-3.0898,-3.0898,-3.0898,-3.0898,-3.0898,-3.0898,-3.0898,-3.0898,-3.0898,-3.0898,-3.0898,-3.0898,-3.0898,-3.0898,-3.0898,-3.0898,-3.0898,-3.0898,-3.0898,-3.0898,-3.0898,-3.0898,-3.0898,-3.0879,-3.0791,-3.0527,-3.0361,-3.042,-3.042,-3.0322,-2.999,-3.0,-3.001,-2.9707,-2.9434,-2.9287,-2.9131,-2.8935,-2.8711,-2.8467,-2.8144,-2.7666,-2.7373,-2.6846,-2.6494,-2.6338,-2.6133,-2.5996,-2.6122,-2.647,-2.7499,-2.8715,-2.9736,-3.0662,-3.1691,-3.2277,-3.2283,-3.2228,-3.2142,-3.2306,-3.2516,-3.2661,-3.2686,-3.2896,-3.3081,-3.4173,-3.4057,-3.3932,-3.3733,-3.3607,-3.3481,-3.3418,-3.3418,-3.3418,-3.3418,-3.3418,-3.3418,-3.3418,-3.3418,-3.3418,-3.3418,-3.3418,-3.3418,-3.3418,-3.3418,-3.3418,-3.3418,-3.3418,-3.3418,-3.3418,-3.3418,-3.3408,-3.3379,-3.3164,-3.3115,-3.3018,-3.2891,-3.2832,-3.2715,-3.2187,-3.2217,-3.2002,-3.1689,-3.1396,-3.1133,-3.0957,-3.0898,-3.0898,-3.0908,-3.1113,-3.1094,-3.1016,-3.1152,-3.1094,-3.0976,-3.0898,-3.0898,-3.0898,-3.0898,-3.0898,-3.0898,-3.0898,-3.0898,-3.0898,-3.0898,-3.0898,-3.0898,-3.0898,-3.0898,-3.0898,-3.0898,-3.0898,-3.0898,-3.0898,-3.0898,-3.0898,-3.0898,-3.0898,-3.0898,-3.0898,-3.081,-3.0654,-3.0752,-3.0771,-3.0664,-3.0566,-3.0518,-3.04,-3.0029,-2.9736,-2.96,-2.9346,-2.9053,-2.8789,-2.8506,-2.8144,-2.7767,-2.749,-2.7256,-2.6953,-2.6728,-2.6523,-2.6358,-2.6211,-2.6545,-2.7075,-2.8041,-2.9121,-3.0075,-3.0915,-3.1356,-3.154,-3.1621,-3.1666,-3.1889,-3.2138,-3.2329,-3.2504,-3.2896,-3.3006,-3.3418,-3.3418,-3.3418,-3.3418,-3.3418,-3.3418,-3.3418,-3.3418,-3.3418,-3.3418,-3.3418,-3.3418,-3.3418,-3.3418,-3.3418,-3.3418,-3.3418,-3.3418,-3.3418,-3.3418,-3.3418,-3.3418,-3.3418,-3.3418,-3.3418,-3.3418,-3.3418,-3.3389,-3.3398,-3.3389,-3.3359,-3.3418,-3.3291,-3.3105,-3.2871,-3.2685,-3.2471,-3.206,-3.166,-3.1357,-3.1123,-3.0937,-3.0986,-3.1113,-3.1299,-3.1416,-3.1289,-3.1328,-3.1289,-3.1162,-3.0937,-3.0898,-3.0898,-3.0898,-3.0898,-3.0898,-3.0898,-3.0898,-3.0898,-3.0898,-3.0898,-3.0898,-3.0898,-3.0898,-3.0898,-3.0898,-3.0898,-3.0898,-3.0898,-3.0898,-3.0898,-3.0898,-3.0898,-3.0898,-3.0898,-3.0898,-3.0898,-3.0889,-3.0889,-3.081,-3.0752,-3.0801,-3.0615,-3.0254,-3.0019,-2.9893,-2.96,-2.9238,-2.8975,-2.873,-2.8603,-2.8374,-2.8344,-2.8047,-2.7588,-2.7295,-2.7031,-2.6728,-2.6572,-2.6636,-2.7092,-2.7706,-2.8673,-2.9507,-3.0334,-3.1069,-3.1672,-3.1406,-3.1201,-3.1529,-3.1852,-3.2091,-3.2346,-3.2735,-3.3013,-3.3418,-3.3418,-3.3418,-3.3418,-3.3418,-3.3418,-3.3418,-3.3418,-3.3418,-3.3418,-3.3418,-3.3418,-3.3418,-3.3418,-3.3418,-3.3418,-3.3418,-3.3418,-3.3418,-3.3418,-3.3418,-3.3418,-3.3418,-3.3418,-3.3418,-3.3418,-3.3418,-3.3418,-3.3418,-3.3418,-3.3418,-3.3418,-3.3418,-3.3164,-3.2978,-3.2891,-3.2676,-3.2285,-3.1885,-3.165,-3.1416,-3.124,-3.1172,-3.1426,-3.1543,-3.168,-3.2021,-3.1758,-3.1514,-3.1396,-3.1064,-3.0898,-3.0898,-3.0898,-3.0898,-3.0898,-3.0898,-3.0898,-3.0898,-3.0898,-3.0898,-3.0898,-3.0898,-3.0898,-3.0898,-3.0898,-3.0898,-3.0898,-3.0898,-3.0898,-3.0898,-3.0898,-3.0898,-3.0898,-3.0898,-3.0898,-3.0898,-3.0898,-3.0889,-3.0898,-3.0898,-3.0898,-3.0889,-3.0547,-3.0459,-3.0351,-3.0019,-2.9658,-2.9443,-2.9248,-2.9326,-2.9303,-2.9352,-2.8994,-2.8369,-2.8037,-2.7754,-2.7305,-2.6973,-2.6931,-2.7061,-2.776,-2.8359,-2.9266,-3.0177,-3.0981,-3.1645,-3.1587,-3.1532,-3.1422,-3.1563,-3.1902,-3.233,-3.2743,-3.3027,-3.3418,-3.3418,-3.3418,-3.3418,-3.3418,-3.3418,-3.3418,-3.3418,-3.3418,-3.3418,-3.3418,-3.3418,-3.3418,-3.3418,-3.3418,-3.3418,-3.3418,-3.3418,-3.3418,-3.3418,-3.3418,-3.3418,-3.3418,-3.3418,-3.3418,-3.3418,-3.3418,-3.3418,-3.3418,-3.3418,-3.3418,-3.3418,-3.3418,-3.335,-3.3213,-3.3115,-3.291,-3.2627,-3.2363,-3.2207,-3.1904,-3.1807,-3.1758,-3.1894,-3.2236,-3.2197,-3.2229,-3.2012,-3.1777,-3.1494,-3.1113,-3.0957,-3.0898,-3.0898,-3.0898,-3.0898,-3.0898,-3.0898,-3.0898,-3.0898,-3.0898,-3.0898,-3.0898,-3.0898,-3.0898,-3.0898,-3.0898,-3.0898,-3.0898,-3.0898,-3.0898,-3.0898,-3.0898,-3.0898,-3.0898,-3.0898,-3.0898,-3.0898,-3.0898,-3.0898,-3.0898,-3.0898,-3.0898,-3.0859,-3.084,-3.0801,-3.0439,-3.0098,-2.9893,-2.9736,-2.9785,-2.9805,-2.9814,-2.9687,-2.9092,-2.875,-2.8476,-2.7978,-2.7461,-2.7424,-2.7431,-2.7512,-2.8184,-2.9078,-2.9926,-3.0741,-3.1348,-3.1795,-3.1881,-3.175,-3.1718,-3.1823,-3.223,-3.2783,-3.3162,-3.3418,-3.3418,-3.3418,-3.3418,-3.3418,-3.3418,-3.3418,-3.3418,-3.3418,-3.3418,-3.3418,-3.3418,-3.3418,-3.3418,-3.3418,-3.3418,-3.3418,-3.3418,-3.3418,-3.3418,-3.3418,-3.3418,-3.3418,-3.3418,-3.3418,-3.3418,-3.3418,-3.3418,-3.3418,-3.3418,-3.3418,-3.3418,-3.3418,-3.3398,-3.3398,-3.3398,-3.3262,-3.3047,-3.2812,-3.2695,-3.2363,-3.2258,-3.2307,-3.2324,-3.2598,-3.2725,-3.2519,-3.2344,-3.2012,-3.165,-3.1269,-3.0947,-3.0898,-3.0898,-3.0898,-3.0898,-3.0898,-3.0898,-3.0898,-3.0898,-3.0898,-3.0898,-3.0898,-3.0898,-3.0898,-3.0898,-3.0898,-3.0898,-3.0898,-3.0898,-3.0898,-3.0898,-3.0898,-3.0898,-3.0898,-3.0898,-3.0898,-3.0898,-3.0898,-3.0898,-3.0898,-3.0898,-3.0898,-3.0898,-3.0898,-3.0898,-3.0732,-3.0478,-3.0351,-3.0225,-3.0176,-3.0176,-3.0156,-2.999,-2.9756,-2.9482,-2.9189,-2.8818,-2.832,-2.7943,-2.7939,-2.7938,-2.8025,-2.8737,-2.9557,-3.0434,-3.1309,-3.2129,-3.2208,-3.2056,-3.2082,-3.2117,-3.2488,-3.3015,-3.3608,-3.3418,-3.3418,-3.3418,-3.3418,-3.3418,-3.3418,-3.3418,-3.3418,-3.3418,-3.3418,-3.3418,-3.3418,-3.3418,-3.3418,-3.3418,-3.3418,-3.3418,-3.3418,-3.3418,-3.3418,-3.3418,-3.3418,-3.3418,-3.3418,-3.3418,-3.3418,-3.3418,-3.3418,-3.3418,-3.3418,-3.3418,-3.3418,-3.3418,-3.3418,-3.3418,-3.3418,-3.3408,-3.335,-3.2998,-3.2851,-3.2734,-3.25,-3.2568,-3.2734,-3.2851,-3.2988,-3.3008,-3.2578,-3.2275,-3.208,-3.1377,-3.1055,-3.0996,-3.0918,-3.0898,-3.0898,-3.0898,-3.0898,-3.0898,-3.0898,-3.0898,-3.0898,-3.0898,-3.0898,-3.0898,-3.0898,-3.0898,-3.0898,-3.0898,-3.0898,-3.0898,-3.0898,-3.0898,-3.0898,-3.0898,-3.0898,-3.0898,-3.0898,-3.0898,-3.0898,-3.0898,-3.0898,-3.0898,-3.0898,-3.0898,-3.0898,-3.0898,-3.081,-3.0684,-3.0615,-3.0518,-3.0498,-3.0469,-3.04,-3.0234,-3.0156,-2.9912,-2.9551,-2.9141,-2.8716,-2.8335,-2.8249,-2.8373,-2.8669,-2.9352,-3.0266,-3.1495,-3.2694,-3.2538,-3.2458,-3.2491,-3.2563,-3.2889,-3.331,-3.3942,-3.3418,-3.3418,-3.3418,-3.3418,-3.3418,-3.3418,-3.3418,-3.3418,-3.3418,-3.3418,-3.3418,-3.3418,-3.3418,-3.3418,-3.3418,-3.3418,-3.3418,-3.3418,-3.3418,-3.3418,-3.3418,-3.3418,-3.3418,-3.3418,-3.3418,-3.3418,-3.3418,-3.3418,-3.3418,-3.3418,-3.3418,-3.3418,-3.3418,-3.3418,-3.3418,-3.3418,-3.3408,-3.3408,-3.3271,-3.3203,-3.3184,-3.3057,-3.3027,-3.3184,-3.3184,-3.3262,-3.3379,-3.2803,-3.2568,-3.2432,-3.1709,-3.1289,-3.1191,-3.1103,-3.0898,-3.0898,-3.0898,-3.0898,-3.0898,-3.0898,-3.0898,-3.0898,-3.0898,-3.0898,-3.0898,-3.0898,-3.0898,-3.0898,-3.0898,-3.0898,-3.0898,-3.0898,-3.0898,-3.0898,-3.0898,-3.0898,-3.0898,-3.0898,-3.0898,-3.0898,-3.0898,-3.0898,-3.0898,-3.0898,-3.0898,-3.0898,-3.0898,-3.0898,-3.0801,-3.0801,-3.0762,-3.0771,-3.0762,-3.0752,-3.0684,-3.0478,-3.0332,-3.0029,-2.9687,-2.9372,-2.9039,-2.8711,-2.8928,-2.9252,-2.9662,-3.0153,-3.1328,-3.2345,-3.2769,-3.2878,-3.3005,-3.3055,-3.3235,-3.3743,-3.4414,-3.3418,-3.3418,-3.3418,-3.3418,-3.3418,-3.3418,-3.3418,-3.3418,-3.3418,-3.3418,-3.3418,-3.3418,-3.3418,-3.3418,-3.3418,-3.3418,-3.3418,-3.3418,-3.3418,-3.3418,-3.3418,-3.3418,-3.3418,-3.3418,-3.3418,-3.3418,-3.3418,-3.3418,-3.3418,-3.3418,-3.3418,-3.3418,-3.3418,-3.3418,-3.3418,-3.3418,-3.3418,-3.3408,-3.3359,-3.3369,-3.3369,-3.3359,-3.3369,-3.3389,-3.3389,-3.3418,-3.3301,-3.3086,-3.2793,-3.2568,-3.2119,-3.1572,-3.1416,-3.1182,-3.0928,-3.0898,-3.0898,-3.0898,-3.0898,-3.0898,-3.0898,-3.0898,-3.0898,-3.0898,-3.0898,-3.0898,-3.0898,-3.0898,-3.0898,-3.0898,-3.0898,-3.0908,-3.1074,-3.1084,-3.123,-3.125,-3.1103,-3.1113,-3.0996,-3.0986,-3.0898,-3.0898,-3.0898,-3.0898,-3.0898,-3.0898,-3.0898,-3.0898,-3.0898,-3.0898,-3.0898,-3.0898,-3.0898,-3.085,-3.0791,-3.0684,-3.0547,-3.0449,-3.0195,-2.9959,-2.9726,-2.9473,-2.9698,-2.9774,-2.9933,-3.0318,-3.1214,-3.1987,-3.2723,-3.3396,-3.3788,-3.3761,-3.3641,-3.3991,-3.4553,-3.3418,-3.3418,-3.3418,-3.3418,-3.3418,-3.3418,-3.3418,-3.3418,-3.3418,-3.3418,-3.3418,-3.3418,-3.3418,-3.3418,-3.3418,-3.3457,-3.3457,-3.3457,-3.3476,-3.3457,-3.3467,-3.3437,-3.3418,-3.3418,-3.3418,-3.3418,-3.3418,-3.3418,-3.3418,-3.3418,-3.3418,-3.3418,-3.3418,-3.3418,-3.3418,-3.3418,-3.3418,-3.3418,-3.3418,-3.3418,-3.3418,-3.3418,-3.3418,-3.3418,-3.3418,-3.3418,-3.331,-3.3105,-3.2939,-3.2617,-3.2119,-3.1768,-3.1475,-3.1172,-3.1016,-3.0967,-3.1025,-3.1064,-3.1094,-3.1133,-3.1103,-3.1182,-3.1084,-3.0986,-3.0898,-3.0898,-3.0898,-3.0898,-3.0898,-3.0898,-3.0898,-3.1162,-3.1426,-3.1592,-3.1826,-3.1719,-3.1494,-3.1367,-3.1201,-3.1084,-3.0937,-3.0898,-3.0898,-3.0898,-3.0898,-3.0898,-3.0898,-3.0898,-3.0898,-3.0898,-3.0898,-3.0898,-3.0898,-3.0898,-3.084,-3.0771,-3.0752,-3.0654,-3.0693,-3.0488,-3.0332,-3.0059,-2.99,-2.9888,-3.0017,-3.0495,-3.124,-3.2113,-3.312,-3.3686,-3.4073,-3.4199,-3.3961,-3.3889,-3.4252,-3.3418,-3.3418,-3.3418,-3.3418,-3.3418,-3.3418,-3.3418,-3.3418,-3.3418,-3.3418,-3.3418,-3.3418,-3.3418,-3.3418,-3.3418,-3.3603,-3.3662,-3.3652,-3.3701,-3.3672,-3.3594,-3.3467,-3.3418,-3.3418,-3.3418,-3.3418,-3.3418,-3.3418,-3.3418,-3.3418,-3.3418,-3.3418,-3.3418,-3.3418,-3.3418,-3.3418,-3.3418,-3.3418,-3.3418,-3.3418,-3.3418,-3.3418,-3.3418,-3.3418,-3.3418,-3.3418,-3.334,-3.3291,-3.3193,-3.3066,-3.2685,-3.2422,-3.2393,-3.2051,-3.1867,-3.1807,-3.1816,-3.1816,-3.1797,-3.1787,-3.1738,-3.1689,-3.1719,-3.1367,-3.1143,-3.0976,-3.0996,-3.1064,-3.1084,-3.1123,-3.123,-3.1455,-3.168,-3.1875,-3.209,-3.2119,-3.1894,-3.1709,-3.1523,-3.1133,-3.0986,-3.0898,-3.0898,-3.0898,-3.0898,-3.0898,-3.0898,-3.0898,-3.0898,-3.0898,-3.0898,-3.0898,-3.0898,-3.0898,-3.0898,-3.085,-3.0869,-3.0869,-3.0879,-3.084,-3.0615,-3.0322,-3.0029,-2.9998,-3.0076,-3.0495,-3.1079,-3.2086,-3.3031,-3.3701,-3.4072,-3.4261,-3.4337,-3.4185,-3.3935,-3.3418,-3.3418,-3.3418,-3.3418,-3.3418,-3.3418,-3.3418,-3.3418,-3.3418,-3.3418,-3.3418,-3.3418,-3.3418,-3.3418,-3.3447,-3.3633,-3.4004,-3.3848,-3.3838,-3.3877,-3.3789,-3.3594,-3.3496,-3.3428,-3.3418,-3.3418,-3.3418,-3.3418,-3.3418,-3.3418,-3.3418,-3.3418,-3.3418,-3.3418,-3.3418,-3.3418,-3.3418,-3.3418,-3.3418,-3.3418,-3.3418,-3.3418,-3.3418,-3.3418,-3.3418,-3.3418,-3.3418,-3.3418,-3.3418,-3.3359,-3.3008,-3.2793,-3.2705,-3.2393,-3.2219,-3.217,-3.21,-3.208,-3.207,-3.21,-3.2148,-3.2238,-3.2197,-3.1914,-3.168,-3.1533,-3.1514,-3.1514,-3.1465,-3.1465,-3.1601,-3.1748,-3.1904,-3.208,-3.2266,-3.2461,-3.2295,-3.21,-3.1719,-3.126,-3.1045,-3.0937,-3.0898,-3.0898,-3.0898,-3.0898,-3.0898,-3.0898,-3.0898,-3.0898,-3.0898,-3.0898,-3.0898,-3.0898,-3.0898,-3.0898,-3.0898,-3.0898,-3.0889,-3.084,-3.0742,-3.0508,-3.0137,-3.0076,-3.0123,-3.0554,-3.099,-3.1912,-3.2836,-3.3497,-3.4294,-3.48,-3.4728,-3.4268,-3.3954,-3.3418,-3.3418,-3.3418,-3.3418,-3.3418,-3.3418,-3.3418,-3.3418,-3.3418,-3.3418,-3.3418,-3.3418,-3.3418,-3.3418,-3.3428,-3.374,-3.4033,-3.4062,-3.4131,-3.4141,-3.4014,-3.3838,-3.3613,-3.3447,-3.3418,-3.3418,-3.3418,-3.3418,-3.3418,-3.3418,-3.3418,-3.3418,-3.3418,-3.3418,-3.3418,-3.3418,-3.3418,-3.3418,-3.3418,-3.3418,-3.3418,-3.3418,-3.3418,-3.3418,-3.3418,-3.3418,-3.3418,-3.3418,-3.3418,-3.3281,-3.3135,-3.29,-3.2773,-3.2617,-3.2422,-3.2373,-3.2461,-3.2461,-3.248,-3.249,-3.2432,-3.2383,-3.2275,-3.2353,-3.2305,-3.1982,-3.1885,-3.1865,-3.1816,-3.1816,-3.1924,-3.2187,-3.2393,-3.2549,-3.2734,-3.2754,-3.2588,-3.2275,-3.1787,-3.1357,-3.1055,-3.0947,-3.0898,-3.0898,-3.0898,-3.0898,-3.0898,-3.0898,-3.0918,-3.0918,-3.0928,-3.0918,-3.0898,-3.0898,-3.0898,-3.0898,-3.0898,-3.0898,-3.0898,-3.0889,-3.082,-3.0557,-3.0225,-3.0203,-3.0164,-3.0468,-3.0942,-3.1864,-3.2769,-3.3731,-3.4505,-3.5342,-3.5176,-3.446,-3.3967,-3.3418,-3.3418,-3.3418,-3.3418,-3.3418,-3.3418,-3.3418,-3.3418,-3.3418,-3.3418,-3.3418,-3.3418,-3.3418,-3.3418,-3.3428,-3.3779,-3.4346,-3.4297,-3.4531,-3.458,-3.4473,-3.4111,-3.3848,-3.3613,-3.3486,-3.3418,-3.3418,-3.3457,-3.3418,-3.3418,-3.3418,-3.3418,-3.3418,-3.3418,-3.3418,-3.3418,-3.3418,-3.3418,-3.3418,-3.3418,-3.3418,-3.3418,-3.3418,-3.3418,-3.3418,-3.3418,-3.3418,-3.3418,-3.3418,-3.3359,-3.333,-3.3281,-3.3252,-3.3144,-3.3115,-3.3125,-3.3018,-3.2988,-3.2988,-3.2969,-3.2969,-3.3027,-3.3057,-3.3105,-3.2939,-3.2471,-3.2217,-3.2217,-3.2217,-3.2226,-3.2314,-3.2617,-3.2861,-3.3018,-3.3154,-3.3008,-3.2861,-3.2383,-3.1885,-3.1543,-3.1191,-3.1045,-3.0996,-3.0957,-3.0898,-3.0898,-3.0898,-3.0908,-3.0976,-3.0996,-3.1006,-3.0996,-3.0908,-3.0898,-3.0898,-3.0898,-3.0898,-3.0898,-3.0898,-3.0898,-3.0879,-3.0537,-3.0205,-3.0205,-3.0254,-3.0488,-3.0905,-3.1697,-3.2633,-3.3572,-3.4224,-3.4836,-3.4935,-3.4378,-3.3984,-3.3418,-3.3418,-3.3418,-3.3418,-3.3418,-3.3418,-3.3418,-3.3418,-3.3418,-3.3418,-3.3418,-3.3418,-3.3418,-3.3418,-3.3428,-3.3896,-3.4541,-3.4463,-3.4775,-3.499,-3.4912,-3.4453,-3.4131,-3.3857,-3.3799,-3.3711,-3.3691,-3.3672,-3.3486,-3.3418,-3.3418,-3.3418,-3.3418,-3.3418,-3.3418,-3.3418,-3.3418,-3.3418,-3.3418,-3.3418,-3.3418,-3.3418,-3.3418,-3.3418,-3.3418,-3.3418,-3.3418,-3.3418,-3.3418,-3.3418,-3.3389,-3.3389,-3.3379,-3.335,-3.3379,-3.3379,-3.3359,-3.3418,-3.3418,-3.3418,-3.3418,-3.3418,-3.3418,-3.3301,-3.3301,-3.2891,-3.2871,-3.2871,-3.2871,-3.2881,-3.2881,-3.3105,-3.3144,-3.3252,-3.3301,-3.3232,-3.3047,-3.2734,-3.2432,-3.2246,-3.1914,-3.165,-3.1621,-3.1631,-3.1592,-3.1582,-3.1484,-3.1406,-3.1387,-3.1133,-3.1123,-3.1064,-3.0976,-3.0908,-3.0898,-3.0898,-3.0898,-3.0898,-3.0898,-3.0752,-3.0635,-3.041,-3.0205,-3.0254,-3.0332,-3.0449,-3.0971,-3.1602,-3.217,-3.3016,-3.3663,-3.4181,-3.4195,-3.4076,-3.3539,-3.3418,-3.3418,-3.3418,-3.3418,-3.3418,-3.3418,-3.3418,-3.3418,-3.3418,-3.3418,-3.3418,-3.3418,-3.3418,-3.3418,-3.3457,-3.4053,-3.4453,-3.457,-3.4961,-3.5361,-3.5371,-3.4941,-3.4541,-3.4219,-3.417,-3.4101,-3.4043,-3.3818,-3.3584,-3.3496,-3.3418,-3.3418,-3.3418,-3.3418,-3.3418,-3.3418,-3.3418,-3.3418,-3.3418,-3.3418,-3.3418,-3.3418,-3.3418,-3.3418,-3.3418,-3.3418,-3.3418,-3.3418,-3.3418,-3.3418,-3.3418,-3.3418,-3.3418,-3.3418,-3.3418,-3.3418,-3.3418,-3.3418,-3.3418,-3.3418,-3.3418,-3.3418,-3.3418,-3.3408,-3.3408,-3.3389,-3.3369,-3.3359,-3.3359,-3.3359,-3.3359,-3.3359,-3.3379,-3.3389,-3.3408,-3.3418,-3.3223,-3.3008,-3.2871,-3.2744,-3.248,-3.2178,-3.2139,-3.2229,-3.2238,-3.2187,-3.2187,-3.2229,-3.2021,-3.1582,-3.1338,-3.1201,-3.1055,-3.0986,-3.0908,-3.0898,-3.0898,-3.0898,-3.0859,-3.0635,-3.0469,-3.0478,-3.0449,-3.0381,-3.0459,-3.0586,-3.0857,-3.1353,-3.195,-3.2514,-3.2882,-3.3318,-3.329,-3.3151,-3.2696,-3.3418,-3.3418,-3.3418,-3.3418,-3.3418,-3.3418,-3.3418,-3.3418,-3.3418,-3.3418,-3.3418,-3.3418,-3.3418,-3.3418,-3.3418,-3.3887,-3.46,-3.4736,-3.5273,-3.5791,-3.5586,-3.5322,-3.5039,-3.4678,-3.46,-3.4473,-3.4307,-3.4053,-3.3916,-3.3643,-3.3457,-3.3516,-3.3486,-3.3476,-3.3403,-3.3486,-3.3545,-3.3525,-3.3486,-3.3486,-3.3418,-3.3418,-3.3418,-3.3418,-3.3418,-3.3418,-3.3418,-3.3418,-3.3418,-3.3418,-3.3418,-3.3418,-3.3418,-3.3418,-3.3418,-3.3418,-3.3418,-3.3418,-3.3418,-3.3418,-3.3418,-3.3418,-3.3418,-3.3418,-3.3408,-3.3408,-3.3398,-3.3398,-3.3398,-3.3398,-3.3398,-3.3398,-3.3408,-3.3408,-3.3418,-3.3418,-3.332,-3.3086,-3.2891,-3.2744,-3.2568,-3.2393,-3.2314,-3.2324,-3.2334,-3.2344,-3.2353,-3.2344,-3.2363,-3.1973,-3.1592,-3.1445,-3.1289,-3.0996,-3.0898,-3.0898,-3.0898,-3.0898,-3.0879,-3.0752,-3.0703,-3.0791,-3.0752,-3.0625,-3.0664,-3.0791,-3.1054,-3.1218,-3.145,-3.1903,-3.218,-3.2401,-3.2388,-3.2149,-3.1661]},{"header":{"parameterUnit":"m.s-1","parameterCategory":1,"la1":31.0,"la2":29.5877,"lo1":-88.7671,"lo2":-86.6584,"dy":0.0162,"dx":0.0185,"nx":115,"ny":88,"refTime":"2026-03-31T12:00:00:Z","depth":0,"parameterNumber":3,"parameterNumberName":"V-component_of_WINDS"},"data":[0.0,0.0,0.0,0.0,0.0,0.0,0.0,0.0,0.0,0.0,0.0,0.0,0.0,0.0,0.0,0.0,0.0,0.0,0.0,0.0,0.0,0.0,0.0,0.0,0.0,0.0,0.0,0.0,0.0,0.0,0.0,0.0,0.0,0.0,0.0,0.0,0.0,0.0,0.0,0.0,0.0,0.0,0.0,0.0,0.0,0.0,0.0,0.0,0.0,0.0,0.0,0.0,0.0,0.0,0.0,0.0,0.0,0.0,0.0,0.0,0.0,0.0,0.0,0.0,0.0,0.0,0.0,0.0,0.0,0.0,0.0,0.0,0.0,0.0,0.0,0.0,0.0,0.0,0.0,0.0,0.0,0.0,0.0,0.0,0.0,0.0,0.0,0.0,0.0,0.0,0.0,0.0,0.0,0.0,0.0,0.0,0.0,0.0,0.0,0.0,0.0,0.0,0.0,0.0,0.0,0.0,0.0,0.0,0.0,0.0,0.0,0.0,0.0,0.0,0.0,0.0,0.0,0.0,0.0,0.0,0.0,0.0,0.0,0.0,0.0,0.0,0.0,0.0,0.0,0.0,0.0,0.0,0.0,0.0,0.0,0.0,0.0,0.0,0.0,0.0,0.0,0.0,0.0,0.0,0.0,0.0,0.0,0.0,0.0,0.0,0.0,0.0,0.0,0.0,0.0,0.0,0.0,0.0,0.0,0.0,0.0,0.0,0.0,0.0,0.0,0.0,0.0,0.0,0.0,0.0,0.0,0.0,0.0,0.0,0.0,0.0,0.0,0.0,0.0,0.0,0.0,0.0,0.0,0.0,0.0,0.0,0.0,0.0,0.0,0.0,0.0,0.0,0.0,0.0,0.0,0.0,0.0,0.0,0.0,0.0,0.0,0.0,0.0,0.0,0.0,0.0,0.0,0.0,0.0,0.0,0.0,0.0,0.0,0.0,0.0,0.0,0.0,0.0,0.0,0.0,0.0,0.0,0.0,0.0,0.0,0.0,0.0,0.0,0.0,0.0,0.0,0.0,0.0,0.0,0.0,0.0,0.0,0.0,0.0,0.0,0.0,0.0,0.0,0.0,0.0,0.0,0.0,0.0,0.0,0.0,0.0,0.0,0.0,0.0,0.0,0.0,0.0,0.0,0.0,0.0,0.0,0.0,0.0,0.0,0.0,0.0,0.0,0.0,0.0,0.0,0.0,0.0,0.0,0.0,0.0,0.0,0.0,0.0,0.0,0.0,0.0,0.0,0.0,0.0,0.0,0.0,0.0,0.0,0.0,0.0,0.0,0.0,0.0,0.0,0.0,0.0,0.0,0.0,0.0,0.0,0.0,0.0,0.0,0.0,0.0,0.0,0.0,0.0,0.0,0.0,0.0,0.0,0.0,0.0,0.0,0.0,0.0,0.0,0.0,0.0,0.0,0.0,0.0,0.0,0.0,0.0,0.0,0.0,0.0,0.0,0.0,0.0,0.0,0.0,0.0,0.0,0.0,0.0,0.0,0.0,0.0,0.0,0.0,0.0,0.0,0.0,0.0,0.0,0.0,0.0,0.0,0.0,0.0,0.0,0.0,0.0,0.0,0.0,0.0,0.0,0.0,0.0,0.0,0.0,0.0,0.0,0.0,0.0,0.0,0.0,0.0,0.0,0.0,0.0,0.0,0.0,0.0,0.0,0.0,0.0,0.0,0.0,0.0,0.0,0.0,0.0,0.0,0.0,0.0,0.0,0.0,0.0,0.0,0.0,0.0,0.0,0.0,0.0,0.0,0.0,0.0,0.0,0.0,0.0,0.0,0.0,0.0,0.0,0.0,0.0,0.0,0.0,0.0,0.0,0.0,0.0,0.0,0.0,0.0,0.0,0.0,0.0,0.0,0.0,0.0,0.0,0.0,0.0,0.0,0.0,0.0,0.0,0.0,0.0,0.0,0.0,0.0,0.0,0.0,0.0,0.0,0.0,0.0,0.0,0.0,0.0,0.0,0.0,0.0,0.0,0.0,0.0,0.0,0.0,0.0,0.0,0.0,0.0,0.0,0.0,0.0,0.0,0.0,0.0,0.0,0.0,0.0,0.0,0.0,0.0,0.0,0.0,0.0,0.0,0.0,0.0,0.0,0.0,0.0,0.0,0.0,0.0,0.0,0.0,0.0,0.0,0.0,0.0,0.0,0.0,0.0,0.0,0.0,0.0,0.0,0.0,0.0,0.0,0.0,0.0,0.0,0.0,0.0,0.0,0.0,0.0,0.0,0.0,0.0,0.0,0.0,0.0,0.0,0.0,0.0,0.0,0.0,0.0,0.0,0.0,0.0,0.0,0.0,0.0,0.0,0.0,0.0,0.0,0.0,0.0,0.0,0.0,0.0,0.0,0.0,0.0,0.0,0.0,0.0,0.0,0.0,0.0,0.0,0.0,0.0,0.0,0.0,0.0,0.0,0.0,0.0,0.0,0.0,0.0,0.0,0.0,0.0,0.0,0.0,0.0,0.0,0.0,0.0,0.0,0.0,0.0,0.0,0.0,0.0,0.0,0.0,0.0,0.0,0.0,0.0,0.0,0.0,0.0,0.0,0.0,0.0,0.0,0.0,0.0,0.0,0.0,0.0,0.0,0.0,0.0,0.0,0.0,0.0,0.0,0.0,0.0,0.0,0.0,0.0,0.0,0.0,0.0,0.0,0.0,0.0,0.0,0.0,0.0,0.0,0.0,0.0,0.0,0.0,0.0,0.0,0.0,0.0,0.0,0.0,0.0,0.0,0.0,0.0,0.0,0.0,0.0,0.0,0.0,0.0,0.0,0.0,0.0,0.0,0.0,0.0,0.0,0.0,0.0,0.0,0.0,0.0,0.0,0.0,0.0,0.0,0.0,0.0,0.0,0.0,0.0,0.0,0.0,0.0,0.0,0.0,0.0,0.0,0.0,0.0,0.0,0.0,0.0,0.0,0.0,0.0,0.0,0.0,0.0,0.0,0.0,0.0,0.0,0.0,0.0,0.0,0.0,0.0,0.0,0.0,0.0,0.0,0.0,0.0,0.0,0.0,0.0,0.0,0.0,0.0,0.0,0.0,0.0,0.0,0.0,0.0,0.0,0.0,0.0,0.0,0.0,0.0,0.0,0.0,0.0,0.0,0.0,0.0,0.0,0.0,0.0,0.0,0.0,0.0,0.0,0.0,0.0,0.0,0.0,0.0,0.0,0.0,0.0,0.0,0.0,0.0,0.0,0.0,0.0,0.0,0.0,0.0,0.0,0.0,0.0,0.0,0.0,0.0,0.0,0.0,0.0,0.0,0.0,0.0,0.0,0.0,0.0,0.0,0.0,0.0,0.0,0.0,0.0,0.0,0.0,0.0,0.0,0.0,0.0,0.0,0.0,0.0,0.0,0.0,0.0,0.0,0.0,0.0,0.0,0.0,0.0,0.0,0.0,0.0,0.0,0.0,0.0,0.0,0.0,0.0,0.0,0.0,0.0,0.0,0.0,0.0,0.0,0.0,0.0,0.0,0.0,0.0,0.0,0.0,0.0,0.0,0.0,0.0,0.0,0.0,0.0,0.0,0.0,0.0,0.0,0.0,0.0,0.0,0.0,0.0,0.0,0.0,0.0,0.0,0.0,0.0,0.0,0.0,0.0,0.0,0.0,0.0,0.0,0.0,0.0,0.0,0.0,0.0,0.0,0.0,0.0,0.0,0.0,0.0,0.0,0.0,0.0,0.0,0.0,0.0,0.0,0.0,0.0,0.0,0.0,0.0,0.0,0.0,0.0,0.0,0.0,0.0,0.0,0.0,0.0,0.0,0.0,0.0,0.0,0.0,0.0,0.0,0.0,0.0,0.0,0.0,0.0,0.0,0.0,0.0,0.0,0.0,0.0,0.0,0.0,0.0,0.0,0.0,0.0,0.0,0.0,0.0,0.0,0.0,0.0,0.0,0.0,0.0,0.0,0.0,0.0,0.0,0.0,0.0,0.0,0.0,0.0,0.0,0.0,0.0,0.0,0.0,0.0,0.0,0.0,0.0,0.0,0.0,0.0,0.0,0.0,0.0,0.0,0.0,0.0,0.0,0.0,0.0,0.0,0.0,0.0,0.0,0.0,0.0,0.0,0.0,0.0,0.0,0.0,0.0,0.0,0.0,0.0,0.0,0.0,0.0,0.0,0.0,0.0,0.0,0.0,0.0,0.0,0.0,0.0,0.0,0.0,0.0,0.0,0.0,0.0,0.0,0.0,0.0,0.0,0.0,0.0,0.0,0.0,0.0,0.0,0.0,0.0,0.0,0.0,0.0,0.0,1.5423,0.0,0.0,0.0,0.0,0.0,0.0,0.0,0.0,0.0,0.0,0.0,0.0,0.0,0.0,0.0,0.0,0.0,0.0,0.0,0.0,0.0,0.0,0.0,0.0,0.0,0.0,0.0,0.0,0.0,0.0,0.0,0.0,0.0,0.0,0.0,0.0,0.0,0.0,0.0,0.0,0.0,0.0,0.0,0.0,0.0,0.0,0.0,0.0,0.0,0.0,0.0,0.0,0.0,0.0,0.0,0.0,0.0,0.0,0.0,0.0,0.0,0.0,0.0,0.0,0.0,0.0,0.0,0.0,0.0,0.0,0.0,0.0,0.0,0.0,0.0,0.0,0.0,0.0,0.0,0.0,0.0,0.0,0.0,0.0,0.0,0.0,0.0,0.0,0.0,0.0,0.0,0.0,0.0,0.0,0.0,0.0,0.0,0.0,0.0,0.0,0.0,0.0,0.0,0.0,0.0,0.0,0.0,0.0,0.0,0.0,1.758,1.7557,1.6604,1.6083,1.6085,0.0,0.0,0.0,0.0,0.0,0.0,0.0,0.0,0.0,0.0,0.0,0.0,0.0,0.0,0.0,0.0,0.0,0.0,0.0,0.0,0.0,0.0,0.0,0.0,0.0,0.0,0.0,0.0,0.0,0.0,0.0,0.0,0.0,0.0,0.0,0.0,0.0,0.0,0.0,0.0,0.0,0.0,0.0,0.0,0.0,0.0,0.0,0.0,0.0,0.0,0.0,0.0,0.0,0.0,0.0,0.0,0.0,0.0,0.0,0.0,0.0,0.0,0.0,0.0,0.0,0.0,0.0,0.0,0.0,0.0,0.0,0.0,0.0,0.0,0.0,0.0,0.0,0.0,0.0,0.0,0.0,0.0,0.0,0.0,0.0,0.0,0.0,0.0,0.0,0.0,0.0,0.0,0.0,0.0,0.0,0.0,0.0,0.0,0.0,0.0,0.0,0.0,0.0,0.0,0.0,0.0,0.0,0.0,0.0,0.0,0.0,0.0,1.7344,1.6756,1.6525,0.0,0.0,0.0,0.0,0.0,0.0,0.0,0.0,0.0,0.0,0.0,0.0,0.0,0.0,0.0,0.0,0.0,0.0,0.0,0.0,0.0,0.0,0.0,0.0,0.0,0.0,0.0,0.0,0.0,0.0,0.0,0.0,0.0,0.0,0.0,0.0,0.0,0.0,0.0,0.0,0.0,0.0,0.0,0.0,0.0,0.0,0.0,0.0,0.0,0.0,0.0,0.0,0.0,0.0,0.0,0.0,0.0,0.0,0.0,0.0,0.0,0.0,0.0,0.0,0.0,0.0,0.0,0.0,0.0,0.0,0.0,0.0,0.0,0.0,0.0,0.0,0.0,0.0,0.0,0.0,0.0,0.0,0.0,0.0,0.0,0.0,0.0,0.0,0.0,0.0,0.0,0.0,0.0,0.0,0.0,0.0,0.0,0.0,0.0,0.0,0.0,0.0,0.0,0.0,0.0,0.0,0.0,0.0,0.0,0.0,1.856,1.8548,1.7981,0.0,1.6373,0.0,0.0,0.0,0.0,0.0,0.0,0.0,0.0,0.0,0.0,0.0,0.0,0.0,0.0,0.0,0.0,0.0,0.0,0.0,0.0,0.0,0.0,0.0,0.0,0.0,0.0,0.0,0.0,0.0,0.0,0.0,0.0,0.0,0.0,0.0,0.0,0.0,0.0,0.0,0.0,0.0,0.0,0.0,0.0,0.0,0.0,0.0,0.0,0.0,0.0,0.0,0.0,0.0,0.0,0.0,0.0,0.0,0.0,0.0,0.0,0.0,0.0,0.0,0.0,0.0,0.0,0.0,0.0,0.0,0.0,0.0,0.0,0.0,0.0,0.0,0.0,0.0,0.0,0.0,0.0,0.0,0.0,0.0,0.0,0.0,0.0,0.0,0.0,0.0,0.0,0.0,0.0,0.0,0.0,0.0,0.0,0.0,0.0,0.0,0.0,0.0,0.0,0.0,0.0,0.0,0.0,0.0,0.0,0.0,0.0,1.932,1.932,1.8482,1.7539,0.0,0.0,0.0,0.0,0.0,0.0,0.0,0.0,0.0,0.0,0.0,0.0,0.0,0.0,0.0,0.0,0.0,0.0,0.0,0.0,0.0,0.0,0.0,0.0,0.0,0.0,0.0,0.0,0.0,0.0,0.0,0.0,0.0,0.0,0.0,0.0,0.0,0.0,0.0,0.0,0.0,0.0,0.0,0.0,0.0,0.0,0.0,0.0,0.0,0.0,0.0,0.0,0.0,0.0,0.0,0.0,0.0,0.0,0.0,0.0,0.0,0.0,0.0,0.0,0.0,0.0,0.0,0.0,0.0,0.0,0.0,0.0,0.0,0.0,0.0,0.0,0.0,0.0,0.0,0.0,0.0,0.0,0.0,0.0,0.0,0.0,0.0,0.0,0.0,0.0,0.0,0.0,0.0,0.0,0.0,0.0,0.0,0.0,0.0,0.0,0.0,0.0,0.0,0.0,0.0,0.0,0.0,0.0,0.0,0.0,1.9071,0.0,1.957,1.8645,1.7726,1.6941,0.0,0.0,0.0,0.0,0.0,0.0,0.0,0.0,0.0,0.0,0.0,0.0,0.0,0.0,0.0,0.0,0.0,0.0,0.0,0.0,0.0,0.0,0.0,0.0,0.0,0.0,0.0,0.0,0.0,0.0,0.0,0.0,0.0,0.0,0.0,0.0,0.0,0.0,0.0,0.0,0.0,0.0,0.0,0.0,0.0,0.0,0.0,0.0,0.0,0.0,0.0,0.0,0.0,0.0,0.0,0.0,0.0,0.0,0.0,0.0,0.0,0.0,0.0,0.0,0.0,0.0,0.0,0.0,0.0,0.0,0.0,0.0,0.0,0.0,0.0,0.0,0.0,0.0,0.0,0.0,0.0,0.0,0.0,0.0,0.0,0.0,0.0,0.0,0.0,0.0,0.0,0.0,0.0,0.0,0.0,0.0,0.0,0.0,0.0,0.0,0.0,0.0,0.0,0.0,0.0,0.0,0.0,0.0,0.0,1.8025,1.8582,1.9196,1.8313,1.7786,0.0,0.0,0.0,0.0,0.0,0.0,0.0,0.0,0.0,0.0,0.0,0.0,0.0,0.0,0.0,0.0,0.0,0.0,0.0,0.0,0.0,0.0,0.0,0.0,0.0,0.0,0.0,0.0,0.0,0.0,0.0,0.0,0.0,0.0,0.0,0.0,0.0,0.0,0.0,0.0,0.0,0.0,0.0,0.0,0.0,0.0,0.0,0.0,0.0,0.0,0.0,0.0,0.0,0.0,0.0,0.0,0.0,0.0,0.0,0.0,0.0,0.0,0.0,0.0,0.0,0.0,0.0,0.0,0.0,0.0,0.0,0.0,0.0,0.0,0.0,0.0,0.0,0.0,0.0,0.0,0.0,0.0,0.0,0.0,0.0,0.0,0.0,0.0,0.0,0.0,0.0,0.0,0.0,0.0,0.0,0.0,0.0,0.0,0.0,0.0,0.0,0.0,0.0,0.0,0.0,0.0,0.0,0.0,0.0,1.7436,1.8128,1.867,1.8982,1.8098,1.7453,0.0,0.0,0.0,0.0,0.0,0.0,0.0,0.0,0.0,0.0,0.0,0.0,0.0,0.0,0.0,0.0,0.0,0.0,0.0,0.0,0.0,0.0,0.0,0.0,0.0,0.0,0.0,0.0,0.0,0.0,0.0,0.0,0.0,0.0,0.0,0.0,0.0,0.0,0.0,0.0,0.0,0.0,0.0,0.0,0.0,0.0,0.0,0.0,0.0,0.0,0.0,0.0,0.0,0.0,0.0,0.0,0.0,0.0,0.0,0.0,0.0,0.0,0.0,0.0,0.0,0.0,0.0,0.0,0.0,0.0,0.0,0.0,0.0,0.0,0.0,0.0,0.0,0.0,0.0,0.0,0.0,0.0,0.0,0.0,0.0,0.0,0.0,0.0,0.0,0.0,0.0,0.0,0.0,0.0,0.0,0.0,0.0,0.0,0.0,0.0,0.0,0.0,0.0,0.0,0.0,0.0,0.0,0.0,0.0,1.7666,0.0,1.8945,0.0,1.8372,1.7718,0.0,0.0,0.0,0.0,0.0,0.0,0.0,0.0,0.0,0.0,0.0,0.0,0.0,0.0,0.0,0.0,0.0,0.0,0.0,0.0,0.0,0.0,0.0,0.0,0.0,0.0,0.0,0.0,0.0,0.0,0.0,0.0,0.0,0.0,0.0,0.0,0.0,0.0,0.0,0.0,0.0,0.0,0.0,0.0,0.0,0.0,0.0,0.0,0.0,0.0,0.0,0.0,0.0,0.0,0.0,0.0,0.0,0.0,0.0,0.0,0.0,0.0,0.0,0.0,0.0,0.0,0.0,0.0,0.0,0.0,0.0,0.0,0.0,0.0,0.0,0.0,0.0,0.0,0.0,0.0,0.0,0.0,0.0,0.0,0.0,0.0,0.0,0.0,0.0,0.0,0.0,0.0,0.0,0.0,0.0,0.0,0.0,0.0,0.0,0.0,0.0,0.0,0.0,0.0,0.0,0.0,0.0,0.0,1.6786,1.8188,1.8913,1.9338,1.9495,1.9079,1.8575,0.0,0.0,0.0,0.0,0.0,0.0,0.0,0.0,0.0,0.0,0.0,0.0,0.0,0.0,0.0,0.0,0.0,0.0,0.0,0.0,0.0,0.0,0.0,0.0,0.0,0.0,0.0,0.0,0.0,0.0,0.0,0.0,0.0,0.0,0.0,0.0,0.0,0.0,0.0,0.0,0.0,0.0,0.0,0.0,0.0,0.0,0.0,0.0,0.0,0.0,0.0,0.0,0.0,0.0,0.0,0.0,0.0,0.0,0.0,0.0,0.0,0.0,0.0,0.0,0.0,0.0,0.0,0.0,0.0,0.0,0.0,0.0,0.0,0.0,0.0,0.0,0.0,0.0,0.0,0.0,0.0,0.0,0.0,0.0,0.0,0.0,0.0,0.0,0.0,0.0,0.0,0.0,0.0,0.0,0.0,0.0,0.0,0.0,0.0,0.0,0.0,0.0,0.0,0.0,0.0,0.0,0.0,0.0,0.0,1.9225,1.9986,2.025,1.9988,1.9239,1.8559,0.0,0.0,0.0,0.0,0.0,0.0,0.0,0.0,0.0,0.0,0.0,0.0,0.0,0.0,0.0,0.0,0.0,0.0,0.0,0.0,0.0,0.0,0.0,0.0,0.0,0.0,0.0,0.0,0.0,0.0,0.0,0.0,0.0,0.0,0.0,0.0,0.0,0.0,0.0,0.0,0.0,0.0,0.0,0.0,0.0,0.0,0.0,0.0,0.0,0.0,0.0,0.0,0.0,0.0,0.0,0.0,0.0,0.0,0.0,0.0,0.0,0.0,0.0,0.0,0.0,0.0,0.0,0.0,0.0,0.0,0.0,0.0,0.0,0.0,0.0,0.0,0.0,0.0,0.0,0.0,0.0,0.0,0.0,0.0,0.0,0.0,0.0,0.0,0.0,0.0,0.0,0.0,0.0,0.0,0.0,0.0,0.0,0.0,0.0,0.0,0.0,0.0,0.0,0.0,0.0,0.0,0.0,0.0,0.0,2.2007,2.2405,2.2191,2.1327,2.0755,1.9858,1.8623,0.0,0.0,0.0,0.0,0.0,0.0,0.0,0.0,0.0,0.0,0.0,0.0,0.0,0.0,0.0,0.0,0.0,0.0,0.0,0.0,0.0,0.0,0.0,0.0,0.0,0.0,0.0,0.0,0.0,0.0,0.0,0.0,0.0,0.0,0.0,0.0,0.0,0.0,0.0,0.0,0.0,0.0,0.0,0.0,0.0,0.0,0.0,0.0,0.0,0.0,0.0,0.0,0.0,0.0,0.0,0.0,0.0,0.0,0.0,0.0,0.0,0.0,0.0,0.0,0.0,0.0,0.0,0.0,0.0,0.0,0.0,0.0,0.0,0.0,0.0,0.0,0.0,0.0,0.0,0.0,0.0,0.0,0.0,0.0,0.0,0.0,0.0,0.0,0.0,0.0,0.0,0.0,0.0,0.0,0.0,0.0,0.0,0.0,0.0,0.0,0.0,0.0,0.0,0.0,0.0,0.0,0.0,0.0,2.6093,2.6018,2.5154,2.3459,2.3337,2.2249,0.0,0.0,0.0,0.0,0.0,0.0,0.0,0.0,0.0,0.0,0.0,0.0,0.0,0.0,0.0,0.0,0.0,0.0,0.0,0.0,0.0,0.0,0.0,0.0,0.0,0.0,0.0,0.0,0.0,0.0,0.0,0.0,0.0,0.0,0.0,0.0,0.0,0.0,0.0,0.0,0.0,0.0,0.0,0.0,0.0,0.0,0.0,0.0,0.0,0.0,0.0,0.0,0.0,0.0,0.0,0.0,0.0,0.0,0.0,0.0,0.0,0.0,0.0,0.0,0.0,0.0,0.0,0.0,0.0,0.0,0.0,0.0,0.0,0.0,0.0,0.0,0.0,0.0,0.0,0.0,0.0,0.0,0.0,0.0,0.0,0.0,0.0,0.0,0.0,0.0,0.0,0.0,0.0,0.0,0.0,0.0,0.0,0.0,0.0,0.0,0.0,0.0,0.0,0.0,0.0,0.0,0.0,0.0,0.0,2.8907,3.0677,2.9728,2.6036,2.5018,2.3674,0.0,0.0,0.0,0.0,0.0,0.0,0.0,0.0,0.0,0.0,0.0,0.0,0.0,0.0,0.0,0.0,0.0,0.0,0.0,0.0,0.0,0.0,0.0,0.0,0.0,0.0,0.0,0.0,0.0,0.0,0.0,0.0,0.0,0.0,0.0,0.0,0.0,0.0,0.0,0.0,0.0,0.0,0.0,0.0,0.0,0.0,0.0,0.0,0.0,0.0,0.0,0.0,0.0,0.0,0.0,0.0,0.0,0.0,0.0,0.0,0.0,0.0,0.0,0.0,0.0,0.0,0.0,0.0,0.0,0.0,0.0,0.0,0.0,0.0,0.0,0.0,0.0,0.0,0.0,0.0,0.0,0.0,0.0,0.0,0.0,0.0,0.0,0.0,0.0,0.0,0.0,0.0,0.0,0.0,0.0,0.0,0.0,0.0,0.0,0.0,0.0,0.0,0.0,0.0,0.0,0.0,0.0,0.0,2.7849,3.062,3.3322,3.3034,2.9619,2.7714,2.5559,0.0,0.0,0.0,0.0,0.0,0.0,0.0,0.0,0.0,0.0,0.0,0.0,0.0,0.0,0.0,0.0,0.0,0.0,0.0,0.0,0.0,0.0,0.0,0.0,0.0,0.0,0.0,0.0,0.0,0.0,0.0,0.0,0.0,0.0,0.0,0.0,0.0,0.0,0.0,0.0,0.0,0.0,0.0,0.0,0.0,0.0,0.0,0.0,0.0,0.0,0.0,0.0,0.0,0.0,0.0,0.0,0.0,0.0,0.0,0.0,0.0,0.0,0.0,0.0,0.0,0.0,0.0,0.0,0.0,0.0,0.0,0.0,0.0,0.0,0.0,0.0,0.0,0.0,0.0,0.0,0.0,0.0,0.0,0.0,0.0,0.0,0.0,0.0,0.0,0.0,0.0,0.0,0.0,0.0,0.0,0.0,0.0,0.0,0.0,0.0,0.0,0.0,0.0,0.0,0.0,0.0,0.0,0.0,2.9275,3.1613,3.4615,3.5254,3.3382,3.0745,2.7728,0.0,0.0,0.0,0.0,0.0,0.0,0.0,0.0,0.0,0.0,0.0,0.0,0.0,0.0,0.0,0.0,0.0,0.0,0.0,0.0,0.0,0.0,0.0,0.0,0.0,0.0,0.0,0.0,0.0,0.0,0.0,0.0,0.0,0.0,0.0,0.0,0.0,0.0,0.0,0.0,0.0,0.0,0.0,0.0,0.0,0.0,0.0,0.0,0.0,0.0,0.0,0.0,0.0,0.0,0.0,0.0,0.0,0.0,0.0,0.0,0.0,0.0,0.0,0.0,0.0,0.0,0.0,0.0,0.0,0.0,0.0,0.0,0.0,0.0,0.0,0.0,0.0,0.0,0.0,0.0,0.0,0.0,0.0,0.0,0.0,0.0,0.0,0.0,0.0,0.0,0.0,0.0,0.0,0.0,0.0,0.0,0.0,0.0,0.0,0.0,0.0,0.0,0.0,0.0,0.0,0.0,0.0,0.0,3.1044,3.2597,3.5203,3.5673,3.3821,3.1984,2.9501,0.0,0.0,0.0,0.0,0.0,0.0,0.0,0.0,0.0,0.0,0.0,0.0,0.0,0.0,0.0,0.0,0.0,0.0,0.0,0.0,0.0,0.0,0.0,0.0,0.0,0.0,0.0,0.0,0.0,0.0,0.0,0.0,0.0,0.0,0.0,0.0,0.0,0.0,0.0,0.0,0.0,0.0,0.0,0.0,0.0,0.0,0.0,0.0,1.6589,0.0,0.0,0.0,0.0,0.0,0.0,0.0,0.0,0.0,0.0,0.0,0.0,0.0,0.0,0.0,0.0,0.0,0.0,0.0,0.0,0.0,0.0,0.0,0.0,0.0,0.0,0.0,0.0,0.0,0.0,0.0,0.0,0.0,0.0,0.0,0.0,0.0,0.0,0.0,0.0,0.0,0.0,0.0,0.0,0.0,0.0,0.0,0.0,0.0,0.0,0.0,0.0,0.0,0.0,0.0,0.0,0.0,0.0,0.0,3.2008,3.359,3.6101,3.6648,3.5093,3.3914,3.1507,0.0,0.0,0.0,0.0,0.0,0.0,0.0,0.0,0.0,0.0,0.0,0.0,0.0,0.0,0.0,0.0,0.0,0.0,0.0,0.0,0.0,0.0,0.0,0.0,0.0,0.0,0.0,0.0,0.0,0.0,0.0,0.0,0.0,0.0,0.0,0.0,0.0,0.0,0.0,0.0,0.0,0.0,0.0,0.0,0.0,0.0,0.0,0.0,0.0,0.0,0.0,0.0,0.0,0.0,0.0,0.0,0.0,0.0,0.0,0.0,0.0,0.0,0.0,0.0,0.0,0.0,0.0,0.0,0.0,0.0,0.0,0.0,0.0,0.0,0.0,0.0,0.0,0.0,0.0,0.0,0.0,0.0,0.0,0.0,0.0,0.0,0.0,0.0,0.0,0.0,0.0,0.0,0.0,0.0,0.0,0.0,0.0,0.0,0.0,0.0,0.0,0.0,0.0,0.0,0.0,0.0,0.0,2.9552,3.2614,3.4269,3.6664,3.7346,3.6185,3.529,3.2793,2.8584,0.0,0.0,0.0,0.0,0.0,0.0,0.0,0.0,0.0,0.0,0.0,0.0,0.0,0.0,0.0,0.0,0.0,0.0,0.0,0.0,0.0,0.0,0.0,0.0,0.0,0.0,0.0,0.0,0.0,0.0,0.0,0.0,0.0,0.0,0.0,0.0,0.0,0.0,1.5051,1.6953,0.0,0.0,0.0,0.0,0.0,0.0,0.0,0.0,1.7345,0.0,0.0,0.0,0.0,0.0,0.0,0.0,0.0,0.0,0.0,0.0,0.0,0.0,0.0,0.0,0.0,0.0,0.0,0.0,0.0,0.0,0.0,0.0,0.0,0.0,0.0,0.0,0.0,0.0,0.0,0.0,0.0,0.0,0.0,0.0,0.0,0.0,0.0,0.0,0.0,0.0,0.0,0.0,0.0,0.0,0.0,0.0,0.0,0.0,0.0,0.0,0.0,0.0,0.0,0.0,0.0,2.646,3.0903,3.3344,3.3678,3.5575,3.6272,3.5537,3.3325,3.1277,2.9377,0.0,0.0,0.0,0.0,0.0,0.0,0.0,0.0,0.0,0.0,0.0,0.0,0.0,0.0,0.0,0.0,0.0,0.0,0.0,0.0,0.0,0.0,0.0,0.0,0.0,0.0,0.0,0.0,0.0,0.0,0.0,0.0,0.0,0.0,0.0,0.0,0.0,0.0,0.0,1.8695,1.9159,0.0,0.0,0.0,0.0,0.0,0.0,0.0,0.0,1.6963,0.0,0.0,0.0,0.0,0.0,0.0,0.0,0.0,0.0,0.0,0.0,0.0,0.0,0.0,0.0,0.0,0.0,0.0,0.0,0.0,0.0,0.0,0.0,0.0,0.0,0.0,0.0,0.0,0.0,0.0,0.0,0.0,0.0,0.0,0.0,0.0,0.0,0.0,0.0,0.0,0.0,0.0,0.0,0.0,0.0,0.0,0.0,0.0,0.0,0.0,0.0,0.0,0.0,0.0,0.0,2.6823,3.1222,3.3823,3.4491,3.6011,3.6359,3.5392,3.2861,3.0466,0.0,0.0,0.0,0.0,0.0,0.0,0.0,0.0,0.0,0.0,0.0,0.0,0.0,0.0,0.0,0.0,0.0,0.0,0.0,0.0,0.0,0.0,0.0,0.0,0.0,0.0,0.0,0.0,0.0,0.0,0.0,0.0,0.0,0.0,0.0,0.0,0.0,0.0,0.0,0.0,1.9478,2.0088,2.0103,0.0,0.0,0.0,0.0,0.0,0.0,1.7606,1.6982,0.0,0.0,0.0,0.0,0.0,0.0,0.0,0.0,0.0,0.0,0.0,0.0,0.0,0.0,0.0,0.0,0.0,0.0,0.0,0.0,0.0,0.0,0.0,0.0,0.0,0.0,0.0,0.0,0.0,0.0,0.0,0.0,0.0,0.0,0.0,0.0,0.0,0.0,0.0,0.0,0.0,0.0,0.0,0.0,0.0,0.0,0.0,0.0,0.0,0.0,0.0,0.0,0.0,0.0,0.0,2.6997,3.138,3.4244,3.5392,3.6504,3.6548,3.5392,3.2614,2.9769,0.0,0.0,0.0,0.0,0.0,0.0,0.0,0.0,0.0,0.0,0.0,0.0,0.0,0.0,0.0,0.0,0.0,0.0,0.0,0.0,0.0,0.0,0.0,0.0,0.0,0.0,0.0,0.0,0.0,0.0,0.0,0.0,0.0,0.0,0.0,0.0,0.0,0.0,0.0,0.0,0.0,2.1206,2.0741,2.109,0.0,0.0,0.0,0.0,1.8042,1.7734,0.0,0.0,0.0,0.0,0.0,0.0,0.0,0.0,0.0,0.0,0.0,0.0,0.0,0.0,0.0,0.0,0.0,0.0,0.0,0.0,0.0,0.0,0.0,0.0,0.0,0.0,0.0,0.0,0.0,0.0,0.0,0.0,0.0,0.0,0.0,0.0,0.0,0.0,0.0,0.0,0.0,0.0,0.0,0.0,0.0,0.0,0.0,0.0,0.0,0.0,0.0,0.0,0.0,0.0,0.0,0.0,2.7623,3.2019,3.4646,3.5392,3.6054,3.6083,3.5378,3.1787,2.8884,0.0,0.0,0.0,0.0,0.0,0.0,0.0,0.0,0.0,0.0,0.0,0.0,0.0,0.0,0.0,0.0,0.0,0.0,0.0,0.0,0.0,0.0,0.0,0.0,0.0,0.0,0.0,0.0,0.0,0.0,0.0,0.0,0.0,0.0,0.0,0.0,0.0,0.0,0.0,0.0,0.0,2.2656,2.2584,2.2649,2.2432,0.0,0.0,2.064,2.0567,1.9624,0.0,0.0,0.0,0.0,0.0,0.0,0.0,0.0,0.0,0.0,0.0,0.0,0.0,0.0,0.0,0.0,0.0,0.0,0.0,0.0,0.0,0.0,0.0,0.0,0.0,0.0,0.0,0.0,0.0,0.0,0.0,0.0,0.0,0.0,0.0,0.0,0.0,0.0,0.0,0.0,0.0,0.0,0.0,0.0,0.0,0.0,0.0,0.0,0.0,0.0,0.0,0.0,0.0,0.0,0.0,2.4776,2.826,3.2404,3.4947,3.5865,3.6291,3.5977,3.4957,3.1288,2.8084,0.0,0.0,0.0,0.0,0.0,0.0,0.0,0.0,0.0,0.0,0.0,0.0,0.0,0.0,0.0,0.0,0.0,0.0,0.0,0.0,0.0,0.0,0.0,0.0,0.0,0.0,0.0,0.0,0.0,0.0,0.0,0.0,0.0,0.0,0.0,0.0,0.0,0.0,0.0,0.0,0.0,0.0,2.3647,2.4013,0.0,0.0,0.0,2.2175,2.1838,0.0,0.0,0.0,0.0,0.0,0.0,0.0,0.0,0.0,0.0,0.0,0.0,0.0,0.0,0.0,0.0,0.0,0.0,0.0,0.0,0.0,0.0,0.0,0.0,0.0,0.0,0.0,0.0,0.0,0.0,0.0,0.0,0.0,0.0,0.0,0.0,0.0,0.0,0.0,0.0,0.0,0.0,0.0,0.0,0.0,0.0,0.0,0.0,0.0,0.0,0.0,0.0,0.0,0.0,0.0,0.0,0.0,2.8792,3.2616,3.5127,3.6166,3.6456,3.5912,3.4453,3.1146,0.0,0.0,0.0,0.0,0.0,0.0,0.0,0.0,0.0,0.0,0.0,0.0,0.0,0.0,0.0,0.0,0.0,0.0,0.0,0.0,0.0,0.0,0.0,0.0,0.0,0.0,0.0,1.2261,0.0,0.0,0.0,0.0,0.0,0.0,0.0,0.0,0.0,0.0,0.0,0.0,0.0,0.0,2.3733,2.4908,2.5475,2.5475,0.0,0.0,2.3873,2.3437,2.2928,2.1999,0.0,0.0,0.0,0.0,0.0,0.0,0.0,0.0,0.0,0.0,0.0,0.0,0.0,0.0,0.0,0.0,0.0,0.0,0.0,0.0,0.0,0.0,0.0,0.0,0.0,0.0,0.0,0.0,0.0,0.0,0.0,0.0,0.0,0.0,0.0,0.0,0.0,0.0,0.0,0.0,0.0,0.0,0.0,0.0,0.0,0.0,0.0,0.0,0.0,0.0,0.0,0.0,0.0,0.0,0.0,2.9013,3.2725,3.5024,3.5918,3.6362,3.5776,3.4065,3.1456,2.8801,0.0,0.0,0.0,0.0,0.0,0.0,0.0,0.0,0.0,0.0,0.0,0.0,0.0,0.0,0.0,0.0,0.0,0.0,0.0,0.0,0.0,0.0,0.0,0.0,0.0,0.0,0.0,0.0,0.0,0.0,0.0,0.0,0.0,0.0,0.0,0.0,0.0,0.0,0.0,0.0,0.0,2.4296,2.6847,2.7132,2.7251,0.0,0.0,2.6002,2.5938,2.4412,2.2795,2.1462,0.0,0.0,0.0,0.0,0.0,0.0,0.0,0.0,0.0,0.0,0.0,0.0,0.0,0.0,0.0,0.0,0.0,0.0,0.0,0.0,0.0,0.0,0.0,0.0,0.0,0.0,0.0,0.0,0.0,0.0,0.0,0.0,0.0,0.0,0.0,0.0,0.0,0.0,0.0,0.0,0.0,0.0,0.0,0.0,0.0,0.0,0.0,0.0,0.0,0.0,0.0,0.0,0.0,2.5677,2.9083,3.3374,3.5676,3.5908,3.6576,3.6035,3.415,3.2481,2.9967,0.0,0.0,0.0,0.0,0.0,0.0,0.0,0.0,0.0,0.0,0.0,0.0,0.0,0.0,0.0,0.0,0.0,0.0,0.0,0.0,0.0,0.0,0.0,0.0,0.0,0.0,0.0,0.0,1.4463,1.4907,1.6033,0.0,0.0,0.0,0.0,0.0,0.0,0.0,0.0,0.0,0.0,2.5781,2.7519,2.7949,0.0,0.0,2.7061,2.6455,2.6465,2.5131,2.3517,2.1858,1.951,0.0,0.0,0.0,0.0,0.0,0.0,0.0,0.0,0.0,0.0,0.0,0.0,0.0,0.0,0.0,0.0,0.0,0.0,0.0,0.0,0.0,0.0,0.0,0.0,0.0,0.0,0.0,0.0,0.0,0.0,0.0,0.0,0.0,0.0,0.0,0.0,0.0,0.0,0.0,0.0,0.0,0.0,0.0,0.0,0.0,0.0,0.0,0.0,0.0,0.0,0.0,0.0,2.6139,2.9487,3.3726,3.5896,3.5833,3.6539,3.6116,3.4468,3.3456,3.1262,0.0,0.0,0.0,0.0,0.0,0.0,0.0,0.0,0.0,0.0,0.0,0.0,0.0,0.0,0.0,0.0,0.0,0.0,0.0,0.0,0.0,0.0,0.0,0.0,0.0,0.0,0.0,0.0,1.6072,1.6348,1.7332,0.0,0.0,0.0,0.0,0.0,0.0,0.0,0.0,0.0,0.0,2.6934,2.8498,2.8722,2.8752,2.8884,2.7961,2.726,2.726,2.5937,2.4171,2.2039,0.0,0.0,0.0,0.0,0.0,0.0,0.0,0.0,0.0,0.0,0.0,0.0,0.0,0.0,0.0,0.0,0.0,0.0,0.0,0.0,0.0,0.0,0.0,0.0,0.0,0.0,0.0,0.0,0.0,0.0,1.9783,0.0,0.0,0.0,0.0,0.0,0.0,0.0,0.0,0.0,0.0,0.0,0.0,0.0,0.0,0.0,0.0,0.0,0.0,0.0,0.0,0.0,0.0,2.6499,3.0447,3.3627,3.5422,3.5716,3.6169,3.5997,3.5017,3.4349,3.2693,2.9924,0.0,0.0,0.0,0.0,0.0,0.0,0.0,0.0,0.0,0.0,0.0,0.0,0.0,0.0,0.0,0.0,0.0,0.0,0.0,0.0,0.0,0.0,0.0,0.0,0.0,0.0,1.8323,1.7806,1.742,0.0,0.0,0.0,0.0,0.0,0.0,0.0,0.0,0.0,0.0,2.6031,2.7603,3.0066,2.9603,2.9689,3.1541,3.0068,2.8751,2.869,2.6939,2.4702,0.0,0.0,0.0,0.0,0.0,0.0,0.0,0.0,0.0,0.0,0.0,0.0,0.0,0.0,0.0,0.0,0.0,0.0,0.0,0.0,0.0,0.0,0.0,0.0,0.0,0.0,0.0,2.5319,2.4499,0.0,0.0,0.0,0.0,0.0,0.0,0.0,0.0,0.0,0.0,0.0,2.9073,2.9858,0.0,0.0,0.0,0.0,0.0,0.0,0.0,0.0,0.0,0.0,0.0,0.0,2.7415,3.0522,3.417,3.5956,3.5718,3.658,3.6547,3.5506,3.5556,3.3681,2.9641,0.0,0.0,0.0,0.0,0.0,0.0,0.0,0.0,0.0,0.0,0.0,0.0,0.0,0.0,0.0,0.0,0.0,0.0,0.0,0.0,0.0,0.0,0.0,0.0,0.0,1.7822,0.0,0.0,0.0,0.0,0.0,0.0,0.0,0.0,0.0,0.0,0.0,2.2867,2.5283,2.7403,2.9293,3.094,3.0725,3.0772,0.0,0.0,0.0,0.0,0.0,0.0,0.0,0.0,0.0,0.0,0.0,0.0,0.0,0.0,2.3031,2.029,1.9457,1.8859,1.7868,0.0,0.0,0.0,0.0,0.0,0.0,0.0,0.0,0.0,0.0,0.0,0.0,0.0,0.0,2.9005,0.0,2.7418,0.0,0.0,0.0,0.0,0.0,0.0,0.0,0.0,3.3619,3.4786,3.4222,3.4691,3.4297,0.0,3.375,3.1598,0.0,0.0,0.0,0.0,0.0,0.0,0.0,0.0,2.8338,3.121,3.4696,3.628,3.5891,3.6917,3.7111,3.6267,3.6203,3.4399,3.06,2.8126,2.5734,0.0,0.0,0.0,0.0,0.0,0.0,0.0,0.0,0.0,0.0,0.0,0.0,0.0,0.0,0.0,0.0,0.0,0.0,0.0,0.0,0.0,0.0,0.0,1.8469,0.0,0.0,0.0,0.0,0.0,0.0,0.0,0.0,0.0,2.0671,2.246,2.4414,2.6377,2.864,3.0422,3.1156,0.0,0.0,0.0,0.0,0.0,0.0,0.0,2.5053,2.4403,2.3804,2.3565,2.4014,2.5143,2.577,2.5106,0.0,0.0,2.409,2.3005,2.234,2.1606,2.0224,1.909,1.9016,1.8422,1.8214,0.0,0.0,0.0,0.0,0.0,0.0,0.0,0.0,3.3078,3.2981,0.0,3.1234,0.0,0.0,0.0,0.0,0.0,2.9986,0.0,0.0,3.7956,3.9553,4.0142,3.9589,3.9151,3.8764,3.8106,3.6894,3.5079,3.0298,0.0,0.0,0.0,0.0,0.0,0.0,2.9277,3.2482,3.5145,3.636,3.6142,3.7169,3.7592,3.7268,3.637,3.493,3.2859,3.0969,2.8367,2.4991,2.3523,0.0,0.0,0.0,0.0,0.0,0.0,0.0,0.0,0.0,0.0,0.0,0.0,0.0,0.0,0.0,0.0,0.0,0.0,0.0,0.0,2.0955,0.0,0.0,0.0,0.0,0.0,0.0,0.0,0.0,0.0,0.0,2.302,2.4298,2.5936,2.7921,0.0,0.0,0.0,0.0,3.1813,3.226,3.1424,3.0407,2.9459,2.783,2.6482,2.5824,0.0,0.0,2.8442,2.8667,2.8468,2.7809,2.8188,2.8412,2.772,2.6768,2.6024,2.5408,2.3659,2.2528,2.238,2.1657,2.1559,4.1526,0.0,0.0,0.0,0.0,3.6082,3.7181,3.8564,3.8251,3.7988,3.7725,3.6166,0.0,0.0,0.0,0.0,0.0,0.0,3.6202,3.8287,4.1179,4.2494,4.2337,4.2678,4.2349,4.14,4.0641,3.9369,3.7601,3.5165,3.1808,2.7645,0.0,0.0,0.0,0.0,3.0387,3.3155,3.537,3.6793,3.743,3.7949,3.8352,3.8683,3.792,3.6737,3.5103,3.3021,3.05,2.7467,2.4976,0.0,0.0,0.0,0.0,0.0,0.0,0.0,0.0,0.0,0.0,0.0,0.0,0.0,0.0,0.0,0.0,0.0,0.0,0.0,2.2252,2.2022,2.1494,0.0,0.0,0.0,0.0,0.0,0.0,0.0,0.0,0.0,2.6032,2.6529,2.7138,0.0,0.0,3.1018,3.2017,3.2745,3.3411,3.4156,0.0,0.0,0.0,2.9648,2.8502,2.7844,2.8667,2.9669,3.0524,3.0658,3.0449,2.9774,2.946,2.9262,2.9007,2.7639,2.6365,2.5548,2.4602,2.3881,2.3747,2.354,2.3621,4.7967,4.2974,4.1314,4.0847,4.1269,4.1889,4.2945,4.4273,4.3839,4.3639,4.3477,4.1475,3.9462,3.7475,3.587,0.0,0.0,0.0,3.9658,4.1401,4.3932,4.52,4.5317,4.559,4.5193,4.4185,4.3071,4.1696,4.0064,3.8613,3.623,3.2899,0.0,0.0,2.9146,3.0208,3.1913,3.4262,3.6237,3.7485,3.7992,3.8372,3.8953,3.9692,3.9007,3.7947,3.6489,3.4584,3.2105,2.892,2.6604,2.4314,0.0,0.0,0.0,0.0,0.0,0.0,0.0,0.0,0.0,0.0,0.0,1.4509,1.5111,0.0,0.0,0.0,1.9458,2.1575,2.3081,2.3318,0.0,0.0,0.0,0.0,0.0,0.0,0.0,2.5816,2.6135,2.6976,2.9091,2.9336,2.9271,2.9317,3.0265,3.135,3.2531,0.0,3.394,3.4282,3.4172,3.3588,3.2244,3.1216,3.0358,2.9834,3.0612,3.1405,3.1795,3.1899,3.166,3.1016,3.0178,2.9532,2.9277,2.7989,2.6976,2.6683,2.5938,2.5416,2.5545,2.5364,2.5292,5.3074,5.0994,4.791,4.6483,4.6346,4.723,4.8152,4.9077,4.906,4.9094,4.8877,4.6626,4.4637,4.2827,3.9594,0.0,4.0116,4.1382,4.2827,4.4545,4.623,4.7528,4.8465,4.8155,4.7617,4.6841,4.5212,4.3756,4.238,4.0836,3.9421,3.8047,3.3487,3.1416,3.1883,3.2452,3.3709,3.5672,3.7484,3.8316,3.8233,3.8764,3.9496,4.0365,3.968,3.8619,3.716,3.5636,3.3199,2.9718,2.8189,2.5846,2.2528,0.0,0.0,0.0,0.0,0.0,0.0,0.0,0.0,0.0,0.0,0.0,0.0,0.0,0.0,0.0,2.2853,0.0,2.3715,2.499,0.0,0.0,0.0,2.3098,2.4491,2.4705,2.5815,2.8595,0.0,0.0,3.1881,0.0,3.1896,3.1087,3.1406,3.1989,3.2707,3.3404,3.373,3.3615,3.3775,3.3776,3.3327,3.2588,3.1968,3.1716,3.2153,3.2482,3.2602,3.2512,3.2243,3.1809,3.0582,2.9475,2.8801,2.8158,2.7854,2.8293,2.747,2.6811,2.7171,2.6847,2.6599,5.5847,5.5221,5.3593,5.1177,4.8414,4.8547,4.9111,4.9809,4.9842,4.9826,4.9743,4.8613,4.6939,4.4828,4.2818,4.2297,4.3012,4.3733,4.4724,4.5946,4.7159,4.7996,4.8515,4.8661,4.8149,4.7,4.5569,4.4204,4.2903,4.1471,4.0337,3.9468,3.7871,3.6337,3.4969,3.498,3.5746,3.7173,3.7967,3.8861,3.981,4.0261,4.0529,4.0552,3.9797,3.8768,3.7444,3.5449,3.3195,3.0643,2.8626,2.6921,2.5547,2.338,0.0,0.0,0.0,0.0,0.0,0.0,0.0,0.0,0.0,1.8368,1.9844,0.0,2.1236,0.0,2.4637,2.6489,2.7536,2.8394,0.0,0.0,2.7126,2.6672,2.7598,2.7735,2.8276,2.9631,3.0801,3.1681,3.2202,3.2693,3.3114,3.3374,3.3036,3.2999,3.3734,3.3963,3.4399,3.506,3.5495,3.5671,3.5063,3.3982,3.3152,3.3246,3.293,3.2946,3.386,3.3155,3.2587,3.2826,3.1509,3.0193,2.9457,2.8843,2.8218,2.7929,2.757,2.724,2.6941,2.7096,2.732,5.6923,5.6441,5.5566,5.3543,5.0929,5.1073,5.1251,5.1381,5.1123,5.0975,5.0946,5.0263,4.9076,4.7589,4.6633,4.6307,4.6452,4.654,4.6997,4.7814,4.8529,4.8928,4.9002,4.9335,4.87,4.7223,4.5905,4.4689,4.3525,4.2603,4.18,4.1119,4.1151,4.0324,3.8714,3.7485,3.7337,3.8266,3.8842,3.965,4.0745,4.0928,4.0984,4.0918,3.9947,3.8653,3.7066,3.5184,3.3182,3.0992,2.9441,2.8017,2.6673,2.5073,2.3771,0.0,0.0,0.0,0.0,0.0,0.0,0.0,0.0,0.0,0.0,0.0,2.4266,2.5663,2.7214,2.892,3.0784,3.1303,3.1635,3.1959,3.0903,3.0364,3.0791,3.0844,3.1013,3.1509,3.229,3.2936,3.3237,3.3617,3.4098,3.4767,3.4487,3.4337,3.4583,3.4437,3.453,3.5409,3.591,3.6225,3.6082,3.4924,3.3875,3.338,3.2945,3.293,3.3485,3.3021,3.2557,3.2482,3.124,2.9894,2.9277,2.8633,2.8034,2.7735,2.7585,2.745,2.7136,2.733,2.7575,5.707,5.6204,5.5567,5.4548,5.3317,5.3688,5.3503,5.2986,5.233,5.2029,5.1874,5.1244,5.0643,5.0098,4.9867,4.9526,4.9224,4.865,4.8654,4.9113,4.9528,4.9591,4.9325,4.9732,4.9041,4.7271,4.619,4.5102,4.4098,4.3782,4.3282,4.2731,4.333,4.3202,4.2173,3.9821,3.8782,3.9119,3.9727,4.042,4.1227,4.115,4.1182,4.1307,4.0093,3.847,3.6504,3.4929,3.3125,3.1066,3.0289,2.9048,2.7179,2.6911,2.5981,0.0,2.3883,0.0,0.0,0.0,0.0,0.0,0.0,0.0,0.0,2.6387,2.7317,2.9399,3.0226,3.1529,3.3643,3.3914,3.4235,3.4827,3.4286,3.3829,3.3846,3.3761,3.3694,3.3694,3.3694,3.3931,3.4506,3.4624,3.4912,3.543,3.5515,3.5391,3.5283,3.47,3.4471,3.5081,3.5675,3.6249,3.6354,3.5543,3.4326,3.312,3.2672,3.2614,3.2601,3.2392,3.2122,3.1584,3.0537,2.943,2.8727,2.8169,2.7735,2.763,2.7585,2.7585,2.7555,2.7555,2.7585,5.7039,5.6453,5.5721,5.48,5.3851,5.3999,5.3528,5.2653,5.198,5.1488,5.1101,5.0459,5.0168,5.0026,4.8855,4.8107,4.7746,4.6793,4.6558,4.6966,4.7867,4.8101,4.7885,4.8796,4.8348,4.6746,4.5812,4.4915,4.4006,4.3799,4.3622,4.3492,4.3622,4.346,4.2941,0.0,0.0,0.0,4.0111,4.0509,4.1026,4.1432,4.1512,4.1152,4.0028,0.0,3.6764,3.4677,3.2803,3.1233,3.0441,0.0,0.0,0.0,0.0,0.0,0.0,0.0,0.0,0.0,0.0,0.0,3.1715,3.1596,3.0294,3.0685,3.1461,3.2493,3.3237,3.4336,3.6,3.6705,3.711,3.7212,3.6586,3.6169,3.6152,3.5588,3.5177,3.5177,3.5177,3.5211,3.5312,3.538,3.543,3.5566,3.5616,3.56,3.5549,3.4908,3.4739,3.5402,3.6235,3.683,3.7096,3.6039,3.4701,3.3466,3.261,3.242,3.2493,3.1742,3.1308,3.1315,3.0462,2.9355,2.8712,2.8487,2.8218,2.772,2.7615,2.7585,2.7585,2.76,2.7585,5.7046,0.0,5.5878,5.509,0.0,5.4539,5.4365,5.3914,5.2794,5.1988,5.1407,5.0735,5.0317,4.9933,4.8514,4.7478,4.6771,4.5708,4.5551,4.6318,4.7356,4.7862,4.7929,4.8947,4.8464,4.6631,4.5814,4.5049,4.4334,4.4204,4.4123,4.4155,4.4512,4.4331,4.3612,4.2493,4.1398,4.0246,4.0539,4.0904,4.1393,4.1917,4.1905,4.1259,0.0,0.0,0.0,0.0,0.0,0.0,0.0,0.0,0.0,0.0,0.0,2.9516,2.9144,2.9076,2.9482,3.0886,3.2544,3.4409,3.622,3.6146,3.3592,3.3728,3.4252,3.5013,3.5419,3.6271,3.7709,3.8227,3.8599,3.892,3.8674,3.8302,3.7895,3.7195,3.6603,3.6214,3.5819,3.5616,3.5616,3.5616,3.5616,3.5616,3.5616,3.5616,3.5549,3.4962,3.4817,3.5788,3.6738,3.7118,3.6605,3.5892,3.4689,3.3124,3.2364,3.2025,3.1796,3.114,3.0546,3.0178,2.952,2.8918,2.8319,2.8353,2.8487,2.8244,2.8364,2.8573,2.8558,2.8079,2.772,5.7046,5.6625,5.5997,5.5434,5.4915,5.5164,5.5279,5.5239,0.0,0.0,0.0,5.1083,5.0427,4.9718,4.8338,4.7217,4.6251,4.5117,4.5108,4.6008,4.7193,4.7817,4.8121,4.9191,4.8679,4.6727,4.5984,4.5277,4.4651,4.4635,4.4635,4.4716,4.5299,4.515,4.414,4.3311,4.2255,4.1072,4.1185,4.1507,4.1917,4.2412,4.2337,4.1588,4.1017,3.9587,3.728,3.6299,3.5131,3.3694,3.3592,3.3254,3.2564,3.2615,3.2429,3.185,3.2036,3.2442,3.3072,3.4015,3.5487,3.7625,3.9469,3.9309,3.658,3.6377,3.6738,3.7523,3.755,3.8149,3.9428,3.958,3.9817,4.0434,4.0502,4.0197,3.9462,3.8734,3.8007,3.7286,3.6552,3.6022,3.6073,3.6073,3.6005,3.5988,3.5994,3.5718,3.5566,3.52,3.5374,3.6501,3.7188,3.7183,3.6224,3.5653,3.4563,3.2867,3.2366,3.1875,3.1069,3.0571,2.9933,2.8951,2.8532,2.8274,2.7929,2.8274,2.8622,2.8757,2.919,2.9636,2.9651,2.8903,2.8364,5.703,5.6575,5.6123,5.5668,5.5271,5.5685,5.5558,5.4979,5.4035,5.2697,5.1116,5.0583,4.9997,4.9334,4.7973,4.7146,4.6726,4.5256,4.4785,0.0,4.6655,4.715,4.6859,4.8263,4.8203,4.6808,4.6043,4.5346,4.4763,4.47,4.477,4.496,4.5213,4.501,4.4319,4.4141,4.3641,4.2823,4.2251,4.211,4.2395,4.2834,4.2794,4.2262,4.125,4.0074,3.8751,3.7364,3.5932,3.4438,3.4336,3.4015,3.3322,3.3863,3.4134,3.4117,3.5267,3.6068,3.6203,3.8031,3.9859,4.1322,4.1813,4.1255,3.9656,3.9469,3.9766,4.0476,4.0476,4.0916,4.1711,4.1745,4.1745,4.1897,4.1948,4.1677,4.0933,4.018,3.9478,3.8717,3.8041,3.755,3.7449,3.7459,3.7425,3.7449,3.6941,3.6417,3.5932,3.5889,3.6525,3.7468,3.7484,3.7044,3.6397,3.6014,3.5014,3.3347,3.3003,3.2418,3.1114,3.0398,2.9699,2.8768,2.8289,2.8079,2.8293,2.8517,2.8891,2.934,2.9639,2.9921,3.0357,3.0223,2.9968,5.7046,5.6625,5.6195,5.5797,5.5401,5.5854,5.5714,5.5132,5.4164,5.2897,5.1502,5.045,4.9558,4.88,4.7499,4.664,4.6159,4.5095,4.4863,4.5341,4.6377,4.7005,4.7192,4.8173,4.8182,4.7232,4.6905,4.6204,4.5254,4.5176,4.5174,4.5158,4.5591,4.5766,4.5635,4.528,4.4926,4.4555,4.3443,4.2768,4.257,4.2912,4.2903,4.2473,4.2077,4.1191,3.9656,3.8937,3.7905,3.64,3.6349,3.6197,3.5876,3.6163,3.6518,3.6924,3.7608,3.8328,3.914,4.0865,4.2185,4.2844,4.3301,4.3267,4.2601,4.1771,4.1441,4.1762,4.1796,4.1931,4.2252,4.2303,4.2303,4.2303,4.2303,4.2151,4.1813,4.1153,4.0409,3.9665,3.8954,3.8362,3.7956,3.7898,3.7898,3.7848,3.7567,3.7212,3.6901,3.7211,3.7502,3.7549,3.766,3.7391,3.6584,3.6054,3.5222,3.3916,3.3283,3.2561,3.1481,3.0732,2.9811,2.8873,2.8562,2.8648,2.8697,2.9205,2.9684,3.0013,3.0776,3.124,3.1569,3.1854,3.1644,5.7046,5.6641,5.6251,5.5814,5.5418,5.5594,5.5409,5.4866,5.363,5.2552,5.1651,5.0387,4.9433,4.8733,4.7623,4.6803,4.6237,4.5549,4.548,4.5927,4.6551,4.7111,4.7635,4.8296,4.8266,4.7762,4.7741,4.7055,4.5882,4.5743,4.5578,4.5457,4.6017,4.6566,4.6914,4.6445,4.5989,4.5584,4.4608,4.3751,4.3088,4.3255,4.3202,4.3019,4.2956,4.2326,4.0915,4.0502,3.9749,3.8514,3.8396,3.8328,3.8176,3.8481,3.8903,3.9428,3.9648,4.0307,4.161,4.2733,4.346,4.369,4.4231,4.4598,4.4513,4.3548,4.2811,4.2811,4.2871,4.2828,4.2905,4.2861,4.2811,4.2811,4.2794,4.2777,4.2523,4.2033,4.1407,4.0688,3.9935,3.9276,3.8785,3.8497,3.8379,3.8244,3.8159,3.8108,3.8017,3.8311,3.8221,3.779,3.7975,3.7858,3.6777,3.6232,3.5535,3.4499,3.3728,3.2974,3.2148,3.1252,3.0268,2.925,2.9247,2.9307,2.9026,2.9684,3.0477,3.0926,3.1704,3.2482,3.2901,3.3455,3.323,5.7046,5.6592,5.6123,5.5749,5.5247,5.4665,5.4196,5.3613,5.1946,5.1141,5.1026,5.046,4.9956,4.9486,4.8914,4.8537,4.8216,4.7427,4.6952,4.6865,4.7284,4.7558,4.7696,4.8296,4.8363,4.8066,4.8173,4.7582,4.6336,4.6211,4.6009,4.5839,4.6317,4.6842,4.7303,4.7322,4.6683,4.5407,4.5669,4.5406,4.4463,4.4137,4.414,4.4395,4.3489,4.3048,4.2936,4.183,4.073,4.0011,3.9901,3.9614,3.9123,4.0155,4.0916,4.1018,4.161,4.2371,4.3115,4.3308,4.3741,4.4412,4.453,4.4598,4.4598,4.4462,4.4378,4.431,4.4344,4.4276,4.4395,4.431,4.4225,4.4175,4.4225,4.4124,4.3453,4.3267,4.2929,4.2168,4.1356,4.095,4.0629,4.0104,3.9554,3.8954,3.8903,3.8717,3.8304,3.8645,3.8883,3.8529,3.8454,3.8019,3.7227,3.6797,3.6076,3.4971,3.4573,3.3863,3.2856,3.1973,3.1002,3.0043,2.9729,2.9804,2.9684,3.0103,3.0971,3.1795,3.2422,3.2916,3.3978,3.4681,3.4277,5.643,5.5861,5.5401,5.4992,5.4527,5.423,5.3951,5.3518,5.2351,5.1842,5.1816,5.1036,5.0483,5.0159,5.0189,5.0023,4.9691,4.9111,4.8631,4.8329,4.8244,4.8189,4.8235,4.8466,4.863,4.878,4.9094,4.8749,4.7869,4.7343,4.7057,4.6966,4.7221,4.7684,4.8181,4.7507,4.6765,4.6204,4.5766,4.5456,4.5241,4.4951,4.4762,4.4644,4.4423,4.3972,4.3432,4.2784,4.2168,4.1457,4.139,4.1271,4.0967,4.1525,4.2049,4.2462,4.3234,4.3775,4.4079,4.4096,4.4231,4.4581,4.4598,4.4598,4.4598,4.4598,4.4598,4.4598,4.4598,4.4598,4.4598,4.4598,4.4598,4.4598,4.4598,4.4462,4.4164,4.4096,4.3809,4.3047,4.2303,4.1677,4.1204,4.057,4.0011,3.969,3.9656,3.9428,3.9234,3.9783,3.9952,3.9631,3.9548,3.9037,3.7908,3.7222,3.6538,3.5735,3.5012,3.4284,3.386,3.314,3.2273,3.0956,3.1046,3.0851,3.0223,3.1046,3.1943,3.2602,3.335,3.3978,3.4906,3.4981,3.4337,5.5693,5.4966,5.4364,5.397,5.3714,5.3714,5.3612,5.3359,5.2573,5.2364,5.2464,5.1395,5.0858,5.0813,5.1048,5.093,5.0579,5.0253,4.9884,4.9557,4.9138,4.8975,4.8949,4.8934,4.9138,4.9541,4.9868,4.9716,4.9066,4.833,4.7981,4.7929,4.7943,4.8209,4.8594,4.7572,4.6763,4.6352,4.5749,4.5555,4.557,4.5472,4.5382,4.527,4.5207,4.4829,4.4068,4.3656,4.3267,4.2973,4.2912,4.3014,4.3217,4.3403,4.3775,4.4299,4.4857,4.5207,4.5207,4.5207,4.5224,4.5224,4.5224,4.5207,4.5224,4.5179,4.5207,4.5258,4.5224,4.5156,4.4615,4.4598,4.4598,4.4598,4.4598,4.4598,4.4581,4.4598,4.4333,4.3775,4.3064,4.2219,4.1339,4.0603,4.0079,4.0062,4.0079,4.0113,4.0138,4.046,4.0612,4.0189,4.0277,3.9636,3.8169,3.7541,3.695,3.6091,3.529,3.5086,3.4791,3.4204,3.3514,3.2347,3.2647,3.2437,3.1569,3.2078,3.2766,3.2961,3.3574,3.4352,3.4577,3.4442,3.4098,5.4909,5.4008,5.3157,5.2922,5.2788,5.2833,5.2788,5.2846,5.2109,5.2005,5.225,5.1417,5.1152,5.1469,5.1295,5.107,5.0858,5.0563,5.0354,5.0159,4.9939,4.9836,4.9852,4.9836,4.9939,5.0159,5.0338,5.0135,4.9501,4.8845,4.8461,4.8514,4.8264,4.8218,4.8451,4.7815,4.6766,4.5652,4.5881,4.5947,4.5438,4.5594,4.6015,4.6441,4.5737,4.5278,4.5291,4.4136,4.3724,4.4479,4.4462,4.4756,4.5466,4.6109,4.643,4.6532,4.6599,4.665,4.6599,4.6566,4.6566,4.6616,4.6498,4.6616,4.6481,4.6481,4.6464,4.6633,4.6498,4.6024,4.5004,4.4886,4.4801,4.4767,4.4699,4.4716,4.4649,4.4733,4.4615,4.4395,4.3673,4.2625,4.1373,4.057,4.018,4.0113,4.0113,4.0146,4.0231,4.0248,4.0265,4.0223,4.0019,3.9441,3.8023,3.7697,3.6981,3.6136,3.5843,3.5757,3.5383,3.4891,3.4173,3.3634,3.3499,3.323,3.2781,3.2856,3.335,3.3604,3.3694,3.4128,3.4352,3.3814,3.3469,5.5049,5.4253,5.377,5.3584,5.3568,5.3584,5.3481,5.3334,5.2968,5.2947,5.3095,5.2529,5.2394,5.2674,5.1843,5.1321,5.1032,5.0914,5.0838,5.0761,5.0669,5.0685,5.0685,5.0685,5.0685,5.0778,5.0821,5.0768,5.0542,5.0268,5.0171,5.0059,4.9604,4.9377,4.9125,4.7828,4.6544,4.5635,4.5196,4.4896,4.4983,4.5255,4.5831,4.668,4.5824,4.5219,4.4993,4.4434,4.4519,4.5263,4.5297,4.5635,4.6329,4.665,4.6786,4.6786,4.6786,4.6786,4.6786,4.6786,4.6786,4.6786,4.6786,4.6836,4.6786,4.6786,4.6786,4.6802,4.6802,4.6464,4.6194,4.602,4.602,4.5991,4.5974,4.5754,4.5415,4.528,4.5128,4.4519,4.3521,4.2286,4.1441,4.0544,4.013,4.0113,4.0113,4.0299,4.0663,4.0798,4.0713,4.0738,4.0644,4.0076,3.8622,3.8177,3.7671,3.6718,3.6167,3.5866,3.5533,3.5342,3.4756,3.4309,3.4143,3.3948,3.3514,3.3544,3.4023,3.4427,3.4487,3.4008,3.4249,3.3619,3.3215,5.5238,5.4701,5.4549,5.4465,5.4523,5.4465,5.4311,5.4013,5.3711,5.3683,5.3746,5.326,5.3128,5.3089,5.1996,5.1302,5.1077,5.095,5.0989,5.1135,5.1252,5.1311,5.1385,5.1459,5.1438,5.1397,5.1268,5.1215,5.114,5.1194,5.1285,5.1278,5.0623,5.0249,4.9856,4.8245,4.6894,4.6052,4.5163,4.493,4.5195,4.5072,4.5537,4.6309,4.5618,4.5041,4.4925,4.4733,4.5043,4.5889,4.6058,4.6498,4.7378,4.7496,4.7496,4.7513,4.7513,4.7513,4.7513,4.7496,4.753,4.7513,4.7513,4.7496,4.7496,4.7496,4.7496,4.7496,4.7496,4.7496,4.7496,4.7496,4.7327,4.6938,4.6786,4.6616,4.6109,4.5838,4.5348,4.4587,4.3521,4.2455,4.1644,4.0916,4.0451,4.0163,4.0113,4.0324,4.0713,4.0832,4.0849,4.0849,4.0627,4.0111,3.9156,3.8646,3.7858,3.6949,3.6461,3.6101,3.5701,3.5587,3.537,3.4998,3.4743,3.4532,3.4442,3.4412,3.4681,3.5115,3.4577,3.3888,3.3739,3.341,3.2976,5.5312,5.5271,5.5296,5.5288,5.5288,5.5288,5.5083,5.4659,5.4221,5.4082,5.4078,5.3455,5.3333,5.2964,5.2082,5.1199,5.1256,5.0975,5.0922,5.1183,5.1545,5.1822,5.202,5.22,5.2164,5.1911,5.1614,5.1371,5.1221,5.1408,5.1594,5.1631,5.1106,5.0828,5.0713,4.9129,4.783,4.6947,4.6236,4.6044,4.6225,4.528,4.5288,4.6026,4.5136,4.4923,4.5669,4.5026,4.5314,4.6532,4.6786,4.7496,4.8595,4.8815,4.8917,4.8832,4.8917,4.8934,4.89,4.8832,4.8765,4.8765,4.8883,4.8765,4.8714,4.8765,4.8781,4.8748,4.8781,4.8866,4.8815,4.8798,4.8325,4.7141,4.7056,4.7022,4.6735,4.616,4.5466,4.4835,4.3978,4.3122,4.2388,4.1559,4.0849,4.0282,4.0113,4.013,4.0265,4.0299,4.018,4.0155,4.0137,3.9865,3.9432,3.8952,3.7954,3.7061,3.6763,3.6414,3.5829,3.5539,3.5522,3.5237,3.519,3.5026,3.4981,3.4921,3.4741,3.4891,3.4233,3.3918,3.3649,3.3365,3.2662,5.5491,5.5653,5.5797,5.5838,5.5838,5.5838,5.5596,5.5147,5.4733,5.4649,5.4758,5.47,5.4645,5.4468,5.3721,5.3239,5.3086,5.2381,5.1704,5.1372,5.1802,5.2305,5.264,5.2955,5.2799,5.2236,5.1818,5.1455,5.1268,5.1524,5.1851,5.2007,5.1914,5.1798,5.1699,5.0098,4.8688,4.7577,4.6459,4.5731,4.5293,4.5177,4.5395,4.5789,4.5745,4.5946,4.6413,4.5754,4.5838,4.6786,4.7293,4.7973,4.8798,4.9018,4.9018,4.9018,4.9018,4.9018,4.9018,4.9018,4.9018,4.9018,4.9018,4.9018,4.9018,4.9018,4.9018,4.9018,4.9018,4.9018,4.9018,4.9018,4.8748,4.8359,4.8308,4.802,4.7513,4.6887,4.643,4.6024,4.4993,4.3961,4.3064,4.2117,4.1052,4.0383,4.0197,4.0197,4.0163,4.0214,4.0113,4.0087,3.9918,3.9776,3.946,3.9247,3.8662,3.7791,3.7306,3.6847,3.6204,3.5636,3.5619,3.5537,3.5489,3.5489,3.5444,3.534,3.5115,3.5115,3.4966,3.4532,3.3993,3.3395,3.2796,5.5556,5.591,5.6172,5.629,5.629,5.629,5.6053,5.5612,5.5189,5.5164,5.5466,5.5717,5.5838,5.573,5.5166,5.4714,5.4356,5.3382,5.2575,5.2021,5.2224,5.2685,5.3044,5.321,5.3041,5.2537,5.2128,5.1712,5.1417,5.1725,5.2053,5.2272,5.2395,5.2449,5.2352,5.0813,4.9446,4.8613,4.7285,4.6238,4.5864,4.5767,4.5877,4.6113,4.6224,4.6458,4.6739,4.6599,4.6735,4.7242,4.7919,4.8545,4.8968,4.9018,4.9018,4.9018,4.9018,4.9018,4.9018,4.9018,4.9018,4.9018,4.9018,4.9018,4.9018,4.9018,4.9018,4.9018,4.9018,4.9018,4.9018,4.9018,4.9018,4.9001,4.8951,4.868,4.799,4.7513,4.7056,4.6599,4.5703,4.4756,4.3809,4.2878,4.1745,4.1111,4.0925,4.0925,4.0874,4.0696,4.0561,4.0324,4.0035,3.9821,3.9561,3.941,3.932,3.8623,3.7933,3.7375,3.6762,3.6093,3.5797,3.5587,3.5489,3.5489,3.5459,3.5474,3.5355,3.5489,3.5474,3.4981,3.4352,3.3754,3.314,5.5571,5.6004,5.6397,5.6531,5.6564,5.6453,5.6218,5.5974,5.5507,5.558,5.6053,5.6414,5.6647,5.6553,5.6001,5.5545,5.5023,5.4232,5.3727,5.348,5.3275,5.3169,5.3158,5.3033,5.2955,5.2868,5.2537,5.2145,5.1818,5.1997,5.2178,5.2307,5.2518,5.2746,5.2601,5.1278,5.0325,4.9891,4.8481,4.7556,4.7307,4.6914,4.6781,4.6974,4.6824,4.6962,4.7487,4.7953,4.8075,4.8105,4.8595,4.8917,4.9001,4.9018,4.9018,4.9018,4.9018,4.9018,4.9018,4.9018,4.9018,4.9018,4.9018,4.9018,4.9018,4.9018,4.9018,4.9018,4.9018,4.9018,4.9018,4.9018,4.9018,4.9018,4.9018,4.8697,4.8122,4.7986,4.775,4.7107,4.6295,4.5483,4.4739,4.3893,4.3115,4.2489,4.2236,4.2202,4.2033,4.1677,4.1271,4.0796,4.0262,3.9861,3.9611,3.9789,3.9739,3.9513,3.878,3.8121,3.7337,3.6604,3.6088,3.5847,3.5759,3.5684,3.5624,3.5729,3.5624,3.5519,3.537,3.5115,3.4728,3.4098,3.3455,5.5572,5.587,5.6132,5.6132,5.5957,5.5797,5.5693,5.5588,5.5434,5.5717,5.633,5.6911,5.7105,5.7105,5.6938,5.6725,5.6326,5.5963,5.5698,5.5499,5.4743,5.3658,5.287,5.2846,5.3075,5.3246,5.292,5.2537,5.2217,5.2217,5.2288,5.2291,5.2642,5.2989,5.3061,5.1764,5.104,5.0673,4.9172,4.813,4.7852,4.7687,4.7935,4.8415,4.8557,4.9061,4.9902,5.0236,4.9748,4.8815,4.8866,4.9001,4.9103,4.9103,4.9154,4.9137,4.9086,4.9035,4.9052,4.9069,4.9052,4.9018,4.9171,4.9018,4.9018,4.9018,4.9018,4.9018,4.9018,4.9069,4.9052,4.9069,4.9069,4.9018,4.9103,4.8968,4.8748,4.8714,4.8612,4.8325,4.7259,4.6295,4.55,4.4807,4.4045,4.342,4.325,4.32,4.3098,4.232,4.1779,4.1058,4.0481,4.0017,3.9809,4.0046,4.0174,4.0244,3.9724,3.9012,3.8034,3.7031,3.668,3.6436,3.6555,3.6552,3.6342,3.6267,3.5998,3.5609,3.5444,3.5265,3.4951,3.4457,3.3754,5.5475,5.5645,5.5717,5.558,5.5271,5.4966,5.4941,5.5164,5.5295,5.5781,5.6547,5.7252,5.7551,5.7551,5.7551,5.7514,5.7348,5.7252,5.703,5.6608,5.5677,5.434,5.3205,5.3161,5.3428,5.3433,5.3195,5.2868,5.2607,5.2572,5.2572,5.2607,5.2852,5.3195,5.3399,5.2367,5.1674,5.1372,5.0015,4.892,4.8644,4.8328,4.8594,4.9143,4.9573,5.0184,5.1017,5.12,5.0777,5.0118,4.9949,4.9932,4.9932,4.9932,4.9932,4.9949,4.9932,4.9965,4.9932,4.9932,4.9932,4.9949,4.9932,4.9949,4.9982,4.9932,4.9932,4.9982,4.9932,4.9932,4.9932,4.9932,4.9932,4.9965,4.9661,4.9357,4.9069,4.8984,4.9001,4.8731,4.8003,4.6989,4.6278,4.5754,4.5196,4.4705,4.4807,4.4671,4.4418,4.3284,4.2422,4.197,4.1384,4.0963,4.0829,4.1029,4.0783,4.0828,4.0166,3.9547,3.8752,3.7663,3.7451,3.7328,3.7395,3.73,3.6956,3.6567,3.6118,3.5804,3.5624,3.5415,3.513,3.4577,3.3903,5.5361,5.5409,5.5328,5.5115,5.4832,5.4322,5.4507,5.4915,5.5263,5.5908,5.6741,5.7551,5.7808,5.7881,5.7808,5.7881,5.7845,5.7772,5.7551,5.7068,5.625,5.5103,5.4027,5.3797,5.3714,5.3534,5.3298,5.3161,5.2972,5.2989,5.2972,5.3007,5.3161,5.3298,5.3315,5.2672,5.235,5.1962,5.0801,4.9865,4.9501,4.9067,4.9117,4.9602,5.0219,5.0785,5.1389,5.1589,5.1505,5.1454,5.1286,5.1082,5.1116,5.1134,5.1133,5.1065,5.0948,5.0999,5.1117,5.0997,5.1067,5.1031,5.1065,5.1234,5.1048,5.0963,5.0963,5.0947,5.12,5.1031,5.1014,5.1083,5.0999,5.0845,5.0439,4.9796,4.9306,4.9052,4.9018,4.8968,4.8342,4.7631,4.7175,4.6853,4.665,4.6092,4.6164,4.6131,4.572,4.4823,4.413,4.3663,4.2945,4.2135,4.2078,4.2095,4.1707,4.1362,4.0451,3.9754,3.9351,3.8618,3.8353,3.8242,3.8215,3.7813,3.721,3.6776,3.6387,3.5938,3.5744,3.5594,3.537,3.4592,3.3888,5.5409,5.5409,5.5409,5.5246,5.5014,5.4749,5.4858,5.5287,5.5685,5.6241,5.697,5.7625,5.7881,5.7881,5.7881,5.7881,5.7881,5.7881,5.7698,5.7293,5.7135,5.6458,5.5439,5.4661,5.39,5.3636,5.3501,5.3416,5.3399,5.3399,5.3348,5.3365,5.3348,5.3467,5.3365,5.2807,5.2317,5.2164,5.1372,5.0614,5.0092,4.989,4.9839,5.0177,5.1137,5.2115,5.2791,5.301,5.3027,5.2739,5.1961,5.142,5.1403,5.1352,5.1386,5.1403,5.1336,5.1269,5.1268,5.1352,5.1251,5.1386,5.1388,5.1234,5.1234,5.1286,5.1252,5.1234,5.1234,5.1386,5.1403,5.1285,5.1369,5.1285,5.0676,5.0101,4.9813,4.934,4.9052,4.8866,4.8409,4.7851,4.7682,4.7635,4.7517,4.7415,4.7449,4.7534,4.6942,4.6194,4.5534,4.4891,4.4125,4.3288,4.2981,4.2884,4.2446,4.1975,4.1115,4.0356,3.9905,3.9426,3.9109,3.8998,3.8998,3.8437,3.7704,3.7389,3.706,3.6477,3.5953,3.5908,3.5654,3.4771,3.4429,5.5377,5.5409,5.5361,5.5312,5.5205,5.5106,5.5295,5.5717,5.6083,5.6608,5.716,5.7698,5.7881,5.7881,5.7881,5.7881,5.7881,5.7881,5.7808,5.7625,5.7554,5.7184,5.6525,5.5753,5.5068,5.4634,5.4532,5.4397,5.411,5.3957,5.3856,5.3518,5.3518,5.3467,5.3501,5.3044,5.2926,5.2756,5.2114,5.1369,5.0744,5.0608,5.0862,5.1234,5.2232,5.3112,5.3416,5.3484,5.3484,5.3298,5.2723,5.2266,5.2283,5.2283,5.2283,5.2283,5.23,5.2283,5.2283,5.2283,5.235,5.2266,5.2233,5.23,5.23,5.23,5.23,5.2283,5.2317,5.2317,5.23,5.2317,5.2283,5.2063,5.1251,5.0659,5.0456,4.9695,4.9018,4.8951,4.8697,4.8274,4.8122,4.821,4.8041,4.7821,4.8223,4.8291,4.7753,4.6993,4.6346,4.5703,4.5043,4.4412,4.3968,4.3602,4.3157,4.2654,4.2021,4.1358,4.0905,4.0342,3.978,3.9601,3.9375,3.8927,3.8302,3.8018,3.7644,3.712,3.6701,3.6492,3.6237,3.5833,3.5609,5.5361,5.5466,5.5426,5.5483,5.5556,5.5547,5.5789,5.6162,5.6553,5.6954,5.7348,5.7735,5.7881,5.7881,5.7881,5.7881,5.7881,5.7881,5.7845,5.7845,5.7845,5.7504,5.7031,5.6831,5.656,5.6072,5.5649,5.5243,5.4685,5.4532,5.411,5.3636,5.3518,5.3518,5.3501,5.3501,5.3416,5.3281,5.279,5.2114,5.1505,5.1386,5.1674,5.2131,5.2655,5.323,5.3433,5.3518,5.3518,5.3518,5.3518,5.3518,5.3518,5.3518,5.3501,5.3433,5.3315,5.3247,5.3213,5.3331,5.3365,5.3518,5.345,5.3433,5.3399,5.3315,5.3281,5.3331,5.3298,5.3298,5.3484,5.3298,5.3348,5.3162,5.2147,5.1454,5.0982,5.0019,4.9593,4.9204,4.9035,4.868,4.8646,4.8714,4.8477,4.8342,4.8731,4.8866,4.8342,4.7872,4.7259,4.6633,4.6007,4.4993,4.4446,4.3782,4.3385,4.301,4.2505,4.1978,4.142,4.0558,3.9874,3.9833,3.9581,3.9127,3.8766,3.8407,3.8018,3.7659,3.733,3.7,3.6896,3.6896,3.6746,5.5548,5.5742,5.591,5.6053,5.6267,5.6391,5.6608,5.6856,5.7084,5.731,5.7551,5.7772,5.7881,5.7881,5.7881,5.7881,5.7881,5.7881,5.7881,5.7881,5.7881,5.7712,5.7645,5.756,5.7509,5.7222,5.6494,5.5513,5.4888,5.4549,5.4465,5.3754,5.3636,5.3653,5.3619,5.3518,5.3568,5.3518,5.3264,5.279,5.2181,5.2029,5.2147,5.2401,5.2689,5.2993,5.3416,5.3518,5.3518,5.3518,5.3518,5.3518,5.3518,5.3518,5.3518,5.3518,5.3518,5.3518,5.3518,5.3518,5.3518,5.3518,5.3518,5.3518,5.3518,5.3518,5.3518,5.3518,5.3518,5.3518,5.3518,5.3518,5.3518,5.3264,5.2689,5.186,5.1352,5.0864,5.049,5.0135,4.9627,4.9154,4.9187,4.9086,4.8781,4.8646,4.8832,4.9001,4.8748,4.8528,4.8274,4.7648,4.7022,4.5855,4.479,4.399,4.3424,4.3096,4.2604,4.1985,4.1323,4.0398,3.991,4.0052,3.9803,3.9326,3.902,3.8736,3.8542,3.8272,3.7868,3.7479,3.7584,3.7689,3.7539,5.558,5.5934,5.6234,5.6564,5.6872,5.7214,5.7348,5.7476,5.7588,5.7662,5.7789,5.7845,5.7881,5.7881,5.7881,5.7881,5.7881,5.7881,5.7881,5.7881,5.7881,5.7881,5.7881,5.7881,5.7881,5.7695,5.712,5.641,5.5801,5.5784,5.526,5.482,5.4651,5.4465,5.4143,5.411,5.3822,5.3636,5.3467,5.3129,5.2384,5.2334,5.2469,5.2824,5.2909,5.3145,5.3365,5.3518,5.3518,5.3518,5.3518,5.3518,5.3518,5.3518,5.3518,5.3518,5.3518,5.3518,5.3518,5.3518,5.3518,5.3518,5.3518,5.3518,5.3518,5.3518,5.3518,5.3518,5.3518,5.3518,5.3518,5.3518,5.3518,5.3365,5.2807,5.2232,5.1809,5.1471,5.1251,5.1014,5.0338,4.9898,4.9729,4.9526,4.912,4.9018,4.9052,4.9052,4.9086,4.89,4.8748,4.7936,4.7141,4.6075,4.5077,4.4519,4.3821,4.3418,4.3051,4.2413,4.1805,4.1135,4.0653,4.0485,4.0106,3.9887,3.9349,3.908,3.8975,3.8886,3.8661,3.8467,3.8482,3.8417,3.8252,5.5829,5.6218,5.6592,5.6992,5.7402,5.7735,5.7881,5.7881,5.7881,5.7881,5.7881,5.7881,5.7881,5.7881,5.7881,5.7881,5.7881,5.7881,5.7881,5.7881,5.7881,5.7881,5.7881,5.7881,5.7881,5.7865,5.778,5.7526,5.6748,5.6613,5.6325,5.5733,5.5649,5.5344,5.4685,5.4465,5.4126,5.3737,5.3484,5.3112,5.2706,5.2587,5.2824,5.3433,5.3518,5.3484,5.3501,5.3518,5.3518,5.3518,5.3518,5.3518,5.3518,5.3518,5.3518,5.3518,5.3518,5.3518,5.3518,5.3518,5.3518,5.3518,5.3518,5.3518,5.3518,5.3518,5.3518,5.3518,5.3518,5.3518,5.3518,5.3518,5.3518,5.3399,5.2976,5.2469,5.2232,5.2046,5.2046,5.164,5.098,5.0777,5.0744,5.0338,5.0016,4.9779,4.9796,4.9492,4.9458,4.9069,4.8714,4.7885,4.7005,4.6024,4.5331,4.5111,4.4542,4.4108,4.3815,4.3431,4.2837,4.2206,4.1781,4.1369,4.1175,4.0903,4.0181,3.9568,3.9531,3.9506,3.9493,3.9376,3.9142,3.9041,3.8925,5.6663,5.6911,5.7139,5.7364,5.7588,5.7808,5.7881,5.7881,5.7881,5.7881,5.7881,5.7881,5.7881,5.7881,5.7881,5.7881,5.7881,5.7881,5.7881,5.7881,5.7881,5.7881,5.7881,5.7881,5.7881,5.7881,5.7881,5.7459,5.707,5.6917,5.6528,5.6004,5.5919,5.5429,5.4972,5.4938,5.4211,5.3687,5.3568,5.3467,5.3331,5.3298,5.3382,5.3467,5.3568,5.3551,5.3568,5.3568,5.3602,5.3518,5.3518,5.3518,5.3518,5.3518,5.3518,5.3518,5.3518,5.3518,5.3518,5.3518,5.3518,5.3518,5.3518,5.3518,5.3518,5.3518,5.3518,5.3518,5.3518,5.3518,5.3518,5.3518,5.3518,5.3484,5.3331,5.2875,5.2587,5.2689,5.2689,5.252,5.1944,5.1961,5.1978,5.1454,5.098,5.0727,5.0456,5.0118,4.9729,4.9306,4.8748,4.7919,4.7411,4.6498,4.5889,4.5618,4.5263,4.4801,4.4569,4.4272,4.3479,4.2874,4.2864,4.2495,4.2247,4.1875,4.1228,4.0699,4.0318,4.0162,4.0244,3.9975,3.9651,3.9553,3.9424,5.7439,5.753,5.7604,5.7698,5.7772,5.7845,5.7881,5.7881,5.7881,5.7881,5.7881,5.7881,5.7881,5.7881,5.7881,5.7881,5.7881,5.7881,5.7881,5.7881,5.7881,5.7881,5.7881,5.7881,5.7881,5.7881,5.7865,5.7814,5.7442,5.7357,5.7188,5.6968,5.6867,5.6664,5.575,5.5801,5.5429,5.4888,5.438,5.3923,5.3619,5.3518,5.3518,5.3534,5.389,5.3856,5.3721,5.3957,5.3856,5.3653,5.3518,5.3518,5.3518,5.3518,5.3518,5.3518,5.3518,5.3518,5.3518,5.3518,5.3518,5.3518,5.3518,5.3518,5.3518,5.3518,5.3518,5.3518,5.3518,5.3518,5.3518,5.3518,5.3518,5.3518,5.3518,5.3365,5.3095,5.3264,5.3298,5.3112,5.2942,5.2858,5.2655,5.2012,5.1505,5.1268,5.0828,5.0321,4.9864,4.9373,4.8748,4.7973,4.7614,4.7208,4.6684,4.6295,4.594,4.5539,4.5285,4.4841,4.3859,4.3387,4.3378,4.3151,4.2746,4.2375,4.2141,4.2153,4.2022,4.1558,4.1043,4.0644,4.0228,3.9553,3.9334,5.7881,5.7881,5.7881,5.7881,5.7881,5.7881,5.7881,5.7881,5.7881,5.7881,5.7881,5.7881,5.7881,5.7881,5.7881,5.7881,5.7881,5.7881,5.7881,5.7881,5.7881,5.7881,5.7881,5.7881,5.7881,5.7881,5.7881,5.7831,5.7848,5.7831,5.778,5.7881,5.7662,5.734,5.6934,5.6613,5.6241,5.553,5.4837,5.4313,5.3907,5.3585,5.367,5.389,5.4211,5.4414,5.4194,5.4262,5.4194,5.3974,5.3585,5.3518,5.3518,5.3518,5.3518,5.3518,5.3518,5.3518,5.3518,5.3518,5.3518,5.3518,5.3518,5.3518,5.3518,5.3518,5.3518,5.3518,5.3518,5.3518,5.3518,5.3518,5.3518,5.3518,5.3518,5.3518,5.3518,5.3501,5.3501,5.3365,5.3264,5.3348,5.3027,5.2401,5.1995,5.1775,5.1268,5.0642,5.0185,4.9763,4.9543,4.9021,4.897,4.8578,4.7784,4.7276,4.6819,4.6295,4.6024,4.5445,4.4536,4.4018,4.3838,4.3541,4.3422,4.3861,4.4198,4.4029,4.3743,4.2902,4.2077,4.1353,4.0755,4.0066,3.943,5.7881,5.7881,5.7881,5.7881,5.7881,5.7881,5.7881,5.7881,5.7881,5.7881,5.7881,5.7881,5.7881,5.7881,5.7881,5.7881,5.7881,5.7881,5.7881,5.7881,5.7881,5.7881,5.7881,5.7881,5.7881,5.7881,5.7881,5.7881,5.7881,5.7881,5.7881,5.7881,5.7881,5.7442,5.712,5.6968,5.6596,5.5919,5.5226,5.482,5.4414,5.411,5.3991,5.4431,5.4634,5.4871,5.5463,5.5006,5.4583,5.438,5.3805,5.3518,5.3518,5.3518,5.3518,5.3518,5.3518,5.3518,5.3518,5.3518,5.3518,5.3518,5.3518,5.3518,5.3518,5.3518,5.3518,5.3518,5.3518,5.3518,5.3518,5.3518,5.3518,5.3518,5.3518,5.3518,5.3518,5.3518,5.3501,5.3518,5.3518,5.3518,5.3501,5.2909,5.2756,5.257,5.1995,5.1369,5.0997,5.0659,5.0794,5.0627,5.0712,5.0219,4.9137,4.8562,4.8071,4.7293,4.6718,4.6064,4.5261,4.4859,4.4622,4.4851,4.495,4.5609,4.5936,4.5216,4.4514,4.3849,4.3144,4.2528,4.1661,4.0888,4.0154,5.7881,5.7881,5.7881,5.7881,5.7881,5.7881,5.7881,5.7881,5.7881,5.7881,5.7881,5.7881,5.7881,5.7881,5.7881,5.7881,5.7881,5.7881,5.7881,5.7881,5.7881,5.7881,5.7881,5.7881,5.7881,5.7881,5.7881,5.7881,5.7881,5.7881,5.7881,5.7881,5.7881,5.7763,5.7526,5.7357,5.7002,5.6511,5.6055,5.5784,5.526,5.5091,5.5006,5.5243,5.5835,5.5767,5.5681,5.5446,5.504,5.4549,5.389,5.3619,5.3518,5.3518,5.3518,5.3518,5.3518,5.3518,5.3518,5.3518,5.3518,5.3518,5.3518,5.3518,5.3518,5.3518,5.3518,5.3518,5.3518,5.3518,5.3518,5.3518,5.3518,5.3518,5.3518,5.3518,5.3518,5.3518,5.3518,5.3518,5.3518,5.3518,5.3518,5.345,5.3416,5.3348,5.2723,5.2131,5.1775,5.1505,5.1589,5.1623,5.164,5.142,5.0388,4.9796,4.9323,4.846,4.7564,4.6907,4.6337,4.5902,4.5768,4.6085,4.6192,4.6335,4.6257,4.5832,4.532,4.4718,4.4262,4.3801,4.2868,4.1679,4.0952,5.7881,5.7881,5.7881,5.7881,5.7881,5.7881,5.7881,5.7881,5.7881,5.7881,5.7881,5.7881,5.7881,5.7881,5.7881,5.7881,5.7881,5.7881,5.7881,5.7881,5.7881,5.7881,5.7881,5.7881,5.7881,5.7881,5.7881,5.7881,5.7881,5.7881,5.7881,5.7881,5.7881,5.7848,5.7848,5.7848,5.7611,5.7239,5.6833,5.663,5.6055,5.5732,5.5817,5.5987,5.6461,5.6681,5.6325,5.6021,5.5446,5.482,5.416,5.3602,5.3518,5.3518,5.3518,5.3518,5.3518,5.3518,5.3518,5.3518,5.3518,5.3518,5.3518,5.3518,5.3518,5.3518,5.3518,5.3518,5.3518,5.3518,5.3518,5.3518,5.3518,5.3518,5.3518,5.3518,5.3518,5.3518,5.3518,5.3518,5.3518,5.3518,5.3518,5.3518,5.3518,5.3518,5.323,5.279,5.257,5.235,5.2266,5.2266,5.2232,5.1944,5.1539,5.1065,5.0557,4.9915,4.9052,4.8277,4.7669,4.7194,4.6756,4.6781,4.6845,4.6864,4.6637,4.6314,4.5997,4.5674,4.5082,4.4408,4.3212,4.2068,4.1596,5.7881,5.7881,5.7881,5.7881,5.7881,5.7881,5.7881,5.7881,5.7881,5.7881,5.7881,5.7881,5.7881,5.7881,5.7881,5.7881,5.7881,5.7881,5.7881,5.7881,5.7881,5.7881,5.7881,5.7881,5.7881,5.7881,5.7881,5.7881,5.7881,5.7881,5.7881,5.7881,5.7881,5.7881,5.7881,5.7881,5.7865,5.7763,5.7154,5.69,5.6697,5.6292,5.641,5.6697,5.69,5.7137,5.7171,5.6427,5.5902,5.5564,5.4346,5.3788,5.3687,5.3551,5.3518,5.3518,5.3518,5.3518,5.3518,5.3518,5.3518,5.3518,5.3518,5.3518,5.3518,5.3518,5.3518,5.3518,5.3518,5.3518,5.3518,5.3518,5.3518,5.3518,5.3518,5.3518,5.3518,5.3518,5.3518,5.3518,5.3518,5.3518,5.3518,5.3518,5.3518,5.3518,5.3518,5.3365,5.3145,5.3027,5.2858,5.2824,5.2773,5.2655,5.2367,5.2232,5.1809,5.1183,5.0473,4.9613,4.8954,4.8439,4.8049,4.7713,4.7664,4.7853,4.7359,4.6801,4.6362,4.5821,4.5341,4.4615,4.3448,4.273,4.248,5.7881,5.7881,5.7881,5.7881,5.7881,5.7881,5.7881,5.7881,5.7881,5.7881,5.7881,5.7881,5.7881,5.7881,5.7881,5.7881,5.7881,5.7881,5.7881,5.7881,5.7881,5.7881,5.7881,5.7881,5.7881,5.7881,5.7881,5.7881,5.7881,5.7881,5.7881,5.7881,5.7881,5.7881,5.7881,5.7881,5.7865,5.7865,5.7628,5.7509,5.7476,5.7256,5.7205,5.7476,5.7476,5.7611,5.7814,5.6816,5.641,5.6173,5.4921,5.4194,5.4025,5.3873,5.3518,5.3518,5.3518,5.3518,5.3518,5.3518,5.3518,5.3518,5.3518,5.3518,5.3518,5.3518,5.3518,5.3518,5.3518,5.3518,5.3518,5.3518,5.3518,5.3518,5.3518,5.3518,5.3518,5.3518,5.3518,5.3518,5.3518,5.3518,5.3518,5.3518,5.3518,5.3518,5.3518,5.3518,5.3348,5.3348,5.3281,5.3298,5.3281,5.3264,5.3145,5.279,5.2536,5.2012,5.142,5.0745,5.0171,4.9729,4.9603,4.9413,4.9122,4.8845,4.8356,4.7729,4.6582,4.5881,4.5742,4.5392,4.4507,4.4074,4.3949,5.7881,5.7881,5.7881,5.7881,5.7881,5.7881,5.7881,5.7881,5.7881,5.7881,5.7881,5.7881,5.7881,5.7881,5.7881,5.7881,5.7881,5.7881,5.7881,5.7881,5.7881,5.7881,5.7881,5.7881,5.7881,5.7881,5.7881,5.7881,5.7881,5.7881,5.7881,5.7881,5.7881,5.7881,5.7881,5.7881,5.7881,5.7865,5.778,5.7797,5.7797,5.778,5.7797,5.7831,5.7831,5.7881,5.7679,5.7306,5.6799,5.641,5.5632,5.4685,5.4414,5.4008,5.3568,5.3518,5.3518,5.3518,5.3518,5.3518,5.3518,5.3518,5.3518,5.3518,5.3518,5.3518,5.3518,5.3518,5.3518,5.3518,5.3518,5.3534,5.3822,5.3839,5.4093,5.4126,5.3873,5.389,5.3687,5.367,5.3518,5.3518,5.3518,5.3518,5.3518,5.3518,5.3518,5.3518,5.3518,5.3518,5.3518,5.3518,5.3518,5.3433,5.3331,5.3145,5.2909,5.2739,5.23,5.176,5.1488,5.1048,5.1053,5.1054,5.0689,5.0209,4.9472,4.8672,4.7612,4.6927,4.6719,4.6255,4.5568,4.521,4.4929,5.7881,5.7881,5.7881,5.7881,5.7881,5.7881,5.7881,5.7881,5.7881,5.7881,5.7881,5.7881,5.7881,5.7881,5.7881,5.7949,5.7949,5.7949,5.7983,5.7949,5.7966,5.7915,5.7881,5.7881,5.7881,5.7881,5.7881,5.7881,5.7881,5.7881,5.7881,5.7881,5.7881,5.7881,5.7881,5.7881,5.7881,5.7881,5.7881,5.7881,5.7881,5.7881,5.7881,5.7881,5.7881,5.7881,5.7695,5.734,5.7053,5.6494,5.5632,5.5023,5.4515,5.3991,5.3721,5.3636,5.3737,5.3805,5.3856,5.3923,5.3873,5.4008,5.3839,5.367,5.3518,5.3518,5.3518,5.3518,5.3518,5.3518,5.3518,5.3974,5.4431,5.4718,5.5124,5.4938,5.4549,5.4329,5.4042,5.3839,5.3585,5.3518,5.3518,5.3518,5.3518,5.3518,5.3518,5.3518,5.3518,5.3518,5.3518,5.3518,5.3518,5.3518,5.3416,5.3298,5.3264,5.3095,5.3162,5.2807,5.2536,5.2063,5.1658,5.1507,5.1861,5.1513,5.0607,4.9686,4.8643,4.8109,4.7548,4.7071,4.6423,4.5798,4.5453,5.7881,5.7881,5.7881,5.7881,5.7881,5.7881,5.7881,5.7881,5.7881,5.7881,5.7881,5.7881,5.7881,5.7881,5.7881,5.8203,5.8304,5.8287,5.8372,5.8321,5.8186,5.7966,5.7881,5.7881,5.7881,5.7881,5.7881,5.7881,5.7881,5.7881,5.7881,5.7881,5.7881,5.7881,5.7881,5.7881,5.7881,5.7881,5.7881,5.7881,5.7881,5.7881,5.7881,5.7881,5.7881,5.7881,5.7746,5.7662,5.7492,5.7273,5.6613,5.6156,5.6105,5.5513,5.5056,5.5091,5.5108,5.5108,5.5074,5.5057,5.4972,5.4888,5.4938,5.4329,5.394,5.3653,5.3687,5.3805,5.3839,5.3907,5.4093,5.4482,5.4871,5.5209,5.5581,5.5632,5.5243,5.4921,5.46,5.3923,5.367,5.3518,5.3518,5.3518,5.3518,5.3518,5.3518,5.3518,5.3518,5.3518,5.3518,5.3518,5.3518,5.3518,5.3518,5.3433,5.3467,5.3467,5.3484,5.3416,5.3027,5.252,5.2012,5.1827,5.1962,5.1899,5.1597,5.0608,4.9668,4.8694,4.81,4.7701,4.7261,4.6622,4.6176,5.7881,5.7881,5.7881,5.7881,5.7881,5.7881,5.7881,5.7881,5.7881,5.7881,5.7881,5.7881,5.7881,5.7881,5.7932,5.8254,5.8896,5.8626,5.8609,5.8676,5.8524,5.8186,5.8017,5.7898,5.7881,5.7881,5.7881,5.7881,5.7881,5.7881,5.7881,5.7881,5.7881,5.7881,5.7881,5.7881,5.7881,5.7881,5.7881,5.7881,5.7881,5.7881,5.7881,5.7881,5.7881,5.7881,5.7881,5.7881,5.7881,5.778,5.7171,5.6799,5.6647,5.6105,5.5664,5.558,5.5598,5.5564,5.5547,5.5598,5.5683,5.5698,5.5767,5.5277,5.4871,5.4617,5.4583,5.4583,5.4499,5.4499,5.4735,5.4989,5.526,5.5564,5.5886,5.6224,5.5936,5.5598,5.4938,5.4143,5.3771,5.3585,5.3518,5.3518,5.3518,5.3518,5.3518,5.3518,5.3518,5.3518,5.3518,5.3518,5.3518,5.3518,5.3518,5.3518,5.3518,5.3518,5.3501,5.3416,5.3247,5.2841,5.2198,5.1962,5.1913,5.2,5.2219,5.1569,5.0684,4.9779,4.909,4.8901,4.8352,4.7383,4.7056,5.7881,5.7881,5.7881,5.7881,5.7881,5.7881,5.7881,5.7881,5.7881,5.7881,5.7881,5.7881,5.7881,5.7881,5.7898,5.844,5.8947,5.8998,5.9116,5.9133,5.8913,5.8609,5.822,5.7932,5.7881,5.7881,5.7881,5.7881,5.7881,5.7881,5.7881,5.7881,5.7881,5.7881,5.7881,5.7881,5.7881,5.7881,5.7881,5.7881,5.7881,5.7881,5.7881,5.7881,5.7881,5.7881,5.7881,5.7881,5.7881,5.7645,5.7391,5.6985,5.6765,5.6494,5.6156,5.6072,5.6224,5.6224,5.6258,5.6275,5.6173,5.6089,5.5902,5.6038,5.5953,5.5395,5.5226,5.5192,5.5108,5.5108,5.5294,5.575,5.6105,5.6376,5.6697,5.6731,5.6444,5.5902,5.5057,5.4313,5.3788,5.3602,5.3518,5.3518,5.3518,5.3518,5.3518,5.3518,5.3551,5.3551,5.3568,5.3551,5.3518,5.3518,5.3518,5.3518,5.3518,5.3518,5.3518,5.3501,5.3382,5.2926,5.235,5.2182,5.2115,5.2639,5.2792,5.2126,5.1562,5.0961,5.044,5.024,4.9544,4.8423,4.8174,5.7881,5.7881,5.7881,5.7881,5.7881,5.7881,5.7881,5.7881,5.7881,5.7881,5.7881,5.7881,5.7881,5.7881,5.7898,5.8507,5.9488,5.9404,5.981,5.9894,5.9708,5.9082,5.8626,5.822,5.8,5.7881,5.7881,5.7949,5.7881,5.7881,5.7881,5.7881,5.7881,5.7881,5.7881,5.7881,5.7881,5.7881,5.7881,5.7881,5.7881,5.7881,5.7881,5.7881,5.7881,5.7881,5.7881,5.7881,5.7881,5.778,5.7729,5.7645,5.7594,5.7408,5.7357,5.7374,5.7188,5.7137,5.7137,5.7103,5.7103,5.7205,5.7256,5.734,5.7053,5.6241,5.5801,5.5801,5.5801,5.5818,5.597,5.6494,5.6917,5.7188,5.7425,5.7171,5.6917,5.6089,5.5226,5.4634,5.4025,5.3771,5.3687,5.3619,5.3518,5.3518,5.3518,5.3534,5.3653,5.3687,5.3704,5.3687,5.3534,5.3518,5.3518,5.3518,5.3518,5.3518,5.3518,5.3518,5.3484,5.2892,5.2317,5.2317,5.2401,5.2807,5.2994,5.2753,5.2224,5.1696,5.122,5.0805,5.0476,4.9555,4.9447,5.7881,5.7881,5.7881,5.7881,5.7881,5.7881,5.7881,5.7881,5.7881,5.7881,5.7881,5.7881,5.7881,5.7881,5.7898,5.871,5.9827,5.9691,6.0233,6.0605,6.0469,5.9674,5.9116,5.8643,5.8541,5.8389,5.8355,5.8321,5.8,5.7881,5.7881,5.7881,5.7881,5.7881,5.7881,5.7881,5.7881,5.7881,5.7881,5.7881,5.7881,5.7881,5.7881,5.7881,5.7881,5.7881,5.7881,5.7881,5.7881,5.7881,5.7831,5.7831,5.7814,5.7763,5.7814,5.7814,5.778,5.7881,5.7881,5.7881,5.7881,5.7881,5.7881,5.7679,5.7679,5.6968,5.6934,5.6934,5.6934,5.6951,5.6951,5.734,5.7408,5.7594,5.7679,5.756,5.7239,5.6697,5.6173,5.5852,5.5277,5.482,5.4769,5.4786,5.4718,5.4702,5.4532,5.4397,5.4363,5.3923,5.3907,5.3805,5.3653,5.3534,5.3518,5.3518,5.3518,5.3518,5.3518,5.3264,5.3061,5.2672,5.2317,5.2401,5.2536,5.2739,5.2842,5.2855,5.2626,5.2076,5.159,5.1155,5.0816,5.0519,5.0432,5.7881,5.7881,5.7881,5.7881,5.7881,5.7881,5.7881,5.7881,5.7881,5.7881,5.7881,5.7881,5.7881,5.7881,5.7949,5.8981,5.9674,5.9877,6.0554,6.1247,6.1264,6.052,5.9827,5.9268,5.9184,5.9066,5.8964,5.8575,5.8169,5.8017,5.7881,5.7881,5.7881,5.7881,5.7881,5.7881,5.7881,5.7881,5.7881,5.7881,5.7881,5.7881,5.7881,5.7881,5.7881,5.7881,5.7881,5.7881,5.7881,5.7881,5.7881,5.7881,5.7881,5.7881,5.7881,5.7881,5.7881,5.7881,5.7881,5.7881,5.7881,5.7881,5.7881,5.7865,5.7865,5.7831,5.7797,5.778,5.778,5.778,5.778,5.778,5.7814,5.7831,5.7865,5.7881,5.7543,5.7171,5.6934,5.6714,5.6258,5.5733,5.5666,5.5681,5.5698,5.575,5.575,5.5681,5.5463,5.4702,5.4279,5.4042,5.3788,5.367,5.3534,5.3518,5.3518,5.3518,5.345,5.3061,5.2773,5.279,5.2739,5.2621,5.2756,5.2976,5.3045,5.3094,5.2782,5.2414,5.2115,5.1674,5.1017,5.0805,5.1076,5.7881,5.7881,5.7881,5.7881,5.7881,5.7881,5.7881,5.7881,5.7881,5.7881,5.7881,5.7881,5.7881,5.7881,5.7881,5.8693,5.9928,6.0165,6.1095,6.1992,6.1637,6.118,6.0689,6.0063,5.9928,5.9708,5.9421,5.8981,5.8744,5.8271,5.7949,5.8051,5.8,5.7983,5.8003,5.8,5.8101,5.8068,5.8,5.8,5.7881,5.7881,5.7881,5.7881,5.7881,5.7881,5.7881,5.7881,5.7881,5.7881,5.7881,5.7881,5.7881,5.7881,5.7881,5.7881,5.7881,5.7881,5.7881,5.7881,5.7881,5.7881,5.7881,5.7881,5.7865,5.7865,5.7848,5.7848,5.7848,5.7848,5.7848,5.7848,5.7865,5.7865,5.7881,5.7881,5.7712,5.7306,5.6968,5.6714,5.641,5.6105,5.597,5.5987,5.6004,5.6021,5.6038,5.6021,5.6055,5.5378,5.4718,5.4465,5.4194,5.3687,5.3518,5.3518,5.3518,5.3518,5.3484,5.3264,5.3179,5.3331,5.3264,5.3044,5.3112,5.3331,5.3382,5.3264,5.3127,5.2834,5.2642,5.2231,5.1456,5.1076,5.1288]}]]